<?xml version="1.0" encoding="UTF-8" standalone="no" ?>
<gpx xmlns="http://www.topografix.com/GPX/1/1" xmlns:xsi="http://www.w3.org/2001/XMLSchema-instance" xsi:schemaLocation="http://www.topografix.com/GPX/1/1 http://www.topografix.com/GPX/1/1/gpx.xsd" version="1.1" creator="VisuGPX - https://www.visugpx.com">
  <metadata>
    <name>Zimmerbach Petit Ballon</name>
  </metadata>
  <trk>
    <name><![CDATA[9737206-MTB_Munster_50]]></name>
    <trkseg>
      <trkpt lat="48.07511" lon="7.23139">
        <ele>323</ele>
        <time>2019-05-06T11:01:08Z</time>
      </trkpt>
      <trkpt lat="48.07536" lon="7.23109">
        <ele>326</ele>
        <time>2019-05-06T11:02:08Z</time>
      </trkpt>
      <trkpt lat="48.07541" lon="7.23091">
        <ele>327</ele>
        <time>2019-05-06T11:03:08Z</time>
      </trkpt>
      <trkpt lat="48.07536" lon="7.2305">
        <ele>330</ele>
        <time>2019-05-06T11:04:08Z</time>
      </trkpt>
      <trkpt lat="48.07537" lon="7.23016">
        <ele>333</ele>
        <time>2019-05-06T11:05:08Z</time>
      </trkpt>
      <trkpt lat="48.07531" lon="7.23011">
        <ele>334</ele>
        <time>2019-05-06T11:06:08Z</time>
      </trkpt>
      <trkpt lat="48.07519" lon="7.23009">
        <ele>334</ele>
        <time>2019-05-06T11:07:08Z</time>
      </trkpt>
      <trkpt lat="48.07511" lon="7.23018">
        <ele>334</ele>
        <time>2019-05-06T11:08:08Z</time>
      </trkpt>
      <trkpt lat="48.07501" lon="7.23037">
        <ele>332</ele>
        <time>2019-05-06T11:09:08Z</time>
      </trkpt>
      <trkpt lat="48.07493" lon="7.23038">
        <ele>332</ele>
        <time>2019-05-06T11:10:08Z</time>
      </trkpt>
      <trkpt lat="48.07485" lon="7.23031">
        <ele>333</ele>
        <time>2019-05-06T11:11:08Z</time>
      </trkpt>
      <trkpt lat="48.07473" lon="7.23029">
        <ele>333</ele>
        <time>2019-05-06T11:12:08Z</time>
      </trkpt>
      <trkpt lat="48.0744" lon="7.23033">
        <ele>333</ele>
        <time>2019-05-06T11:13:08Z</time>
      </trkpt>
      <trkpt lat="48.0743" lon="7.23031">
        <ele>333</ele>
        <time>2019-05-06T11:14:08Z</time>
      </trkpt>
      <trkpt lat="48.0742" lon="7.23023">
        <ele>334</ele>
        <time>2019-05-06T11:15:08Z</time>
      </trkpt>
      <trkpt lat="48.07414" lon="7.23005">
        <ele>335</ele>
        <time>2019-05-06T11:16:08Z</time>
      </trkpt>
      <trkpt lat="48.07413" lon="7.22991">
        <ele>337</ele>
        <time>2019-05-06T11:17:08Z</time>
      </trkpt>
      <trkpt lat="48.07402" lon="7.22951">
        <ele>346</ele>
        <time>2019-05-06T11:18:08Z</time>
      </trkpt>
      <trkpt lat="48.07397" lon="7.22923">
        <ele>352</ele>
        <time>2019-05-06T11:19:08Z</time>
      </trkpt>
      <trkpt lat="48.07389" lon="7.22918">
        <ele>354</ele>
        <time>2019-05-06T11:20:08Z</time>
      </trkpt>
      <trkpt lat="48.07363" lon="7.22943">
        <ele>351</ele>
        <time>2019-05-06T11:21:08Z</time>
      </trkpt>
      <trkpt lat="48.07327" lon="7.22983">
        <ele>346</ele>
        <time>2019-05-06T11:22:08Z</time>
      </trkpt>
      <trkpt lat="48.07294" lon="7.23055">
        <ele>343</ele>
        <time>2019-05-06T11:23:08Z</time>
      </trkpt>
      <trkpt lat="48.07243" lon="7.23139">
        <ele>340</ele>
        <time>2019-05-06T11:24:08Z</time>
      </trkpt>
      <trkpt lat="48.07206" lon="7.23208">
        <ele>338</ele>
        <time>2019-05-06T11:25:08Z</time>
      </trkpt>
      <trkpt lat="48.07198" lon="7.23214">
        <ele>339</ele>
        <time>2019-05-06T11:26:08Z</time>
      </trkpt>
      <trkpt lat="48.07174" lon="7.23194">
        <ele>342</ele>
        <time>2019-05-06T11:27:08Z</time>
      </trkpt>
      <trkpt lat="48.07167" lon="7.23181">
        <ele>343</ele>
        <time>2019-05-06T11:28:08Z</time>
      </trkpt>
      <trkpt lat="48.07181" lon="7.23138">
        <ele>343</ele>
        <time>2019-05-06T11:29:08Z</time>
      </trkpt>
      <trkpt lat="48.07193" lon="7.23056">
        <ele>347</ele>
        <time>2019-05-06T11:30:08Z</time>
      </trkpt>
      <trkpt lat="48.07207" lon="7.23019">
        <ele>350</ele>
        <time>2019-05-06T11:31:08Z</time>
      </trkpt>
      <trkpt lat="48.07209" lon="7.22981">
        <ele>352</ele>
        <time>2019-05-06T11:32:08Z</time>
      </trkpt>
      <trkpt lat="48.07216" lon="7.22937">
        <ele>355</ele>
        <time>2019-05-06T11:33:08Z</time>
      </trkpt>
      <trkpt lat="48.07224" lon="7.22904">
        <ele>357</ele>
        <time>2019-05-06T11:34:08Z</time>
      </trkpt>
      <trkpt lat="48.07241" lon="7.22863">
        <ele>361</ele>
        <time>2019-05-06T11:35:08Z</time>
      </trkpt>
      <trkpt lat="48.0725" lon="7.22851">
        <ele>363</ele>
        <time>2019-05-06T11:36:08Z</time>
      </trkpt>
      <trkpt lat="48.07275" lon="7.22833">
        <ele>366</ele>
        <time>2019-05-06T11:37:08Z</time>
      </trkpt>
      <trkpt lat="48.07275" lon="7.22821">
        <ele>368</ele>
        <time>2019-05-06T11:38:08Z</time>
      </trkpt>
      <trkpt lat="48.07267" lon="7.22795">
        <ele>369</ele>
        <time>2019-05-06T11:39:08Z</time>
      </trkpt>
      <trkpt lat="48.07258" lon="7.22734">
        <ele>372</ele>
        <time>2019-05-06T11:40:08Z</time>
      </trkpt>
      <trkpt lat="48.07253" lon="7.22662">
        <ele>379</ele>
        <time>2019-05-06T11:41:08Z</time>
      </trkpt>
      <trkpt lat="48.07255" lon="7.22623">
        <ele>389</ele>
        <time>2019-05-06T11:42:08Z</time>
      </trkpt>
      <trkpt lat="48.07251" lon="7.22609">
        <ele>392</ele>
        <time>2019-05-06T11:43:08Z</time>
      </trkpt>
      <trkpt lat="48.0724" lon="7.22597">
        <ele>392</ele>
        <time>2019-05-06T11:44:08Z</time>
      </trkpt>
      <trkpt lat="48.07229" lon="7.22594">
        <ele>391</ele>
        <time>2019-05-06T11:45:08Z</time>
      </trkpt>
      <trkpt lat="48.07211" lon="7.22581">
        <ele>390</ele>
        <time>2019-05-06T11:46:08Z</time>
      </trkpt>
      <trkpt lat="48.07192" lon="7.22544">
        <ele>395</ele>
        <time>2019-05-06T11:47:08Z</time>
      </trkpt>
      <trkpt lat="48.07186" lon="7.22537">
        <ele>395</ele>
        <time>2019-05-06T11:48:08Z</time>
      </trkpt>
      <trkpt lat="48.07173" lon="7.22499">
        <ele>401</ele>
        <time>2019-05-06T11:49:08Z</time>
      </trkpt>
      <trkpt lat="48.07161" lon="7.22485">
        <ele>402</ele>
        <time>2019-05-06T11:50:08Z</time>
      </trkpt>
      <trkpt lat="48.07152" lon="7.22482">
        <ele>401</ele>
        <time>2019-05-06T11:51:08Z</time>
      </trkpt>
      <trkpt lat="48.07124" lon="7.22412">
        <ele>416</ele>
        <time>2019-05-06T11:52:08Z</time>
      </trkpt>
      <trkpt lat="48.07103" lon="7.2239">
        <ele>421</ele>
        <time>2019-05-06T11:53:08Z</time>
      </trkpt>
      <trkpt lat="48.07078" lon="7.22383">
        <ele>420</ele>
        <time>2019-05-06T11:54:08Z</time>
      </trkpt>
      <trkpt lat="48.07048" lon="7.2237">
        <ele>423</ele>
        <time>2019-05-06T11:55:08Z</time>
      </trkpt>
      <trkpt lat="48.07037" lon="7.22352">
        <ele>428</ele>
        <time>2019-05-06T11:56:08Z</time>
      </trkpt>
      <trkpt lat="48.07028" lon="7.22347">
        <ele>429</ele>
        <time>2019-05-06T11:57:08Z</time>
      </trkpt>
      <trkpt lat="48.07021" lon="7.22348">
        <ele>428</ele>
        <time>2019-05-06T11:58:08Z</time>
      </trkpt>
      <trkpt lat="48.07008" lon="7.22358">
        <ele>425</ele>
        <time>2019-05-06T11:59:08Z</time>
      </trkpt>
      <trkpt lat="48.06999" lon="7.22358">
        <ele>424</ele>
        <time>2019-05-06T12:00:08Z</time>
      </trkpt>
      <trkpt lat="48.06992" lon="7.22365">
        <ele>423</ele>
        <time>2019-05-06T12:01:08Z</time>
      </trkpt>
      <trkpt lat="48.06967" lon="7.22369">
        <ele>423</ele>
        <time>2019-05-06T12:02:08Z</time>
      </trkpt>
      <trkpt lat="48.06959" lon="7.22377">
        <ele>422</ele>
        <time>2019-05-06T12:03:08Z</time>
      </trkpt>
      <trkpt lat="48.06951" lon="7.22379">
        <ele>422</ele>
        <time>2019-05-06T12:04:08Z</time>
      </trkpt>
      <trkpt lat="48.06944" lon="7.22374">
        <ele>423</ele>
        <time>2019-05-06T12:05:08Z</time>
      </trkpt>
      <trkpt lat="48.06934" lon="7.22375">
        <ele>423</ele>
        <time>2019-05-06T12:06:08Z</time>
      </trkpt>
      <trkpt lat="48.06926" lon="7.22372">
        <ele>424</ele>
        <time>2019-05-06T12:07:08Z</time>
      </trkpt>
      <trkpt lat="48.06919" lon="7.22366">
        <ele>425</ele>
        <time>2019-05-06T12:08:08Z</time>
      </trkpt>
      <trkpt lat="48.06906" lon="7.2236">
        <ele>424</ele>
        <time>2019-05-06T12:09:08Z</time>
      </trkpt>
      <trkpt lat="48.06849" lon="7.22366">
        <ele>415</ele>
        <time>2019-05-06T12:10:08Z</time>
      </trkpt>
      <trkpt lat="48.06798" lon="7.2244">
        <ele>400</ele>
        <time>2019-05-06T12:11:08Z</time>
      </trkpt>
      <trkpt lat="48.06777" lon="7.22463">
        <ele>396</ele>
        <time>2019-05-06T12:12:08Z</time>
      </trkpt>
      <trkpt lat="48.06763" lon="7.22434">
        <ele>395</ele>
        <time>2019-05-06T12:13:08Z</time>
      </trkpt>
      <trkpt lat="48.06744" lon="7.22324">
        <ele>395</ele>
        <time>2019-05-06T12:14:08Z</time>
      </trkpt>
      <trkpt lat="48.06724" lon="7.2224">
        <ele>394</ele>
        <time>2019-05-06T12:15:08Z</time>
      </trkpt>
      <trkpt lat="48.0672" lon="7.22213">
        <ele>392</ele>
        <time>2019-05-06T12:16:08Z</time>
      </trkpt>
      <trkpt lat="48.06718" lon="7.22174">
        <ele>391</ele>
        <time>2019-05-06T12:17:08Z</time>
      </trkpt>
      <trkpt lat="48.06743" lon="7.22118">
        <ele>392</ele>
        <time>2019-05-06T12:18:08Z</time>
      </trkpt>
      <trkpt lat="48.06771" lon="7.2207">
        <ele>391</ele>
        <time>2019-05-06T12:19:08Z</time>
      </trkpt>
      <trkpt lat="48.06808" lon="7.22031">
        <ele>393</ele>
        <time>2019-05-06T12:20:08Z</time>
      </trkpt>
      <trkpt lat="48.0683" lon="7.22017">
        <ele>395</ele>
        <time>2019-05-06T12:21:08Z</time>
      </trkpt>
      <trkpt lat="48.06818" lon="7.21988">
        <ele>391</ele>
        <time>2019-05-06T12:22:08Z</time>
      </trkpt>
      <trkpt lat="48.06741" lon="7.21928">
        <ele>370</ele>
        <time>2019-05-06T12:23:08Z</time>
      </trkpt>
      <trkpt lat="48.06738" lon="7.21904">
        <ele>368</ele>
        <time>2019-05-06T12:24:08Z</time>
      </trkpt>
      <trkpt lat="48.06696" lon="7.21868">
        <ele>361</ele>
        <time>2019-05-06T12:25:08Z</time>
      </trkpt>
      <trkpt lat="48.06692" lon="7.21839">
        <ele>361</ele>
        <time>2019-05-06T12:26:08Z</time>
      </trkpt>
      <trkpt lat="48.06685" lon="7.21821">
        <ele>361</ele>
        <time>2019-05-06T12:27:08Z</time>
      </trkpt>
      <trkpt lat="48.0667" lon="7.2181">
        <ele>360</ele>
        <time>2019-05-06T12:28:08Z</time>
      </trkpt>
      <trkpt lat="48.06651" lon="7.21809">
        <ele>360</ele>
        <time>2019-05-06T12:29:08Z</time>
      </trkpt>
      <trkpt lat="48.06636" lon="7.21815">
        <ele>360</ele>
        <time>2019-05-06T12:30:08Z</time>
      </trkpt>
      <trkpt lat="48.06611" lon="7.21811">
        <ele>360</ele>
        <time>2019-05-06T12:31:08Z</time>
      </trkpt>
      <trkpt lat="48.06553" lon="7.21796">
        <ele>360</ele>
        <time>2019-05-06T12:32:08Z</time>
      </trkpt>
      <trkpt lat="48.06532" lon="7.21802">
        <ele>358</ele>
        <time>2019-05-06T12:33:08Z</time>
      </trkpt>
      <trkpt lat="48.06506" lon="7.21814">
        <ele>355</ele>
        <time>2019-05-06T12:34:08Z</time>
      </trkpt>
      <trkpt lat="48.06475" lon="7.21822">
        <ele>353</ele>
        <time>2019-05-06T12:35:08Z</time>
      </trkpt>
      <trkpt lat="48.06443" lon="7.21808">
        <ele>353</ele>
        <time>2019-05-06T12:36:08Z</time>
      </trkpt>
      <trkpt lat="48.06421" lon="7.21791">
        <ele>353</ele>
        <time>2019-05-06T12:37:08Z</time>
      </trkpt>
      <trkpt lat="48.06373" lon="7.21747">
        <ele>356</ele>
        <time>2019-05-06T12:38:08Z</time>
      </trkpt>
      <trkpt lat="48.06345" lon="7.21717">
        <ele>357</ele>
        <time>2019-05-06T12:39:08Z</time>
      </trkpt>
      <trkpt lat="48.06331" lon="7.21695">
        <ele>357</ele>
        <time>2019-05-06T12:40:08Z</time>
      </trkpt>
      <trkpt lat="48.0632" lon="7.21665">
        <ele>357</ele>
        <time>2019-05-06T12:41:08Z</time>
      </trkpt>
      <trkpt lat="48.06324" lon="7.21648">
        <ele>358</ele>
        <time>2019-05-06T12:42:08Z</time>
      </trkpt>
      <trkpt lat="48.06326" lon="7.21581">
        <ele>359</ele>
        <time>2019-05-06T12:43:08Z</time>
      </trkpt>
      <trkpt lat="48.06338" lon="7.21537">
        <ele>360</ele>
        <time>2019-05-06T12:44:08Z</time>
      </trkpt>
      <trkpt lat="48.0634" lon="7.21519">
        <ele>360</ele>
        <time>2019-05-06T12:45:08Z</time>
      </trkpt>
      <trkpt lat="48.06342" lon="7.21418">
        <ele>364</ele>
        <time>2019-05-06T12:46:08Z</time>
      </trkpt>
      <trkpt lat="48.06339" lon="7.2137">
        <ele>368</ele>
        <time>2019-05-06T12:47:08Z</time>
      </trkpt>
      <trkpt lat="48.06336" lon="7.21352">
        <ele>370</ele>
        <time>2019-05-06T12:48:08Z</time>
      </trkpt>
      <trkpt lat="48.0633" lon="7.21337">
        <ele>370</ele>
        <time>2019-05-06T12:49:08Z</time>
      </trkpt>
      <trkpt lat="48.0632" lon="7.21323">
        <ele>371</ele>
        <time>2019-05-06T12:50:08Z</time>
      </trkpt>
      <trkpt lat="48.06293" lon="7.21301">
        <ele>371</ele>
        <time>2019-05-06T12:51:08Z</time>
      </trkpt>
      <trkpt lat="48.06286" lon="7.21292">
        <ele>371</ele>
        <time>2019-05-06T12:52:08Z</time>
      </trkpt>
      <trkpt lat="48.06284" lon="7.21279">
        <ele>373</ele>
        <time>2019-05-06T12:53:08Z</time>
      </trkpt>
      <trkpt lat="48.06287" lon="7.21254">
        <ele>376</ele>
        <time>2019-05-06T12:54:08Z</time>
      </trkpt>
      <trkpt lat="48.06286" lon="7.21187">
        <ele>382</ele>
        <time>2019-05-06T12:55:08Z</time>
      </trkpt>
      <trkpt lat="48.06277" lon="7.2106">
        <ele>385</ele>
        <time>2019-05-06T12:56:08Z</time>
      </trkpt>
      <trkpt lat="48.06294" lon="7.20947">
        <ele>391</ele>
        <time>2019-05-06T12:57:08Z</time>
      </trkpt>
      <trkpt lat="48.06321" lon="7.20881">
        <ele>402</ele>
        <time>2019-05-06T12:58:08Z</time>
      </trkpt>
      <trkpt lat="48.06318" lon="7.20859">
        <ele>403</ele>
        <time>2019-05-06T12:59:08Z</time>
      </trkpt>
      <trkpt lat="48.06308" lon="7.2083">
        <ele>402</ele>
        <time>2019-05-06T13:00:08Z</time>
      </trkpt>
      <trkpt lat="48.06309" lon="7.20759">
        <ele>407</ele>
        <time>2019-05-06T13:01:08Z</time>
      </trkpt>
      <trkpt lat="48.06306" lon="7.20746">
        <ele>408</ele>
        <time>2019-05-06T13:02:08Z</time>
      </trkpt>
      <trkpt lat="48.06287" lon="7.20722">
        <ele>407</ele>
        <time>2019-05-06T13:03:08Z</time>
      </trkpt>
      <trkpt lat="48.06276" lon="7.20721">
        <ele>406</ele>
        <time>2019-05-06T13:04:08Z</time>
      </trkpt>
      <trkpt lat="48.06259" lon="7.20755">
        <ele>397</ele>
        <time>2019-05-06T13:05:08Z</time>
      </trkpt>
      <trkpt lat="48.06236" lon="7.20784">
        <ele>390</ele>
        <time>2019-05-06T13:06:08Z</time>
      </trkpt>
      <trkpt lat="48.06187" lon="7.20817">
        <ele>379</ele>
        <time>2019-05-06T13:07:08Z</time>
      </trkpt>
      <trkpt lat="48.06163" lon="7.20827">
        <ele>375</ele>
        <time>2019-05-06T13:08:08Z</time>
      </trkpt>
      <trkpt lat="48.06135" lon="7.20806">
        <ele>381</ele>
        <time>2019-05-06T13:09:08Z</time>
      </trkpt>
      <trkpt lat="48.06116" lon="7.20801">
        <ele>384</ele>
        <time>2019-05-06T13:10:08Z</time>
      </trkpt>
      <trkpt lat="48.06097" lon="7.20916">
        <ele>367</ele>
        <time>2019-05-06T13:11:08Z</time>
      </trkpt>
      <trkpt lat="48.06071" lon="7.21047">
        <ele>348</ele>
        <time>2019-05-06T13:12:08Z</time>
      </trkpt>
      <trkpt lat="48.06014" lon="7.21135">
        <ele>341</ele>
        <time>2019-05-06T13:13:08Z</time>
      </trkpt>
      <trkpt lat="48.05977" lon="7.21172">
        <ele>336</ele>
        <time>2019-05-06T13:14:08Z</time>
      </trkpt>
      <trkpt lat="48.05953" lon="7.21184">
        <ele>336</ele>
        <time>2019-05-06T13:15:08Z</time>
      </trkpt>
      <trkpt lat="48.05929" lon="7.21202">
        <ele>335</ele>
        <time>2019-05-06T13:16:08Z</time>
      </trkpt>
      <trkpt lat="48.05906" lon="7.21228">
        <ele>331</ele>
        <time>2019-05-06T13:17:08Z</time>
      </trkpt>
      <trkpt lat="48.05883" lon="7.21231">
        <ele>330</ele>
        <time>2019-05-06T13:18:08Z</time>
      </trkpt>
      <trkpt lat="48.05843" lon="7.21226">
        <ele>330</ele>
        <time>2019-05-06T13:19:08Z</time>
      </trkpt>
      <trkpt lat="48.05811" lon="7.21198">
        <ele>330</ele>
        <time>2019-05-06T13:20:08Z</time>
      </trkpt>
      <trkpt lat="48.05783" lon="7.21169">
        <ele>328</ele>
        <time>2019-05-06T13:21:08Z</time>
      </trkpt>
      <trkpt lat="48.05671" lon="7.21008">
        <ele>328</ele>
        <time>2019-05-06T13:22:08Z</time>
      </trkpt>
      <trkpt lat="48.05629" lon="7.2096">
        <ele>328</ele>
        <time>2019-05-06T13:23:08Z</time>
      </trkpt>
      <trkpt lat="48.05609" lon="7.20932">
        <ele>328</ele>
        <time>2019-05-06T13:24:08Z</time>
      </trkpt>
      <trkpt lat="48.05535" lon="7.20771">
        <ele>331</ele>
        <time>2019-05-06T13:25:08Z</time>
      </trkpt>
      <trkpt lat="48.05514" lon="7.20714">
        <ele>331</ele>
        <time>2019-05-06T13:26:08Z</time>
      </trkpt>
      <trkpt lat="48.05492" lon="7.20636">
        <ele>333</ele>
        <time>2019-05-06T13:27:08Z</time>
      </trkpt>
      <trkpt lat="48.05467" lon="7.20587">
        <ele>334</ele>
        <time>2019-05-06T13:28:08Z</time>
      </trkpt>
      <trkpt lat="48.0545" lon="7.2054">
        <ele>335</ele>
        <time>2019-05-06T13:29:08Z</time>
      </trkpt>
      <trkpt lat="48.05437" lon="7.20515">
        <ele>335</ele>
        <time>2019-05-06T13:30:08Z</time>
      </trkpt>
      <trkpt lat="48.05418" lon="7.20502">
        <ele>333</ele>
        <time>2019-05-06T13:31:08Z</time>
      </trkpt>
      <trkpt lat="48.054" lon="7.2048">
        <ele>333</ele>
        <time>2019-05-06T13:32:08Z</time>
      </trkpt>
      <trkpt lat="48.0538" lon="7.20431">
        <ele>333</ele>
        <time>2019-05-06T13:33:08Z</time>
      </trkpt>
      <trkpt lat="48.05373" lon="7.2043">
        <ele>333</ele>
        <time>2019-05-06T13:34:08Z</time>
      </trkpt>
      <trkpt lat="48.05362" lon="7.20421">
        <ele>332</ele>
        <time>2019-05-06T13:35:08Z</time>
      </trkpt>
      <trkpt lat="48.05346" lon="7.20419">
        <ele>331</ele>
        <time>2019-05-06T13:36:08Z</time>
      </trkpt>
      <trkpt lat="48.05321" lon="7.20425">
        <ele>329</ele>
        <time>2019-05-06T13:37:08Z</time>
      </trkpt>
      <trkpt lat="48.05277" lon="7.2045">
        <ele>326</ele>
        <time>2019-05-06T13:38:08Z</time>
      </trkpt>
      <trkpt lat="48.05214" lon="7.2047">
        <ele>323</ele>
        <time>2019-05-06T13:39:08Z</time>
      </trkpt>
      <trkpt lat="48.05198" lon="7.20483">
        <ele>322</ele>
        <time>2019-05-06T13:40:08Z</time>
      </trkpt>
      <trkpt lat="48.05132" lon="7.20548">
        <ele>317</ele>
        <time>2019-05-06T13:41:08Z</time>
      </trkpt>
      <trkpt lat="48.05097" lon="7.20576">
        <ele>315</ele>
        <time>2019-05-06T13:42:08Z</time>
      </trkpt>
      <trkpt lat="48.04953" lon="7.20683">
        <ele>309</ele>
        <time>2019-05-06T13:43:08Z</time>
      </trkpt>
      <trkpt lat="48.04932" lon="7.20702">
        <ele>309</ele>
        <time>2019-05-06T13:44:08Z</time>
      </trkpt>
      <trkpt lat="48.04877" lon="7.20739">
        <ele>308</ele>
        <time>2019-05-06T13:45:08Z</time>
      </trkpt>
      <trkpt lat="48.04833" lon="7.20775">
        <ele>306</ele>
        <time>2019-05-06T13:46:08Z</time>
      </trkpt>
      <trkpt lat="48.04763" lon="7.20827">
        <ele>307</ele>
        <time>2019-05-06T13:47:08Z</time>
      </trkpt>
      <trkpt lat="48.04709" lon="7.20877">
        <ele>308</ele>
        <time>2019-05-06T13:48:08Z</time>
      </trkpt>
      <trkpt lat="48.0469" lon="7.209">
        <ele>309</ele>
        <time>2019-05-06T13:49:08Z</time>
      </trkpt>
      <trkpt lat="48.04671" lon="7.20896">
        <ele>309</ele>
        <time>2019-05-06T13:50:08Z</time>
      </trkpt>
      <trkpt lat="48.0466" lon="7.20866">
        <ele>310</ele>
        <time>2019-05-06T13:51:08Z</time>
      </trkpt>
      <trkpt lat="48.0462" lon="7.20791">
        <ele>309</ele>
        <time>2019-05-06T13:52:08Z</time>
      </trkpt>
      <trkpt lat="48.04605" lon="7.20779">
        <ele>309</ele>
        <time>2019-05-06T13:53:08Z</time>
      </trkpt>
      <trkpt lat="48.04589" lon="7.20782">
        <ele>309</ele>
        <time>2019-05-06T13:54:08Z</time>
      </trkpt>
      <trkpt lat="48.04569" lon="7.20775">
        <ele>309</ele>
        <time>2019-05-06T13:55:08Z</time>
      </trkpt>
      <trkpt lat="48.04537" lon="7.20742">
        <ele>310</ele>
        <time>2019-05-06T13:56:08Z</time>
      </trkpt>
      <trkpt lat="48.04521" lon="7.20718">
        <ele>311</ele>
        <time>2019-05-06T13:57:08Z</time>
      </trkpt>
      <trkpt lat="48.04487" lon="7.20677">
        <ele>311</ele>
        <time>2019-05-06T13:58:08Z</time>
      </trkpt>
      <trkpt lat="48.04469" lon="7.2066">
        <ele>312</ele>
        <time>2019-05-06T13:59:08Z</time>
      </trkpt>
      <trkpt lat="48.04443" lon="7.20624">
        <ele>312</ele>
        <time>2019-05-06T14:00:08Z</time>
      </trkpt>
      <trkpt lat="48.04431" lon="7.20603">
        <ele>312</ele>
        <time>2019-05-06T14:01:08Z</time>
      </trkpt>
      <trkpt lat="48.0443" lon="7.20586">
        <ele>312</ele>
        <time>2019-05-06T14:02:08Z</time>
      </trkpt>
      <trkpt lat="48.04423" lon="7.20561">
        <ele>312</ele>
        <time>2019-05-06T14:03:08Z</time>
      </trkpt>
      <trkpt lat="48.04396" lon="7.20484">
        <ele>313</ele>
        <time>2019-05-06T14:04:08Z</time>
      </trkpt>
      <trkpt lat="48.04383" lon="7.20432">
        <ele>314</ele>
        <time>2019-05-06T14:05:08Z</time>
      </trkpt>
      <trkpt lat="48.04373" lon="7.20411">
        <ele>314</ele>
        <time>2019-05-06T14:06:08Z</time>
      </trkpt>
      <trkpt lat="48.04368" lon="7.20388">
        <ele>314</ele>
        <time>2019-05-06T14:07:08Z</time>
      </trkpt>
      <trkpt lat="48.04314" lon="7.20215">
        <ele>317</ele>
        <time>2019-05-06T14:08:08Z</time>
      </trkpt>
      <trkpt lat="48.04295" lon="7.20169">
        <ele>318</ele>
        <time>2019-05-06T14:09:08Z</time>
      </trkpt>
      <trkpt lat="48.04265" lon="7.20062">
        <ele>317</ele>
        <time>2019-05-06T14:10:08Z</time>
      </trkpt>
      <trkpt lat="48.04232" lon="7.19922">
        <ele>319</ele>
        <time>2019-05-06T14:11:08Z</time>
      </trkpt>
      <trkpt lat="48.04218" lon="7.1991">
        <ele>321</ele>
        <time>2019-05-06T14:12:08Z</time>
      </trkpt>
      <trkpt lat="48.04204" lon="7.19922">
        <ele>321</ele>
        <time>2019-05-06T14:13:08Z</time>
      </trkpt>
      <trkpt lat="48.04182" lon="7.19918">
        <ele>323</ele>
        <time>2019-05-06T14:14:08Z</time>
      </trkpt>
      <trkpt lat="48.04127" lon="7.199">
        <ele>329</ele>
        <time>2019-05-06T14:15:08Z</time>
      </trkpt>
      <trkpt lat="48.04058" lon="7.19893">
        <ele>331</ele>
        <time>2019-05-06T14:16:08Z</time>
      </trkpt>
      <trkpt lat="48.03928" lon="7.19915">
        <ele>329</ele>
        <time>2019-05-06T14:17:08Z</time>
      </trkpt>
      <trkpt lat="48.03891" lon="7.19916">
        <ele>330</ele>
        <time>2019-05-06T14:18:08Z</time>
      </trkpt>
      <trkpt lat="48.03855" lon="7.19914">
        <ele>331</ele>
        <time>2019-05-06T14:19:08Z</time>
      </trkpt>
      <trkpt lat="48.03839" lon="7.19923">
        <ele>331</ele>
        <time>2019-05-06T14:20:08Z</time>
      </trkpt>
      <trkpt lat="48.03825" lon="7.19939">
        <ele>330</ele>
        <time>2019-05-06T14:21:08Z</time>
      </trkpt>
      <trkpt lat="48.03812" lon="7.19967">
        <ele>330</ele>
        <time>2019-05-06T14:22:08Z</time>
      </trkpt>
      <trkpt lat="48.03799" lon="7.19987">
        <ele>329</ele>
        <time>2019-05-06T14:23:08Z</time>
      </trkpt>
      <trkpt lat="48.03768" lon="7.20026">
        <ele>330</ele>
        <time>2019-05-06T14:24:08Z</time>
      </trkpt>
      <trkpt lat="48.03722" lon="7.20069">
        <ele>331</ele>
        <time>2019-05-06T14:25:08Z</time>
      </trkpt>
      <trkpt lat="48.03713" lon="7.20075">
        <ele>332</ele>
        <time>2019-05-06T14:26:08Z</time>
      </trkpt>
      <trkpt lat="48.03706" lon="7.20066">
        <ele>332</ele>
        <time>2019-05-06T14:27:08Z</time>
      </trkpt>
      <trkpt lat="48.03696" lon="7.19965">
        <ele>335</ele>
        <time>2019-05-06T14:28:08Z</time>
      </trkpt>
      <trkpt lat="48.0369" lon="7.19943">
        <ele>336</ele>
        <time>2019-05-06T14:29:08Z</time>
      </trkpt>
      <trkpt lat="48.03676" lon="7.19931">
        <ele>337</ele>
        <time>2019-05-06T14:30:08Z</time>
      </trkpt>
      <trkpt lat="48.0366" lon="7.19932">
        <ele>338</ele>
        <time>2019-05-06T14:31:08Z</time>
      </trkpt>
      <trkpt lat="48.03636" lon="7.19938">
        <ele>340</ele>
        <time>2019-05-06T14:32:08Z</time>
      </trkpt>
      <trkpt lat="48.03617" lon="7.19939">
        <ele>342</ele>
        <time>2019-05-06T14:33:08Z</time>
      </trkpt>
      <trkpt lat="48.03576" lon="7.19935">
        <ele>346</ele>
        <time>2019-05-06T14:34:08Z</time>
      </trkpt>
      <trkpt lat="48.03557" lon="7.19936">
        <ele>346</ele>
        <time>2019-05-06T14:35:08Z</time>
      </trkpt>
      <trkpt lat="48.03501" lon="7.19928">
        <ele>350</ele>
        <time>2019-05-06T14:36:08Z</time>
      </trkpt>
      <trkpt lat="48.03425" lon="7.19904">
        <ele>350</ele>
        <time>2019-05-06T14:37:08Z</time>
      </trkpt>
      <trkpt lat="48.03386" lon="7.19873">
        <ele>356</ele>
        <time>2019-05-06T14:38:08Z</time>
      </trkpt>
      <trkpt lat="48.03372" lon="7.19865">
        <ele>357</ele>
        <time>2019-05-06T14:39:08Z</time>
      </trkpt>
      <trkpt lat="48.0334" lon="7.19853">
        <ele>356</ele>
        <time>2019-05-06T14:40:08Z</time>
      </trkpt>
      <trkpt lat="48.03322" lon="7.19849">
        <ele>355</ele>
        <time>2019-05-06T14:41:08Z</time>
      </trkpt>
      <trkpt lat="48.03303" lon="7.1985">
        <ele>354</ele>
        <time>2019-05-06T14:42:08Z</time>
      </trkpt>
      <trkpt lat="48.03288" lon="7.19845">
        <ele>354</ele>
        <time>2019-05-06T14:43:08Z</time>
      </trkpt>
      <trkpt lat="48.03272" lon="7.19835">
        <ele>355</ele>
        <time>2019-05-06T14:44:08Z</time>
      </trkpt>
      <trkpt lat="48.03233" lon="7.19819">
        <ele>358</ele>
        <time>2019-05-06T14:45:08Z</time>
      </trkpt>
      <trkpt lat="48.03171" lon="7.19811">
        <ele>359</ele>
        <time>2019-05-06T14:46:08Z</time>
      </trkpt>
      <trkpt lat="48.03097" lon="7.19795">
        <ele>364</ele>
        <time>2019-05-06T14:47:08Z</time>
      </trkpt>
      <trkpt lat="48.0305" lon="7.1977">
        <ele>369</ele>
        <time>2019-05-06T14:48:08Z</time>
      </trkpt>
      <trkpt lat="48.03016" lon="7.19755">
        <ele>369</ele>
        <time>2019-05-06T14:49:08Z</time>
      </trkpt>
      <trkpt lat="48.03002" lon="7.19745">
        <ele>371</ele>
        <time>2019-05-06T14:50:08Z</time>
      </trkpt>
      <trkpt lat="48.02981" lon="7.19735">
        <ele>373</ele>
        <time>2019-05-06T14:51:08Z</time>
      </trkpt>
      <trkpt lat="48.02965" lon="7.19736">
        <ele>371</ele>
        <time>2019-05-06T14:52:08Z</time>
      </trkpt>
      <trkpt lat="48.02952" lon="7.19726">
        <ele>373</ele>
        <time>2019-05-06T14:53:08Z</time>
      </trkpt>
      <trkpt lat="48.02925" lon="7.1972">
        <ele>372</ele>
        <time>2019-05-06T14:54:08Z</time>
      </trkpt>
      <trkpt lat="48.02877" lon="7.19676">
        <ele>374</ele>
        <time>2019-05-06T14:55:08Z</time>
      </trkpt>
      <trkpt lat="48.02834" lon="7.19647">
        <ele>371</ele>
        <time>2019-05-06T14:56:08Z</time>
      </trkpt>
      <trkpt lat="48.02809" lon="7.19622">
        <ele>374</ele>
        <time>2019-05-06T14:57:08Z</time>
      </trkpt>
      <trkpt lat="48.02797" lon="7.19617">
        <ele>373</ele>
        <time>2019-05-06T14:58:08Z</time>
      </trkpt>
      <trkpt lat="48.02789" lon="7.19607">
        <ele>374</ele>
        <time>2019-05-06T14:59:08Z</time>
      </trkpt>
      <trkpt lat="48.02785" lon="7.196">
        <ele>374</ele>
        <time>2019-05-06T15:00:08Z</time>
      </trkpt>
      <trkpt lat="48.02773" lon="7.19559">
        <ele>381</ele>
        <time>2019-05-06T15:01:08Z</time>
      </trkpt>
      <trkpt lat="48.02755" lon="7.19516">
        <ele>388</ele>
        <time>2019-05-06T15:02:08Z</time>
      </trkpt>
      <trkpt lat="48.02749" lon="7.19508">
        <ele>389</ele>
        <time>2019-05-06T15:03:08Z</time>
      </trkpt>
      <trkpt lat="48.02739" lon="7.19485">
        <ele>394</ele>
        <time>2019-05-06T15:04:08Z</time>
      </trkpt>
      <trkpt lat="48.02729" lon="7.19468">
        <ele>397</ele>
        <time>2019-05-06T15:05:08Z</time>
      </trkpt>
      <trkpt lat="48.02721" lon="7.19465">
        <ele>396</ele>
        <time>2019-05-06T15:06:08Z</time>
      </trkpt>
      <trkpt lat="48.02711" lon="7.19457">
        <ele>397</ele>
        <time>2019-05-06T15:07:08Z</time>
      </trkpt>
      <trkpt lat="48.02696" lon="7.19427">
        <ele>401</ele>
        <time>2019-05-06T15:08:08Z</time>
      </trkpt>
      <trkpt lat="48.02696" lon="7.19401">
        <ele>405</ele>
        <time>2019-05-06T15:09:08Z</time>
      </trkpt>
      <trkpt lat="48.02705" lon="7.1938">
        <ele>411</ele>
        <time>2019-05-06T15:10:08Z</time>
      </trkpt>
      <trkpt lat="48.02712" lon="7.19354">
        <ele>417</ele>
        <time>2019-05-06T15:11:08Z</time>
      </trkpt>
      <trkpt lat="48.02711" lon="7.1934">
        <ele>419</ele>
        <time>2019-05-06T15:12:08Z</time>
      </trkpt>
      <trkpt lat="48.02703" lon="7.19308">
        <ele>421</ele>
        <time>2019-05-06T15:13:08Z</time>
      </trkpt>
      <trkpt lat="48.02708" lon="7.19299">
        <ele>424</ele>
        <time>2019-05-06T15:14:08Z</time>
      </trkpt>
      <trkpt lat="48.02709" lon="7.19252">
        <ele>430</ele>
        <time>2019-05-06T15:15:08Z</time>
      </trkpt>
      <trkpt lat="48.02697" lon="7.19235">
        <ele>432</ele>
        <time>2019-05-06T15:16:08Z</time>
      </trkpt>
      <trkpt lat="48.02698" lon="7.19222">
        <ele>435</ele>
        <time>2019-05-06T15:17:08Z</time>
      </trkpt>
      <trkpt lat="48.02705" lon="7.19214">
        <ele>438</ele>
        <time>2019-05-06T15:18:08Z</time>
      </trkpt>
      <trkpt lat="48.02714" lon="7.19211">
        <ele>440</ele>
        <time>2019-05-06T15:19:08Z</time>
      </trkpt>
      <trkpt lat="48.02737" lon="7.19238">
        <ele>438</ele>
        <time>2019-05-06T15:20:08Z</time>
      </trkpt>
      <trkpt lat="48.02738" lon="7.19251">
        <ele>436</ele>
        <time>2019-05-06T15:21:08Z</time>
      </trkpt>
      <trkpt lat="48.02756" lon="7.19279">
        <ele>438</ele>
        <time>2019-05-06T15:22:08Z</time>
      </trkpt>
      <trkpt lat="48.02757" lon="7.1929">
        <ele>437</ele>
        <time>2019-05-06T15:23:08Z</time>
      </trkpt>
      <trkpt lat="48.02767" lon="7.19323">
        <ele>438</ele>
        <time>2019-05-06T15:24:08Z</time>
      </trkpt>
      <trkpt lat="48.02787" lon="7.19353">
        <ele>443</ele>
        <time>2019-05-06T15:25:08Z</time>
      </trkpt>
      <trkpt lat="48.02801" lon="7.19367">
        <ele>447</ele>
        <time>2019-05-06T15:26:08Z</time>
      </trkpt>
      <trkpt lat="48.02817" lon="7.19373">
        <ele>453</ele>
        <time>2019-05-06T15:27:08Z</time>
      </trkpt>
      <trkpt lat="48.02831" lon="7.19384">
        <ele>456</ele>
        <time>2019-05-06T15:28:08Z</time>
      </trkpt>
      <trkpt lat="48.02852" lon="7.1939">
        <ele>465</ele>
        <time>2019-05-06T15:29:08Z</time>
      </trkpt>
      <trkpt lat="48.02887" lon="7.19426">
        <ele>470</ele>
        <time>2019-05-06T15:30:08Z</time>
      </trkpt>
      <trkpt lat="48.02896" lon="7.19431">
        <ele>472</ele>
        <time>2019-05-06T15:31:08Z</time>
      </trkpt>
      <trkpt lat="48.0291" lon="7.19458">
        <ele>467</ele>
        <time>2019-05-06T15:32:08Z</time>
      </trkpt>
      <trkpt lat="48.02946" lon="7.1948">
        <ele>468</ele>
        <time>2019-05-06T15:33:08Z</time>
      </trkpt>
      <trkpt lat="48.03" lon="7.1953">
        <ele>460</ele>
        <time>2019-05-06T15:34:08Z</time>
      </trkpt>
      <trkpt lat="48.03014" lon="7.19533">
        <ele>457</ele>
        <time>2019-05-06T15:35:08Z</time>
      </trkpt>
      <trkpt lat="48.03024" lon="7.19523">
        <ele>460</ele>
        <time>2019-05-06T15:36:08Z</time>
      </trkpt>
      <trkpt lat="48.03032" lon="7.19506">
        <ele>466</ele>
        <time>2019-05-06T15:37:08Z</time>
      </trkpt>
      <trkpt lat="48.03047" lon="7.19493">
        <ele>470</ele>
        <time>2019-05-06T15:38:08Z</time>
      </trkpt>
      <trkpt lat="48.03062" lon="7.19491">
        <ele>469</ele>
        <time>2019-05-06T15:39:08Z</time>
      </trkpt>
      <trkpt lat="48.03092" lon="7.19495">
        <ele>463</ele>
        <time>2019-05-06T15:40:08Z</time>
      </trkpt>
      <trkpt lat="48.03128" lon="7.19475">
        <ele>465</ele>
        <time>2019-05-06T15:41:08Z</time>
      </trkpt>
      <trkpt lat="48.03164" lon="7.19448">
        <ele>469</ele>
        <time>2019-05-06T15:42:08Z</time>
      </trkpt>
      <trkpt lat="48.03177" lon="7.19447">
        <ele>470</ele>
        <time>2019-05-06T15:43:08Z</time>
      </trkpt>
      <trkpt lat="48.03215" lon="7.19478">
        <ele>463</ele>
        <time>2019-05-06T15:44:08Z</time>
      </trkpt>
      <trkpt lat="48.03241" lon="7.1949">
        <ele>461</ele>
        <time>2019-05-06T15:45:08Z</time>
      </trkpt>
      <trkpt lat="48.03255" lon="7.195">
        <ele>459</ele>
        <time>2019-05-06T15:46:08Z</time>
      </trkpt>
      <trkpt lat="48.03297" lon="7.19506">
        <ele>465</ele>
        <time>2019-05-06T15:47:08Z</time>
      </trkpt>
      <trkpt lat="48.03308" lon="7.1951">
        <ele>466</ele>
        <time>2019-05-06T15:48:08Z</time>
      </trkpt>
      <trkpt lat="48.03331" lon="7.19534">
        <ele>463</ele>
        <time>2019-05-06T15:49:08Z</time>
      </trkpt>
      <trkpt lat="48.03344" lon="7.19566">
        <ele>456</ele>
        <time>2019-05-06T15:50:08Z</time>
      </trkpt>
      <trkpt lat="48.0333" lon="7.19526">
        <ele>465</ele>
        <time>2019-05-06T15:51:08Z</time>
      </trkpt>
      <trkpt lat="48.0332" lon="7.19511">
        <ele>468</ele>
        <time>2019-05-06T15:52:08Z</time>
      </trkpt>
      <trkpt lat="48.033" lon="7.19505">
        <ele>466</ele>
        <time>2019-05-06T15:53:08Z</time>
      </trkpt>
      <trkpt lat="48.03291" lon="7.19508">
        <ele>463</ele>
        <time>2019-05-06T15:54:08Z</time>
      </trkpt>
      <trkpt lat="48.03265" lon="7.19498">
        <ele>462</ele>
        <time>2019-05-06T15:55:08Z</time>
      </trkpt>
      <trkpt lat="48.03252" lon="7.19486">
        <ele>464</ele>
        <time>2019-05-06T15:56:08Z</time>
      </trkpt>
      <trkpt lat="48.03246" lon="7.19475">
        <ele>468</ele>
        <time>2019-05-06T15:57:08Z</time>
      </trkpt>
      <trkpt lat="48.0322" lon="7.19461">
        <ele>470</ele>
        <time>2019-05-06T15:58:08Z</time>
      </trkpt>
      <trkpt lat="48.03208" lon="7.19444">
        <ele>475</ele>
        <time>2019-05-06T15:59:08Z</time>
      </trkpt>
      <trkpt lat="48.03199" lon="7.19443">
        <ele>474</ele>
        <time>2019-05-06T16:00:08Z</time>
      </trkpt>
      <trkpt lat="48.03185" lon="7.19433">
        <ele>476</ele>
        <time>2019-05-06T16:01:08Z</time>
      </trkpt>
      <trkpt lat="48.03173" lon="7.19418">
        <ele>480</ele>
        <time>2019-05-06T16:02:08Z</time>
      </trkpt>
      <trkpt lat="48.03165" lon="7.19414">
        <ele>480</ele>
        <time>2019-05-06T16:03:08Z</time>
      </trkpt>
      <trkpt lat="48.03141" lon="7.19435">
        <ele>477</ele>
        <time>2019-05-06T16:04:08Z</time>
      </trkpt>
      <trkpt lat="48.0313" lon="7.1944">
        <ele>477</ele>
        <time>2019-05-06T16:05:08Z</time>
      </trkpt>
      <trkpt lat="48.03096" lon="7.19449">
        <ele>479</ele>
        <time>2019-05-06T16:06:08Z</time>
      </trkpt>
      <trkpt lat="48.03068" lon="7.19442">
        <ele>486</ele>
        <time>2019-05-06T16:07:08Z</time>
      </trkpt>
      <trkpt lat="48.03008" lon="7.19468">
        <ele>485</ele>
        <time>2019-05-06T16:08:08Z</time>
      </trkpt>
      <trkpt lat="48.02997" lon="7.19465">
        <ele>487</ele>
        <time>2019-05-06T16:09:08Z</time>
      </trkpt>
      <trkpt lat="48.02976" lon="7.19445">
        <ele>490</ele>
        <time>2019-05-06T16:10:08Z</time>
      </trkpt>
      <trkpt lat="48.02971" lon="7.19433">
        <ele>494</ele>
        <time>2019-05-06T16:11:08Z</time>
      </trkpt>
      <trkpt lat="48.02955" lon="7.19418">
        <ele>496</ele>
        <time>2019-05-06T16:12:08Z</time>
      </trkpt>
      <trkpt lat="48.02951" lon="7.19409">
        <ele>498</ele>
        <time>2019-05-06T16:13:08Z</time>
      </trkpt>
      <trkpt lat="48.02944" lon="7.19403">
        <ele>498</ele>
        <time>2019-05-06T16:14:08Z</time>
      </trkpt>
      <trkpt lat="48.02932" lon="7.19378">
        <ele>503</ele>
        <time>2019-05-06T16:15:08Z</time>
      </trkpt>
      <trkpt lat="48.02925" lon="7.1937">
        <ele>504</ele>
        <time>2019-05-06T16:16:08Z</time>
      </trkpt>
      <trkpt lat="48.0292" lon="7.19359">
        <ele>506</ele>
        <time>2019-05-06T16:17:08Z</time>
      </trkpt>
      <trkpt lat="48.02913" lon="7.19352">
        <ele>505</ele>
        <time>2019-05-06T16:18:08Z</time>
      </trkpt>
      <trkpt lat="48.02905" lon="7.19332">
        <ele>507</ele>
        <time>2019-05-06T16:19:08Z</time>
      </trkpt>
      <trkpt lat="48.02904" lon="7.19289">
        <ele>514</ele>
        <time>2019-05-06T16:20:08Z</time>
      </trkpt>
      <trkpt lat="48.02897" lon="7.1926">
        <ele>516</ele>
        <time>2019-05-06T16:21:08Z</time>
      </trkpt>
      <trkpt lat="48.02896" lon="7.19235">
        <ele>520</ele>
        <time>2019-05-06T16:22:08Z</time>
      </trkpt>
      <trkpt lat="48.02885" lon="7.19194">
        <ele>519</ele>
        <time>2019-05-06T16:23:08Z</time>
      </trkpt>
      <trkpt lat="48.02874" lon="7.19129">
        <ele>523</ele>
        <time>2019-05-06T16:24:08Z</time>
      </trkpt>
      <trkpt lat="48.02864" lon="7.19089">
        <ele>525</ele>
        <time>2019-05-06T16:25:08Z</time>
      </trkpt>
      <trkpt lat="48.02864" lon="7.19052">
        <ele>530</ele>
        <time>2019-05-06T16:26:08Z</time>
      </trkpt>
      <trkpt lat="48.02852" lon="7.18975">
        <ele>534</ele>
        <time>2019-05-06T16:27:08Z</time>
      </trkpt>
      <trkpt lat="48.0285" lon="7.18945">
        <ele>536</ele>
        <time>2019-05-06T16:28:08Z</time>
      </trkpt>
      <trkpt lat="48.02853" lon="7.18877">
        <ele>547</ele>
        <time>2019-05-06T16:29:08Z</time>
      </trkpt>
      <trkpt lat="48.02846" lon="7.18852">
        <ele>549</ele>
        <time>2019-05-06T16:30:08Z</time>
      </trkpt>
      <trkpt lat="48.02832" lon="7.18816">
        <ele>552</ele>
        <time>2019-05-06T16:31:08Z</time>
      </trkpt>
      <trkpt lat="48.02796" lon="7.18744">
        <ele>566</ele>
        <time>2019-05-06T16:32:08Z</time>
      </trkpt>
      <trkpt lat="48.02778" lon="7.18727">
        <ele>569</ele>
        <time>2019-05-06T16:33:08Z</time>
      </trkpt>
      <trkpt lat="48.02762" lon="7.18725">
        <ele>566</ele>
        <time>2019-05-06T16:34:08Z</time>
      </trkpt>
      <trkpt lat="48.0273" lon="7.18757">
        <ele>551</ele>
        <time>2019-05-06T16:35:08Z</time>
      </trkpt>
      <trkpt lat="48.02687" lon="7.18813">
        <ele>535</ele>
        <time>2019-05-06T16:36:08Z</time>
      </trkpt>
      <trkpt lat="48.02666" lon="7.18831">
        <ele>532</ele>
        <time>2019-05-06T16:37:08Z</time>
      </trkpt>
      <trkpt lat="48.02621" lon="7.18845">
        <ele>524</ele>
        <time>2019-05-06T16:38:08Z</time>
      </trkpt>
      <trkpt lat="48.02606" lon="7.18835">
        <ele>526</ele>
        <time>2019-05-06T16:39:08Z</time>
      </trkpt>
      <trkpt lat="48.02585" lon="7.18814">
        <ele>528</ele>
        <time>2019-05-06T16:40:08Z</time>
      </trkpt>
      <trkpt lat="48.02576" lon="7.18787">
        <ele>530</ele>
        <time>2019-05-06T16:41:08Z</time>
      </trkpt>
      <trkpt lat="48.0257" lon="7.18759">
        <ele>531</ele>
        <time>2019-05-06T16:42:08Z</time>
      </trkpt>
      <trkpt lat="48.02566" lon="7.18735">
        <ele>534</ele>
        <time>2019-05-06T16:43:08Z</time>
      </trkpt>
      <trkpt lat="48.02578" lon="7.18687">
        <ele>546</ele>
        <time>2019-05-06T16:44:08Z</time>
      </trkpt>
      <trkpt lat="48.02581" lon="7.1865">
        <ele>555</ele>
        <time>2019-05-06T16:45:08Z</time>
      </trkpt>
      <trkpt lat="48.02574" lon="7.18612">
        <ele>564</ele>
        <time>2019-05-06T16:46:08Z</time>
      </trkpt>
      <trkpt lat="48.0256" lon="7.186">
        <ele>564</ele>
        <time>2019-05-06T16:47:08Z</time>
      </trkpt>
      <trkpt lat="48.02538" lon="7.186">
        <ele>557</ele>
        <time>2019-05-06T16:48:08Z</time>
      </trkpt>
      <trkpt lat="48.02506" lon="7.18585">
        <ele>554</ele>
        <time>2019-05-06T16:49:08Z</time>
      </trkpt>
      <trkpt lat="48.02495" lon="7.18573">
        <ele>556</ele>
        <time>2019-05-06T16:50:08Z</time>
      </trkpt>
      <trkpt lat="48.02472" lon="7.18509">
        <ele>573</ele>
        <time>2019-05-06T16:51:08Z</time>
      </trkpt>
      <trkpt lat="48.02455" lon="7.1849">
        <ele>576</ele>
        <time>2019-05-06T16:52:08Z</time>
      </trkpt>
      <trkpt lat="48.02421" lon="7.18471">
        <ele>574</ele>
        <time>2019-05-06T16:53:08Z</time>
      </trkpt>
      <trkpt lat="48.0241" lon="7.1846">
        <ele>578</ele>
        <time>2019-05-06T16:54:08Z</time>
      </trkpt>
      <trkpt lat="48.02395" lon="7.1845">
        <ele>583</ele>
        <time>2019-05-06T16:55:08Z</time>
      </trkpt>
      <trkpt lat="48.02385" lon="7.1845">
        <ele>583</ele>
        <time>2019-05-06T16:56:08Z</time>
      </trkpt>
      <trkpt lat="48.02366" lon="7.18515">
        <ele>564</ele>
        <time>2019-05-06T16:57:08Z</time>
      </trkpt>
      <trkpt lat="48.02333" lon="7.18536">
        <ele>564</ele>
        <time>2019-05-06T16:58:08Z</time>
      </trkpt>
      <trkpt lat="48.0233" lon="7.18524">
        <ele>568</ele>
        <time>2019-05-06T16:59:08Z</time>
      </trkpt>
      <trkpt lat="48.02338" lon="7.18515">
        <ele>569</ele>
        <time>2019-05-06T17:00:08Z</time>
      </trkpt>
      <trkpt lat="48.02341" lon="7.1849">
        <ele>575</ele>
        <time>2019-05-06T17:01:08Z</time>
      </trkpt>
      <trkpt lat="48.02352" lon="7.18459">
        <ele>583</ele>
        <time>2019-05-06T17:02:08Z</time>
      </trkpt>
      <trkpt lat="48.02354" lon="7.18434">
        <ele>590</ele>
        <time>2019-05-06T17:03:08Z</time>
      </trkpt>
      <trkpt lat="48.02365" lon="7.18404">
        <ele>599</ele>
        <time>2019-05-06T17:04:08Z</time>
      </trkpt>
      <trkpt lat="48.02366" lon="7.18391">
        <ele>602</ele>
        <time>2019-05-06T17:05:08Z</time>
      </trkpt>
      <trkpt lat="48.02382" lon="7.18387">
        <ele>604</ele>
        <time>2019-05-06T17:06:08Z</time>
      </trkpt>
      <trkpt lat="48.02417" lon="7.18391">
        <ele>603</ele>
        <time>2019-05-06T17:07:08Z</time>
      </trkpt>
      <trkpt lat="48.02412" lon="7.18383">
        <ele>606</ele>
        <time>2019-05-06T17:08:08Z</time>
      </trkpt>
      <trkpt lat="48.02404" lon="7.18379">
        <ele>606</ele>
        <time>2019-05-06T17:09:08Z</time>
      </trkpt>
      <trkpt lat="48.02391" lon="7.18365">
        <ele>610</ele>
        <time>2019-05-06T17:10:08Z</time>
      </trkpt>
      <trkpt lat="48.02385" lon="7.18342">
        <ele>616</ele>
        <time>2019-05-06T17:11:08Z</time>
      </trkpt>
      <trkpt lat="48.02362" lon="7.18305">
        <ele>621</ele>
        <time>2019-05-06T17:12:08Z</time>
      </trkpt>
      <trkpt lat="48.02337" lon="7.183">
        <ele>621</ele>
        <time>2019-05-06T17:13:08Z</time>
      </trkpt>
      <trkpt lat="48.02329" lon="7.18302">
        <ele>620</ele>
        <time>2019-05-06T17:14:08Z</time>
      </trkpt>
      <trkpt lat="48.02324" lon="7.18299">
        <ele>620</ele>
        <time>2019-05-06T17:15:08Z</time>
      </trkpt>
      <trkpt lat="48.023" lon="7.18302">
        <ele>619</ele>
        <time>2019-05-06T17:16:08Z</time>
      </trkpt>
      <trkpt lat="48.02291" lon="7.18297">
        <ele>619</ele>
        <time>2019-05-06T17:17:08Z</time>
      </trkpt>
      <trkpt lat="48.0228" lon="7.18295">
        <ele>619</ele>
        <time>2019-05-06T17:18:08Z</time>
      </trkpt>
      <trkpt lat="48.02259" lon="7.18282">
        <ele>620</ele>
        <time>2019-05-06T17:19:08Z</time>
      </trkpt>
      <trkpt lat="48.02243" lon="7.18263">
        <ele>620</ele>
        <time>2019-05-06T17:20:08Z</time>
      </trkpt>
      <trkpt lat="48.02222" lon="7.18223">
        <ele>617</ele>
        <time>2019-05-06T17:21:08Z</time>
      </trkpt>
      <trkpt lat="48.0222" lon="7.18206">
        <ele>618</ele>
        <time>2019-05-06T17:22:08Z</time>
      </trkpt>
      <trkpt lat="48.02225" lon="7.18192">
        <ele>620</ele>
        <time>2019-05-06T17:23:08Z</time>
      </trkpt>
      <trkpt lat="48.02233" lon="7.18149">
        <ele>624</ele>
        <time>2019-05-06T17:24:08Z</time>
      </trkpt>
      <trkpt lat="48.02251" lon="7.181">
        <ele>629</ele>
        <time>2019-05-06T17:25:08Z</time>
      </trkpt>
      <trkpt lat="48.02258" lon="7.18088">
        <ele>630</ele>
        <time>2019-05-06T17:26:08Z</time>
      </trkpt>
      <trkpt lat="48.0228" lon="7.18069">
        <ele>635</ele>
        <time>2019-05-06T17:27:08Z</time>
      </trkpt>
      <trkpt lat="48.02287" lon="7.18043">
        <ele>638</ele>
        <time>2019-05-06T17:28:08Z</time>
      </trkpt>
      <trkpt lat="48.02284" lon="7.18028">
        <ele>639</ele>
        <time>2019-05-06T17:29:08Z</time>
      </trkpt>
      <trkpt lat="48.02279" lon="7.18019">
        <ele>638</ele>
        <time>2019-05-06T17:30:08Z</time>
      </trkpt>
      <trkpt lat="48.02272" lon="7.18013">
        <ele>637</ele>
        <time>2019-05-06T17:31:08Z</time>
      </trkpt>
      <trkpt lat="48.02266" lon="7.17996">
        <ele>637</ele>
        <time>2019-05-06T17:32:08Z</time>
      </trkpt>
      <trkpt lat="48.02252" lon="7.17972">
        <ele>640</ele>
        <time>2019-05-06T17:33:08Z</time>
      </trkpt>
      <trkpt lat="48.0224" lon="7.17957">
        <ele>640</ele>
        <time>2019-05-06T17:34:08Z</time>
      </trkpt>
      <trkpt lat="48.02224" lon="7.17943">
        <ele>640</ele>
        <time>2019-05-06T17:35:08Z</time>
      </trkpt>
      <trkpt lat="48.02219" lon="7.17934">
        <ele>641</ele>
        <time>2019-05-06T17:36:08Z</time>
      </trkpt>
      <trkpt lat="48.02213" lon="7.17907">
        <ele>645</ele>
        <time>2019-05-06T17:37:08Z</time>
      </trkpt>
      <trkpt lat="48.02207" lon="7.17894">
        <ele>646</ele>
        <time>2019-05-06T17:38:08Z</time>
      </trkpt>
      <trkpt lat="48.02197" lon="7.1788">
        <ele>645</ele>
        <time>2019-05-06T17:39:08Z</time>
      </trkpt>
      <trkpt lat="48.02178" lon="7.17841">
        <ele>647</ele>
        <time>2019-05-06T17:40:08Z</time>
      </trkpt>
      <trkpt lat="48.02165" lon="7.17823">
        <ele>646</ele>
        <time>2019-05-06T17:41:08Z</time>
      </trkpt>
      <trkpt lat="48.02151" lon="7.17777">
        <ele>651</ele>
        <time>2019-05-06T17:42:08Z</time>
      </trkpt>
      <trkpt lat="48.02145" lon="7.17766">
        <ele>652</ele>
        <time>2019-05-06T17:43:08Z</time>
      </trkpt>
      <trkpt lat="48.02142" lon="7.17748">
        <ele>655</ele>
        <time>2019-05-06T17:44:08Z</time>
      </trkpt>
      <trkpt lat="48.02112" lon="7.17663">
        <ele>671</ele>
        <time>2019-05-06T17:45:08Z</time>
      </trkpt>
      <trkpt lat="48.02075" lon="7.17631">
        <ele>675</ele>
        <time>2019-05-06T17:46:08Z</time>
      </trkpt>
      <trkpt lat="48.02066" lon="7.17626">
        <ele>676</ele>
        <time>2019-05-06T17:47:08Z</time>
      </trkpt>
      <trkpt lat="48.02027" lon="7.17569">
        <ele>687</ele>
        <time>2019-05-06T17:48:08Z</time>
      </trkpt>
      <trkpt lat="48.01999" lon="7.17551">
        <ele>686</ele>
        <time>2019-05-06T17:49:08Z</time>
      </trkpt>
      <trkpt lat="48.01977" lon="7.17544">
        <ele>685</ele>
        <time>2019-05-06T17:50:08Z</time>
      </trkpt>
      <trkpt lat="48.0194" lon="7.17525">
        <ele>685</ele>
        <time>2019-05-06T17:51:08Z</time>
      </trkpt>
      <trkpt lat="48.01928" lon="7.17515">
        <ele>686</ele>
        <time>2019-05-06T17:52:08Z</time>
      </trkpt>
      <trkpt lat="48.01906" lon="7.17505">
        <ele>686</ele>
        <time>2019-05-06T17:53:08Z</time>
      </trkpt>
      <trkpt lat="48.01879" lon="7.1748">
        <ele>686</ele>
        <time>2019-05-06T17:54:08Z</time>
      </trkpt>
      <trkpt lat="48.01873" lon="7.17469">
        <ele>687</ele>
        <time>2019-05-06T17:55:08Z</time>
      </trkpt>
      <trkpt lat="48.01866" lon="7.17462">
        <ele>688</ele>
        <time>2019-05-06T17:56:08Z</time>
      </trkpt>
      <trkpt lat="48.01862" lon="7.17451">
        <ele>689</ele>
        <time>2019-05-06T17:57:08Z</time>
      </trkpt>
      <trkpt lat="48.01876" lon="7.17439">
        <ele>693</ele>
        <time>2019-05-06T17:58:08Z</time>
      </trkpt>
      <trkpt lat="48.01868" lon="7.17442">
        <ele>691</ele>
        <time>2019-05-06T17:59:08Z</time>
      </trkpt>
      <trkpt lat="48.01864" lon="7.17434">
        <ele>692</ele>
        <time>2019-05-06T18:00:08Z</time>
      </trkpt>
      <trkpt lat="48.01862" lon="7.17418">
        <ele>695</ele>
        <time>2019-05-06T18:01:08Z</time>
      </trkpt>
      <trkpt lat="48.01837" lon="7.17371">
        <ele>697</ele>
        <time>2019-05-06T18:02:08Z</time>
      </trkpt>
      <trkpt lat="48.01833" lon="7.17352">
        <ele>699</ele>
        <time>2019-05-06T18:03:08Z</time>
      </trkpt>
      <trkpt lat="48.01835" lon="7.1733">
        <ele>701</ele>
        <time>2019-05-06T18:04:08Z</time>
      </trkpt>
      <trkpt lat="48.01831" lon="7.17312">
        <ele>701</ele>
        <time>2019-05-06T18:05:08Z</time>
      </trkpt>
      <trkpt lat="48.01805" lon="7.17246">
        <ele>700</ele>
        <time>2019-05-06T18:06:08Z</time>
      </trkpt>
      <trkpt lat="48.018" lon="7.17197">
        <ele>703</ele>
        <time>2019-05-06T18:07:08Z</time>
      </trkpt>
      <trkpt lat="48.0179" lon="7.17173">
        <ele>705</ele>
        <time>2019-05-06T18:08:08Z</time>
      </trkpt>
      <trkpt lat="48.01779" lon="7.17162">
        <ele>706</ele>
        <time>2019-05-06T18:09:08Z</time>
      </trkpt>
      <trkpt lat="48.0177" lon="7.17145">
        <ele>707</ele>
        <time>2019-05-06T18:10:08Z</time>
      </trkpt>
      <trkpt lat="48.01761" lon="7.17113">
        <ele>712</ele>
        <time>2019-05-06T18:11:08Z</time>
      </trkpt>
      <trkpt lat="48.01759" lon="7.17088">
        <ele>716</ele>
        <time>2019-05-06T18:12:08Z</time>
      </trkpt>
      <trkpt lat="48.01745" lon="7.17079">
        <ele>717</ele>
        <time>2019-05-06T18:13:08Z</time>
      </trkpt>
      <trkpt lat="48.01719" lon="7.17072">
        <ele>716</ele>
        <time>2019-05-06T18:14:08Z</time>
      </trkpt>
      <trkpt lat="48.01711" lon="7.17067">
        <ele>716</ele>
        <time>2019-05-06T18:15:08Z</time>
      </trkpt>
      <trkpt lat="48.01681" lon="7.17039">
        <ele>720</ele>
        <time>2019-05-06T18:16:08Z</time>
      </trkpt>
      <trkpt lat="48.01673" lon="7.17036">
        <ele>721</ele>
        <time>2019-05-06T18:17:08Z</time>
      </trkpt>
      <trkpt lat="48.01657" lon="7.17022">
        <ele>724</ele>
        <time>2019-05-06T18:18:08Z</time>
      </trkpt>
      <trkpt lat="48.01642" lon="7.17013">
        <ele>725</ele>
        <time>2019-05-06T18:19:08Z</time>
      </trkpt>
      <trkpt lat="48.01635" lon="7.17005">
        <ele>726</ele>
        <time>2019-05-06T18:20:08Z</time>
      </trkpt>
      <trkpt lat="48.0162" lon="7.16996">
        <ele>727</ele>
        <time>2019-05-06T18:21:08Z</time>
      </trkpt>
      <trkpt lat="48.01599" lon="7.16959">
        <ele>733</ele>
        <time>2019-05-06T18:22:08Z</time>
      </trkpt>
      <trkpt lat="48.01595" lon="7.16942">
        <ele>735</ele>
        <time>2019-05-06T18:23:08Z</time>
      </trkpt>
      <trkpt lat="48.01585" lon="7.16924">
        <ele>738</ele>
        <time>2019-05-06T18:24:08Z</time>
      </trkpt>
      <trkpt lat="48.01576" lon="7.16889">
        <ele>740</ele>
        <time>2019-05-06T18:25:08Z</time>
      </trkpt>
      <trkpt lat="48.01576" lon="7.16877">
        <ele>742</ele>
        <time>2019-05-06T18:26:08Z</time>
      </trkpt>
      <trkpt lat="48.01594" lon="7.16849">
        <ele>750</ele>
        <time>2019-05-06T18:27:08Z</time>
      </trkpt>
      <trkpt lat="48.01601" lon="7.16824">
        <ele>753</ele>
        <time>2019-05-06T18:28:08Z</time>
      </trkpt>
      <trkpt lat="48.01598" lon="7.168">
        <ele>756</ele>
        <time>2019-05-06T18:29:08Z</time>
      </trkpt>
      <trkpt lat="48.01591" lon="7.16779">
        <ele>758</ele>
        <time>2019-05-06T18:30:08Z</time>
      </trkpt>
      <trkpt lat="48.01586" lon="7.16724">
        <ele>765</ele>
        <time>2019-05-06T18:31:08Z</time>
      </trkpt>
      <trkpt lat="48.01579" lon="7.16701">
        <ele>765</ele>
        <time>2019-05-06T18:32:08Z</time>
      </trkpt>
      <trkpt lat="48.0158" lon="7.16676">
        <ele>769</ele>
        <time>2019-05-06T18:33:08Z</time>
      </trkpt>
      <trkpt lat="48.01576" lon="7.16653">
        <ele>769</ele>
        <time>2019-05-06T18:34:08Z</time>
      </trkpt>
      <trkpt lat="48.0158" lon="7.16603">
        <ele>774</ele>
        <time>2019-05-06T18:35:08Z</time>
      </trkpt>
      <trkpt lat="48.01573" lon="7.16566">
        <ele>773</ele>
        <time>2019-05-06T18:36:08Z</time>
      </trkpt>
      <trkpt lat="48.01576" lon="7.16543">
        <ele>775</ele>
        <time>2019-05-06T18:37:08Z</time>
      </trkpt>
      <trkpt lat="48.01575" lon="7.16534">
        <ele>775</ele>
        <time>2019-05-06T18:38:08Z</time>
      </trkpt>
      <trkpt lat="48.01572" lon="7.16521">
        <ele>775</ele>
        <time>2019-05-06T18:39:08Z</time>
      </trkpt>
      <trkpt lat="48.01567" lon="7.16511">
        <ele>775</ele>
        <time>2019-05-06T18:40:08Z</time>
      </trkpt>
      <trkpt lat="48.01561" lon="7.16506">
        <ele>774</ele>
        <time>2019-05-06T18:41:08Z</time>
      </trkpt>
      <trkpt lat="48.0155" lon="7.16467">
        <ele>774</ele>
        <time>2019-05-06T18:42:08Z</time>
      </trkpt>
      <trkpt lat="48.01553" lon="7.16436">
        <ele>777</ele>
        <time>2019-05-06T18:43:08Z</time>
      </trkpt>
      <trkpt lat="48.01551" lon="7.16416">
        <ele>778</ele>
        <time>2019-05-06T18:44:08Z</time>
      </trkpt>
      <trkpt lat="48.01532" lon="7.16383">
        <ele>783</ele>
        <time>2019-05-06T18:45:08Z</time>
      </trkpt>
      <trkpt lat="48.01516" lon="7.16342">
        <ele>790</ele>
        <time>2019-05-06T18:46:08Z</time>
      </trkpt>
      <trkpt lat="48.01486" lon="7.16316">
        <ele>794</ele>
        <time>2019-05-06T18:47:08Z</time>
      </trkpt>
      <trkpt lat="48.01461" lon="7.16254">
        <ele>803</ele>
        <time>2019-05-06T18:48:08Z</time>
      </trkpt>
      <trkpt lat="48.01449" lon="7.1623">
        <ele>806</ele>
        <time>2019-05-06T18:49:08Z</time>
      </trkpt>
      <trkpt lat="48.01444" lon="7.16207">
        <ele>810</ele>
        <time>2019-05-06T18:50:08Z</time>
      </trkpt>
      <trkpt lat="48.01427" lon="7.1618">
        <ele>814</ele>
        <time>2019-05-06T18:51:08Z</time>
      </trkpt>
      <trkpt lat="48.01421" lon="7.16156">
        <ele>818</ele>
        <time>2019-05-06T18:52:08Z</time>
      </trkpt>
      <trkpt lat="48.014" lon="7.16117">
        <ele>820</ele>
        <time>2019-05-06T18:53:08Z</time>
      </trkpt>
      <trkpt lat="48.01398" lon="7.16104">
        <ele>822</ele>
        <time>2019-05-06T18:54:08Z</time>
      </trkpt>
      <trkpt lat="48.01392" lon="7.16094">
        <ele>823</ele>
        <time>2019-05-06T18:55:08Z</time>
      </trkpt>
      <trkpt lat="48.01395" lon="7.16081">
        <ele>825</ele>
        <time>2019-05-06T18:56:08Z</time>
      </trkpt>
      <trkpt lat="48.01393" lon="7.1607">
        <ele>826</ele>
        <time>2019-05-06T18:57:08Z</time>
      </trkpt>
      <trkpt lat="48.01385" lon="7.16065">
        <ele>825</ele>
        <time>2019-05-06T18:58:08Z</time>
      </trkpt>
      <trkpt lat="48.01401" lon="7.16047">
        <ele>828</ele>
        <time>2019-05-06T18:59:08Z</time>
      </trkpt>
      <trkpt lat="48.0141" lon="7.16031">
        <ele>829</ele>
        <time>2019-05-06T19:00:08Z</time>
      </trkpt>
      <trkpt lat="48.01411" lon="7.16014">
        <ele>829</ele>
        <time>2019-05-06T19:01:08Z</time>
      </trkpt>
      <trkpt lat="48.01405" lon="7.15986">
        <ele>829</ele>
        <time>2019-05-06T19:02:08Z</time>
      </trkpt>
      <trkpt lat="48.01378" lon="7.15917">
        <ele>831</ele>
        <time>2019-05-06T19:03:08Z</time>
      </trkpt>
      <trkpt lat="48.01365" lon="7.15895">
        <ele>832</ele>
        <time>2019-05-06T19:04:08Z</time>
      </trkpt>
      <trkpt lat="48.01328" lon="7.15854">
        <ele>834</ele>
        <time>2019-05-06T19:05:08Z</time>
      </trkpt>
      <trkpt lat="48.01317" lon="7.15847">
        <ele>834</ele>
        <time>2019-05-06T19:06:08Z</time>
      </trkpt>
      <trkpt lat="48.01295" lon="7.15827">
        <ele>833</ele>
        <time>2019-05-06T19:07:08Z</time>
      </trkpt>
      <trkpt lat="48.01279" lon="7.15809">
        <ele>831</ele>
        <time>2019-05-06T19:08:08Z</time>
      </trkpt>
      <trkpt lat="48.01269" lon="7.15811">
        <ele>831</ele>
        <time>2019-05-06T19:09:08Z</time>
      </trkpt>
      <trkpt lat="48.01259" lon="7.15807">
        <ele>831</ele>
        <time>2019-05-06T19:10:08Z</time>
      </trkpt>
      <trkpt lat="48.01248" lon="7.15792">
        <ele>831</ele>
        <time>2019-05-06T19:11:08Z</time>
      </trkpt>
      <trkpt lat="48.01242" lon="7.15768">
        <ele>830</ele>
        <time>2019-05-06T19:12:08Z</time>
      </trkpt>
      <trkpt lat="48.01241" lon="7.1573">
        <ele>829</ele>
        <time>2019-05-06T19:13:08Z</time>
      </trkpt>
      <trkpt lat="48.01238" lon="7.15712">
        <ele>829</ele>
        <time>2019-05-06T19:14:08Z</time>
      </trkpt>
      <trkpt lat="48.01226" lon="7.15668">
        <ele>830</ele>
        <time>2019-05-06T19:15:08Z</time>
      </trkpt>
      <trkpt lat="48.01216" lon="7.15656">
        <ele>830</ele>
        <time>2019-05-06T19:16:08Z</time>
      </trkpt>
      <trkpt lat="48.01171" lon="7.15618">
        <ele>834</ele>
        <time>2019-05-06T19:17:08Z</time>
      </trkpt>
      <trkpt lat="48.01159" lon="7.15609">
        <ele>835</ele>
        <time>2019-05-06T19:18:08Z</time>
      </trkpt>
      <trkpt lat="48.01141" lon="7.15604">
        <ele>837</ele>
        <time>2019-05-06T19:19:08Z</time>
      </trkpt>
      <trkpt lat="48.01129" lon="7.15594">
        <ele>838</ele>
        <time>2019-05-06T19:20:08Z</time>
      </trkpt>
      <trkpt lat="48.0108" lon="7.15542">
        <ele>840</ele>
        <time>2019-05-06T19:21:08Z</time>
      </trkpt>
      <trkpt lat="48.01071" lon="7.15529">
        <ele>839</ele>
        <time>2019-05-06T19:22:08Z</time>
      </trkpt>
      <trkpt lat="48.01056" lon="7.15498">
        <ele>836</ele>
        <time>2019-05-06T19:23:08Z</time>
      </trkpt>
      <trkpt lat="48.01045" lon="7.15484">
        <ele>835</ele>
        <time>2019-05-06T19:24:08Z</time>
      </trkpt>
      <trkpt lat="48.01004" lon="7.15454">
        <ele>836</ele>
        <time>2019-05-06T19:25:08Z</time>
      </trkpt>
      <trkpt lat="48.00991" lon="7.15437">
        <ele>835</ele>
        <time>2019-05-06T19:26:08Z</time>
      </trkpt>
      <trkpt lat="48.00963" lon="7.15389">
        <ele>830</ele>
        <time>2019-05-06T19:27:08Z</time>
      </trkpt>
      <trkpt lat="48.00949" lon="7.15372">
        <ele>829</ele>
        <time>2019-05-06T19:28:08Z</time>
      </trkpt>
      <trkpt lat="48.00942" lon="7.15343">
        <ele>828</ele>
        <time>2019-05-06T19:29:08Z</time>
      </trkpt>
      <trkpt lat="48.00932" lon="7.15327">
        <ele>829</ele>
        <time>2019-05-06T19:30:08Z</time>
      </trkpt>
      <trkpt lat="48.00917" lon="7.1531">
        <ele>831</ele>
        <time>2019-05-06T19:31:08Z</time>
      </trkpt>
      <trkpt lat="48.00909" lon="7.15293">
        <ele>830</ele>
        <time>2019-05-06T19:32:08Z</time>
      </trkpt>
      <trkpt lat="48.00886" lon="7.15266">
        <ele>829</ele>
        <time>2019-05-06T19:33:08Z</time>
      </trkpt>
      <trkpt lat="48.00848" lon="7.1517">
        <ele>841</ele>
        <time>2019-05-06T19:34:08Z</time>
      </trkpt>
      <trkpt lat="48.00835" lon="7.1515">
        <ele>844</ele>
        <time>2019-05-06T19:35:08Z</time>
      </trkpt>
      <trkpt lat="48.00814" lon="7.15108">
        <ele>843</ele>
        <time>2019-05-06T19:36:08Z</time>
      </trkpt>
      <trkpt lat="48.00796" lon="7.1504">
        <ele>843</ele>
        <time>2019-05-06T19:37:08Z</time>
      </trkpt>
      <trkpt lat="48.00799" lon="7.15016">
        <ele>845</ele>
        <time>2019-05-06T19:38:08Z</time>
      </trkpt>
      <trkpt lat="48.00824" lon="7.14941">
        <ele>853</ele>
        <time>2019-05-06T19:39:08Z</time>
      </trkpt>
      <trkpt lat="48.00828" lon="7.14904">
        <ele>854</ele>
        <time>2019-05-06T19:40:08Z</time>
      </trkpt>
      <trkpt lat="48.0083" lon="7.1483">
        <ele>858</ele>
        <time>2019-05-06T19:41:08Z</time>
      </trkpt>
      <trkpt lat="48.00825" lon="7.14763">
        <ele>856</ele>
        <time>2019-05-06T19:42:08Z</time>
      </trkpt>
      <trkpt lat="48.00827" lon="7.14721">
        <ele>857</ele>
        <time>2019-05-06T19:43:08Z</time>
      </trkpt>
      <trkpt lat="48.00822" lon="7.14689">
        <ele>856</ele>
        <time>2019-05-06T19:44:08Z</time>
      </trkpt>
      <trkpt lat="48.00815" lon="7.14672">
        <ele>856</ele>
        <time>2019-05-06T19:45:08Z</time>
      </trkpt>
      <trkpt lat="48.008" lon="7.14654">
        <ele>857</ele>
        <time>2019-05-06T19:46:08Z</time>
      </trkpt>
      <trkpt lat="48.00782" lon="7.14642">
        <ele>858</ele>
        <time>2019-05-06T19:47:08Z</time>
      </trkpt>
      <trkpt lat="48.00765" lon="7.14638">
        <ele>860</ele>
        <time>2019-05-06T19:48:08Z</time>
      </trkpt>
      <trkpt lat="48.00724" lon="7.14603">
        <ele>867</ele>
        <time>2019-05-06T19:49:08Z</time>
      </trkpt>
      <trkpt lat="48.00703" lon="7.14572">
        <ele>873</ele>
        <time>2019-05-06T19:50:08Z</time>
      </trkpt>
      <trkpt lat="48.00693" lon="7.14563">
        <ele>873</ele>
        <time>2019-05-06T19:51:08Z</time>
      </trkpt>
      <trkpt lat="48.00678" lon="7.14555">
        <ele>873</ele>
        <time>2019-05-06T19:52:08Z</time>
      </trkpt>
      <trkpt lat="48.00669" lon="7.14544">
        <ele>873</ele>
        <time>2019-05-06T19:53:08Z</time>
      </trkpt>
      <trkpt lat="48.00661" lon="7.14526">
        <ele>873</ele>
        <time>2019-05-06T19:54:08Z</time>
      </trkpt>
      <trkpt lat="48.00657" lon="7.1447">
        <ele>876</ele>
        <time>2019-05-06T19:55:08Z</time>
      </trkpt>
      <trkpt lat="48.00666" lon="7.14419">
        <ele>879</ele>
        <time>2019-05-06T19:56:08Z</time>
      </trkpt>
      <trkpt lat="48.00663" lon="7.14395">
        <ele>878</ele>
        <time>2019-05-06T19:57:08Z</time>
      </trkpt>
      <trkpt lat="48.00654" lon="7.14371">
        <ele>877</ele>
        <time>2019-05-06T19:58:08Z</time>
      </trkpt>
      <trkpt lat="48.00631" lon="7.14284">
        <ele>875</ele>
        <time>2019-05-06T19:59:08Z</time>
      </trkpt>
      <trkpt lat="48.00629" lon="7.14263">
        <ele>876</ele>
        <time>2019-05-06T20:00:08Z</time>
      </trkpt>
      <trkpt lat="48.00624" lon="7.14244">
        <ele>877</ele>
        <time>2019-05-06T20:01:08Z</time>
      </trkpt>
      <trkpt lat="48.00611" lon="7.14217">
        <ele>880</ele>
        <time>2019-05-06T20:02:08Z</time>
      </trkpt>
      <trkpt lat="48.00608" lon="7.14206">
        <ele>881</ele>
        <time>2019-05-06T20:03:08Z</time>
      </trkpt>
      <trkpt lat="48.00606" lon="7.14182">
        <ele>884</ele>
        <time>2019-05-06T20:04:08Z</time>
      </trkpt>
      <trkpt lat="48.00609" lon="7.1417">
        <ele>884</ele>
        <time>2019-05-06T20:05:08Z</time>
      </trkpt>
      <trkpt lat="48.00609" lon="7.14157">
        <ele>886</ele>
        <time>2019-05-06T20:06:08Z</time>
      </trkpt>
      <trkpt lat="48.00601" lon="7.14119">
        <ele>892</ele>
        <time>2019-05-06T20:07:08Z</time>
      </trkpt>
      <trkpt lat="48.00597" lon="7.14108">
        <ele>894</ele>
        <time>2019-05-06T20:08:08Z</time>
      </trkpt>
      <trkpt lat="48.00586" lon="7.14092">
        <ele>898</ele>
        <time>2019-05-06T20:09:08Z</time>
      </trkpt>
      <trkpt lat="48.00583" lon="7.14078">
        <ele>899</ele>
        <time>2019-05-06T20:10:08Z</time>
      </trkpt>
      <trkpt lat="48.00578" lon="7.14068">
        <ele>899</ele>
        <time>2019-05-06T20:11:08Z</time>
      </trkpt>
      <trkpt lat="48.00576" lon="7.14039">
        <ele>902</ele>
        <time>2019-05-06T20:12:08Z</time>
      </trkpt>
      <trkpt lat="48.00559" lon="7.13999">
        <ele>903</ele>
        <time>2019-05-06T20:13:08Z</time>
      </trkpt>
      <trkpt lat="48.00555" lon="7.13977">
        <ele>904</ele>
        <time>2019-05-06T20:14:08Z</time>
      </trkpt>
      <trkpt lat="48.00543" lon="7.13945">
        <ele>905</ele>
        <time>2019-05-06T20:15:08Z</time>
      </trkpt>
      <trkpt lat="48.00538" lon="7.1392">
        <ele>907</ele>
        <time>2019-05-06T20:16:08Z</time>
      </trkpt>
      <trkpt lat="48.00523" lon="7.13873">
        <ele>908</ele>
        <time>2019-05-06T20:17:08Z</time>
      </trkpt>
      <trkpt lat="48.00513" lon="7.13855">
        <ele>909</ele>
        <time>2019-05-06T20:18:08Z</time>
      </trkpt>
      <trkpt lat="48.005" lon="7.13818">
        <ele>911</ele>
        <time>2019-05-06T20:19:08Z</time>
      </trkpt>
      <trkpt lat="48.00504" lon="7.13807">
        <ele>911</ele>
        <time>2019-05-06T20:20:08Z</time>
      </trkpt>
      <trkpt lat="48.00501" lon="7.138">
        <ele>912</ele>
        <time>2019-05-06T20:21:08Z</time>
      </trkpt>
      <trkpt lat="48.0049" lon="7.13797">
        <ele>912</ele>
        <time>2019-05-06T20:22:08Z</time>
      </trkpt>
      <trkpt lat="48.00482" lon="7.13792">
        <ele>913</ele>
        <time>2019-05-06T20:23:08Z</time>
      </trkpt>
      <trkpt lat="48.00477" lon="7.13784">
        <ele>914</ele>
        <time>2019-05-06T20:24:08Z</time>
      </trkpt>
      <trkpt lat="48.0047" lon="7.13779">
        <ele>915</ele>
        <time>2019-05-06T20:25:08Z</time>
      </trkpt>
      <trkpt lat="48.0046" lon="7.1378">
        <ele>916</ele>
        <time>2019-05-06T20:26:08Z</time>
      </trkpt>
      <trkpt lat="48.00452" lon="7.13778">
        <ele>917</ele>
        <time>2019-05-06T20:27:08Z</time>
      </trkpt>
      <trkpt lat="48.00437" lon="7.1377">
        <ele>919</ele>
        <time>2019-05-06T20:28:08Z</time>
      </trkpt>
      <trkpt lat="48.00427" lon="7.13769">
        <ele>921</ele>
        <time>2019-05-06T20:29:08Z</time>
      </trkpt>
      <trkpt lat="48.00421" lon="7.13762">
        <ele>922</ele>
        <time>2019-05-06T20:30:08Z</time>
      </trkpt>
      <trkpt lat="48.00406" lon="7.13765">
        <ele>923</ele>
        <time>2019-05-06T20:31:08Z</time>
      </trkpt>
      <trkpt lat="48.00399" lon="7.13759">
        <ele>925</ele>
        <time>2019-05-06T20:32:08Z</time>
      </trkpt>
      <trkpt lat="48.00382" lon="7.13756">
        <ele>927</ele>
        <time>2019-05-06T20:33:08Z</time>
      </trkpt>
      <trkpt lat="48.0036" lon="7.13759">
        <ele>929</ele>
        <time>2019-05-06T20:34:08Z</time>
      </trkpt>
      <trkpt lat="48.00352" lon="7.13756">
        <ele>930</ele>
        <time>2019-05-06T20:35:08Z</time>
      </trkpt>
      <trkpt lat="48.00342" lon="7.13746">
        <ele>932</ele>
        <time>2019-05-06T20:36:08Z</time>
      </trkpt>
      <trkpt lat="48.00299" lon="7.13734">
        <ele>939</ele>
        <time>2019-05-06T20:37:08Z</time>
      </trkpt>
      <trkpt lat="48.00272" lon="7.13738">
        <ele>942</ele>
        <time>2019-05-06T20:38:08Z</time>
      </trkpt>
      <trkpt lat="48.00264" lon="7.13734">
        <ele>944</ele>
        <time>2019-05-06T20:39:08Z</time>
      </trkpt>
      <trkpt lat="48.00243" lon="7.13703">
        <ele>949</ele>
        <time>2019-05-06T20:40:08Z</time>
      </trkpt>
      <trkpt lat="48.00219" lon="7.1369">
        <ele>952</ele>
        <time>2019-05-06T20:41:08Z</time>
      </trkpt>
      <trkpt lat="48.00212" lon="7.13683">
        <ele>953</ele>
        <time>2019-05-06T20:42:08Z</time>
      </trkpt>
      <trkpt lat="48.00195" lon="7.13679">
        <ele>955</ele>
        <time>2019-05-06T20:43:08Z</time>
      </trkpt>
      <trkpt lat="48.00181" lon="7.13666">
        <ele>957</ele>
        <time>2019-05-06T20:44:08Z</time>
      </trkpt>
      <trkpt lat="48.00156" lon="7.13666">
        <ele>960</ele>
        <time>2019-05-06T20:45:08Z</time>
      </trkpt>
      <trkpt lat="48.00133" lon="7.13673">
        <ele>962</ele>
        <time>2019-05-06T20:46:08Z</time>
      </trkpt>
      <trkpt lat="48.00125" lon="7.13673">
        <ele>963</ele>
        <time>2019-05-06T20:47:08Z</time>
      </trkpt>
      <trkpt lat="48.0011" lon="7.13662">
        <ele>966</ele>
        <time>2019-05-06T20:48:08Z</time>
      </trkpt>
      <trkpt lat="48.00102" lon="7.13661">
        <ele>967</ele>
        <time>2019-05-06T20:49:08Z</time>
      </trkpt>
      <trkpt lat="48.00075" lon="7.13636">
        <ele>971</ele>
        <time>2019-05-06T20:50:08Z</time>
      </trkpt>
      <trkpt lat="48.00058" lon="7.13611">
        <ele>974</ele>
        <time>2019-05-06T20:51:08Z</time>
      </trkpt>
      <trkpt lat="48.00049" lon="7.13607">
        <ele>974</ele>
        <time>2019-05-06T20:52:08Z</time>
      </trkpt>
      <trkpt lat="48.00039" lon="7.13586">
        <ele>977</ele>
        <time>2019-05-06T20:53:08Z</time>
      </trkpt>
      <trkpt lat="48.00008" lon="7.13555">
        <ele>980</ele>
        <time>2019-05-06T20:54:08Z</time>
      </trkpt>
      <trkpt lat="47.99999" lon="7.13553">
        <ele>980</ele>
        <time>2019-05-06T20:55:08Z</time>
      </trkpt>
      <trkpt lat="47.99992" lon="7.13547">
        <ele>979</ele>
        <time>2019-05-06T20:56:08Z</time>
      </trkpt>
      <trkpt lat="47.99984" lon="7.13548">
        <ele>978</ele>
        <time>2019-05-06T20:57:08Z</time>
      </trkpt>
      <trkpt lat="47.99977" lon="7.13543">
        <ele>977</ele>
        <time>2019-05-06T20:58:08Z</time>
      </trkpt>
      <trkpt lat="47.99962" lon="7.13547">
        <ele>975</ele>
        <time>2019-05-06T20:59:08Z</time>
      </trkpt>
      <trkpt lat="47.99957" lon="7.13536">
        <ele>975</ele>
        <time>2019-05-06T21:00:08Z</time>
      </trkpt>
      <trkpt lat="47.99949" lon="7.1353">
        <ele>975</ele>
        <time>2019-05-06T21:01:08Z</time>
      </trkpt>
      <trkpt lat="47.99909" lon="7.13508">
        <ele>974</ele>
        <time>2019-05-06T21:02:08Z</time>
      </trkpt>
      <trkpt lat="47.99885" lon="7.13454">
        <ele>982</ele>
        <time>2019-05-06T21:03:08Z</time>
      </trkpt>
      <trkpt lat="47.99878" lon="7.13431">
        <ele>986</ele>
        <time>2019-05-06T21:04:08Z</time>
      </trkpt>
      <trkpt lat="47.9985" lon="7.13402">
        <ele>989</ele>
        <time>2019-05-06T21:05:08Z</time>
      </trkpt>
      <trkpt lat="47.99833" lon="7.13394">
        <ele>990</ele>
        <time>2019-05-06T21:06:08Z</time>
      </trkpt>
      <trkpt lat="47.9982" lon="7.13376">
        <ele>994</ele>
        <time>2019-05-06T21:07:08Z</time>
      </trkpt>
      <trkpt lat="47.99804" lon="7.13366">
        <ele>998</ele>
        <time>2019-05-06T21:08:08Z</time>
      </trkpt>
      <trkpt lat="47.99796" lon="7.13364">
        <ele>999</ele>
        <time>2019-05-06T21:09:08Z</time>
      </trkpt>
      <trkpt lat="47.99787" lon="7.13367">
        <ele>999</ele>
        <time>2019-05-06T21:10:08Z</time>
      </trkpt>
      <trkpt lat="47.99781" lon="7.13358">
        <ele>1003</ele>
        <time>2019-05-06T21:11:08Z</time>
      </trkpt>
      <trkpt lat="47.99765" lon="7.13347">
        <ele>1008</ele>
        <time>2019-05-06T21:12:08Z</time>
      </trkpt>
      <trkpt lat="47.99751" lon="7.13333">
        <ele>1015</ele>
        <time>2019-05-06T21:13:08Z</time>
      </trkpt>
      <trkpt lat="47.99742" lon="7.13336">
        <ele>1013</ele>
        <time>2019-05-06T21:14:08Z</time>
      </trkpt>
      <trkpt lat="47.99694" lon="7.13337">
        <ele>1010</ele>
        <time>2019-05-06T21:15:08Z</time>
      </trkpt>
      <trkpt lat="47.99686" lon="7.13342">
        <ele>1008</ele>
        <time>2019-05-06T21:16:08Z</time>
      </trkpt>
      <trkpt lat="47.99672" lon="7.13307">
        <ele>1014</ele>
        <time>2019-05-06T21:17:08Z</time>
      </trkpt>
      <trkpt lat="47.99661" lon="7.13293">
        <ele>1015</ele>
        <time>2019-05-06T21:18:08Z</time>
      </trkpt>
      <trkpt lat="47.99642" lon="7.13257">
        <ele>1017</ele>
        <time>2019-05-06T21:19:08Z</time>
      </trkpt>
      <trkpt lat="47.99571" lon="7.13223">
        <ele>1006</ele>
        <time>2019-05-06T21:20:08Z</time>
      </trkpt>
      <trkpt lat="47.9955" lon="7.13233">
        <ele>1003</ele>
        <time>2019-05-06T21:21:08Z</time>
      </trkpt>
      <trkpt lat="47.9954" lon="7.13228">
        <ele>1002</ele>
        <time>2019-05-06T21:22:08Z</time>
      </trkpt>
      <trkpt lat="47.9951" lon="7.1322">
        <ele>1000</ele>
        <time>2019-05-06T21:23:08Z</time>
      </trkpt>
      <trkpt lat="47.99481" lon="7.13218">
        <ele>999</ele>
        <time>2019-05-06T21:24:08Z</time>
      </trkpt>
      <trkpt lat="47.99459" lon="7.13206">
        <ele>1000</ele>
        <time>2019-05-06T21:25:08Z</time>
      </trkpt>
      <trkpt lat="47.99446" lon="7.13202">
        <ele>1001</ele>
        <time>2019-05-06T21:26:08Z</time>
      </trkpt>
      <trkpt lat="47.99427" lon="7.13184">
        <ele>1003</ele>
        <time>2019-05-06T21:27:08Z</time>
      </trkpt>
      <trkpt lat="47.99415" lon="7.13183">
        <ele>1003</ele>
        <time>2019-05-06T21:28:08Z</time>
      </trkpt>
      <trkpt lat="47.99399" lon="7.13178">
        <ele>1004</ele>
        <time>2019-05-06T21:29:08Z</time>
      </trkpt>
      <trkpt lat="47.99292" lon="7.13133">
        <ele>1006</ele>
        <time>2019-05-06T21:30:08Z</time>
      </trkpt>
      <trkpt lat="47.99274" lon="7.13127">
        <ele>1006</ele>
        <time>2019-05-06T21:31:08Z</time>
      </trkpt>
      <trkpt lat="47.99255" lon="7.13124">
        <ele>1005</ele>
        <time>2019-05-06T21:32:08Z</time>
      </trkpt>
      <trkpt lat="47.9924" lon="7.13118">
        <ele>1007</ele>
        <time>2019-05-06T21:33:08Z</time>
      </trkpt>
      <trkpt lat="47.99232" lon="7.13112">
        <ele>1009</ele>
        <time>2019-05-06T21:34:08Z</time>
      </trkpt>
      <trkpt lat="47.99224" lon="7.13115">
        <ele>1009</ele>
        <time>2019-05-06T21:35:08Z</time>
      </trkpt>
      <trkpt lat="47.99218" lon="7.13124">
        <ele>1009</ele>
        <time>2019-05-06T21:36:08Z</time>
      </trkpt>
      <trkpt lat="47.99194" lon="7.1313">
        <ele>1011</ele>
        <time>2019-05-06T21:37:08Z</time>
      </trkpt>
      <trkpt lat="47.99189" lon="7.13134">
        <ele>1011</ele>
        <time>2019-05-06T21:38:08Z</time>
      </trkpt>
      <trkpt lat="47.99164" lon="7.13162">
        <ele>1010</ele>
        <time>2019-05-06T21:39:08Z</time>
      </trkpt>
      <trkpt lat="47.99133" lon="7.13189">
        <ele>1013</ele>
        <time>2019-05-06T21:40:08Z</time>
      </trkpt>
      <trkpt lat="47.99113" lon="7.13218">
        <ele>1011</ele>
        <time>2019-05-06T21:41:08Z</time>
      </trkpt>
      <trkpt lat="47.99086" lon="7.13244">
        <ele>1011</ele>
        <time>2019-05-06T21:42:08Z</time>
      </trkpt>
      <trkpt lat="47.99054" lon="7.13255">
        <ele>1018</ele>
        <time>2019-05-06T21:43:08Z</time>
      </trkpt>
      <trkpt lat="47.99033" lon="7.13279">
        <ele>1019</ele>
        <time>2019-05-06T21:44:08Z</time>
      </trkpt>
      <trkpt lat="47.99004" lon="7.13301">
        <ele>1023</ele>
        <time>2019-05-06T21:45:08Z</time>
      </trkpt>
      <trkpt lat="47.98941" lon="7.1336">
        <ele>1037</ele>
        <time>2019-05-06T21:46:08Z</time>
      </trkpt>
      <trkpt lat="47.98926" lon="7.13368">
        <ele>1042</ele>
        <time>2019-05-06T21:47:08Z</time>
      </trkpt>
      <trkpt lat="47.98912" lon="7.13381">
        <ele>1044</ele>
        <time>2019-05-06T21:48:08Z</time>
      </trkpt>
      <trkpt lat="47.98906" lon="7.1339">
        <ele>1043</ele>
        <time>2019-05-06T21:49:08Z</time>
      </trkpt>
      <trkpt lat="47.98895" lon="7.13396">
        <ele>1043</ele>
        <time>2019-05-06T21:50:08Z</time>
      </trkpt>
      <trkpt lat="47.98862" lon="7.13396">
        <ele>1048</ele>
        <time>2019-05-06T21:51:08Z</time>
      </trkpt>
      <trkpt lat="47.98853" lon="7.13393">
        <ele>1051</ele>
        <time>2019-05-06T21:52:08Z</time>
      </trkpt>
      <trkpt lat="47.98846" lon="7.13386">
        <ele>1054</ele>
        <time>2019-05-06T21:53:08Z</time>
      </trkpt>
      <trkpt lat="47.9883" lon="7.13378">
        <ele>1059</ele>
        <time>2019-05-06T21:54:08Z</time>
      </trkpt>
      <trkpt lat="47.98822" lon="7.13371">
        <ele>1062</ele>
        <time>2019-05-06T21:55:08Z</time>
      </trkpt>
      <trkpt lat="47.98802" lon="7.13371">
        <ele>1064</ele>
        <time>2019-05-06T21:56:08Z</time>
      </trkpt>
      <trkpt lat="47.98791" lon="7.13367">
        <ele>1067</ele>
        <time>2019-05-06T21:57:08Z</time>
      </trkpt>
      <trkpt lat="47.98771" lon="7.13366">
        <ele>1070</ele>
        <time>2019-05-06T21:58:08Z</time>
      </trkpt>
      <trkpt lat="47.98763" lon="7.13363">
        <ele>1072</ele>
        <time>2019-05-06T21:59:08Z</time>
      </trkpt>
      <trkpt lat="47.98741" lon="7.13369">
        <ele>1071</ele>
        <time>2019-05-06T22:00:08Z</time>
      </trkpt>
      <trkpt lat="47.98733" lon="7.13368">
        <ele>1072</ele>
        <time>2019-05-06T22:01:08Z</time>
      </trkpt>
      <trkpt lat="47.98723" lon="7.1336">
        <ele>1076</ele>
        <time>2019-05-06T22:02:08Z</time>
      </trkpt>
      <trkpt lat="47.98688" lon="7.13365">
        <ele>1075</ele>
        <time>2019-05-06T22:03:08Z</time>
      </trkpt>
      <trkpt lat="47.98679" lon="7.13364">
        <ele>1076</ele>
        <time>2019-05-06T22:04:08Z</time>
      </trkpt>
      <trkpt lat="47.98665" lon="7.13356">
        <ele>1079</ele>
        <time>2019-05-06T22:05:08Z</time>
      </trkpt>
      <trkpt lat="47.98657" lon="7.13359">
        <ele>1079</ele>
        <time>2019-05-06T22:06:08Z</time>
      </trkpt>
      <trkpt lat="47.98641" lon="7.13356">
        <ele>1083</ele>
        <time>2019-05-06T22:07:08Z</time>
      </trkpt>
      <trkpt lat="47.98632" lon="7.13357">
        <ele>1084</ele>
        <time>2019-05-06T22:08:08Z</time>
      </trkpt>
      <trkpt lat="47.98607" lon="7.13351">
        <ele>1089</ele>
        <time>2019-05-06T22:09:08Z</time>
      </trkpt>
      <trkpt lat="47.98542" lon="7.13357">
        <ele>1097</ele>
        <time>2019-05-06T22:10:08Z</time>
      </trkpt>
      <trkpt lat="47.98525" lon="7.13361">
        <ele>1098</ele>
        <time>2019-05-06T22:11:08Z</time>
      </trkpt>
      <trkpt lat="47.98518" lon="7.13369">
        <ele>1097</ele>
        <time>2019-05-06T22:12:08Z</time>
      </trkpt>
      <trkpt lat="47.98503" lon="7.13368">
        <ele>1100</ele>
        <time>2019-05-06T22:13:08Z</time>
      </trkpt>
      <trkpt lat="47.98485" lon="7.13382">
        <ele>1096</ele>
        <time>2019-05-06T22:14:08Z</time>
      </trkpt>
      <trkpt lat="47.98466" lon="7.13384">
        <ele>1095</ele>
        <time>2019-05-06T22:15:08Z</time>
      </trkpt>
      <trkpt lat="47.98454" lon="7.13379">
        <ele>1095</ele>
        <time>2019-05-06T22:16:08Z</time>
      </trkpt>
      <trkpt lat="47.9839" lon="7.13317">
        <ele>1102</ele>
        <time>2019-05-06T22:17:08Z</time>
      </trkpt>
      <trkpt lat="47.98359" lon="7.13294">
        <ele>1100</ele>
        <time>2019-05-06T22:18:08Z</time>
      </trkpt>
      <trkpt lat="47.98317" lon="7.13268">
        <ele>1098</ele>
        <time>2019-05-06T22:19:08Z</time>
      </trkpt>
      <trkpt lat="47.98285" lon="7.13265">
        <ele>1094</ele>
        <time>2019-05-06T22:20:08Z</time>
      </trkpt>
      <trkpt lat="47.98208" lon="7.13238">
        <ele>1096</ele>
        <time>2019-05-06T22:21:08Z</time>
      </trkpt>
      <trkpt lat="47.98181" lon="7.13239">
        <ele>1096</ele>
        <time>2019-05-06T22:22:08Z</time>
      </trkpt>
      <trkpt lat="47.98164" lon="7.13237">
        <ele>1096</ele>
        <time>2019-05-06T22:23:08Z</time>
      </trkpt>
      <trkpt lat="47.98136" lon="7.13227">
        <ele>1097</ele>
        <time>2019-05-06T22:24:08Z</time>
      </trkpt>
      <trkpt lat="47.98099" lon="7.13206">
        <ele>1103</ele>
        <time>2019-05-06T22:25:08Z</time>
      </trkpt>
      <trkpt lat="47.98054" lon="7.13198">
        <ele>1108</ele>
        <time>2019-05-06T22:26:08Z</time>
      </trkpt>
      <trkpt lat="47.9804" lon="7.13199">
        <ele>1110</ele>
        <time>2019-05-06T22:27:08Z</time>
      </trkpt>
      <trkpt lat="47.9803" lon="7.13203">
        <ele>1110</ele>
        <time>2019-05-06T22:28:08Z</time>
      </trkpt>
      <trkpt lat="47.97999" lon="7.13209">
        <ele>1112</ele>
        <time>2019-05-06T22:29:08Z</time>
      </trkpt>
      <trkpt lat="47.97994" lon="7.13211">
        <ele>1114</ele>
        <time>2019-05-06T22:30:08Z</time>
      </trkpt>
      <trkpt lat="47.97986" lon="7.1322">
        <ele>1115</ele>
        <time>2019-05-06T22:31:08Z</time>
      </trkpt>
      <trkpt lat="47.9797" lon="7.13224">
        <ele>1120</ele>
        <time>2019-05-06T22:32:08Z</time>
      </trkpt>
      <trkpt lat="47.97961" lon="7.13231">
        <ele>1122</ele>
        <time>2019-05-06T22:33:08Z</time>
      </trkpt>
      <trkpt lat="47.97954" lon="7.13239">
        <ele>1122</ele>
        <time>2019-05-06T22:34:08Z</time>
      </trkpt>
      <trkpt lat="47.9795" lon="7.13254">
        <ele>1120</ele>
        <time>2019-05-06T22:35:08Z</time>
      </trkpt>
      <trkpt lat="47.97945" lon="7.13303">
        <ele>1113</ele>
        <time>2019-05-06T22:36:08Z</time>
      </trkpt>
      <trkpt lat="47.9794" lon="7.13314">
        <ele>1112</ele>
        <time>2019-05-06T22:37:08Z</time>
      </trkpt>
      <trkpt lat="47.97928" lon="7.13328">
        <ele>1115</ele>
        <time>2019-05-06T22:38:08Z</time>
      </trkpt>
      <trkpt lat="47.97904" lon="7.13341">
        <ele>1122</ele>
        <time>2019-05-06T22:39:08Z</time>
      </trkpt>
      <trkpt lat="47.97885" lon="7.13365">
        <ele>1124</ele>
        <time>2019-05-06T22:40:08Z</time>
      </trkpt>
      <trkpt lat="47.97869" lon="7.13372">
        <ele>1129</ele>
        <time>2019-05-06T22:41:08Z</time>
      </trkpt>
      <trkpt lat="47.97847" lon="7.13386">
        <ele>1133</ele>
        <time>2019-05-06T22:42:08Z</time>
      </trkpt>
      <trkpt lat="47.97836" lon="7.13396">
        <ele>1135</ele>
        <time>2019-05-06T22:43:08Z</time>
      </trkpt>
      <trkpt lat="47.97814" lon="7.13406">
        <ele>1136</ele>
        <time>2019-05-06T22:44:08Z</time>
      </trkpt>
      <trkpt lat="47.97777" lon="7.1343">
        <ele>1139</ele>
        <time>2019-05-06T22:45:08Z</time>
      </trkpt>
      <trkpt lat="47.97731" lon="7.13441">
        <ele>1145</ele>
        <time>2019-05-06T22:46:08Z</time>
      </trkpt>
      <trkpt lat="47.97682" lon="7.13463">
        <ele>1147</ele>
        <time>2019-05-06T22:47:08Z</time>
      </trkpt>
      <trkpt lat="47.97675" lon="7.13464">
        <ele>1148</ele>
        <time>2019-05-06T22:48:08Z</time>
      </trkpt>
      <trkpt lat="47.97658" lon="7.13459">
        <ele>1148</ele>
        <time>2019-05-06T22:49:08Z</time>
      </trkpt>
      <trkpt lat="47.97599" lon="7.13452">
        <ele>1143</ele>
        <time>2019-05-06T22:50:08Z</time>
      </trkpt>
      <trkpt lat="47.97566" lon="7.13445">
        <ele>1142</ele>
        <time>2019-05-06T22:51:08Z</time>
      </trkpt>
      <trkpt lat="47.97538" lon="7.13436">
        <ele>1141</ele>
        <time>2019-05-06T22:52:08Z</time>
      </trkpt>
      <trkpt lat="47.9751" lon="7.13438">
        <ele>1138</ele>
        <time>2019-05-06T22:53:08Z</time>
      </trkpt>
      <trkpt lat="47.97483" lon="7.13431">
        <ele>1136</ele>
        <time>2019-05-06T22:54:08Z</time>
      </trkpt>
      <trkpt lat="47.97456" lon="7.13404">
        <ele>1136</ele>
        <time>2019-05-06T22:55:08Z</time>
      </trkpt>
      <trkpt lat="47.97428" lon="7.1336">
        <ele>1138</ele>
        <time>2019-05-06T22:56:08Z</time>
      </trkpt>
      <trkpt lat="47.97423" lon="7.13336">
        <ele>1140</ele>
        <time>2019-05-06T22:57:08Z</time>
      </trkpt>
      <trkpt lat="47.97424" lon="7.1332">
        <ele>1140</ele>
        <time>2019-05-06T22:58:08Z</time>
      </trkpt>
      <trkpt lat="47.97441" lon="7.13294">
        <ele>1142</ele>
        <time>2019-05-06T22:59:08Z</time>
      </trkpt>
      <trkpt lat="47.97458" lon="7.13261">
        <ele>1144</ele>
        <time>2019-05-06T23:00:08Z</time>
      </trkpt>
      <trkpt lat="47.97468" lon="7.13251">
        <ele>1146</ele>
        <time>2019-05-06T23:01:08Z</time>
      </trkpt>
      <trkpt lat="47.97534" lon="7.13203">
        <ele>1143</ele>
        <time>2019-05-06T23:02:08Z</time>
      </trkpt>
      <trkpt lat="47.9755" lon="7.13199">
        <ele>1142</ele>
        <time>2019-05-06T23:03:08Z</time>
      </trkpt>
      <trkpt lat="47.97567" lon="7.13201">
        <ele>1143</ele>
        <time>2019-05-06T23:04:08Z</time>
      </trkpt>
      <trkpt lat="47.97622" lon="7.13187">
        <ele>1146</ele>
        <time>2019-05-06T23:05:08Z</time>
      </trkpt>
      <trkpt lat="47.97637" lon="7.13187">
        <ele>1148</ele>
        <time>2019-05-06T23:06:08Z</time>
      </trkpt>
      <trkpt lat="47.9767" lon="7.13179">
        <ele>1152</ele>
        <time>2019-05-06T23:07:08Z</time>
      </trkpt>
      <trkpt lat="47.97693" lon="7.13169">
        <ele>1154</ele>
        <time>2019-05-06T23:08:08Z</time>
      </trkpt>
      <trkpt lat="47.97724" lon="7.13149">
        <ele>1156</ele>
        <time>2019-05-06T23:09:08Z</time>
      </trkpt>
      <trkpt lat="47.97728" lon="7.1314">
        <ele>1156</ele>
        <time>2019-05-06T23:10:08Z</time>
      </trkpt>
      <trkpt lat="47.97735" lon="7.13134">
        <ele>1156</ele>
        <time>2019-05-06T23:11:08Z</time>
      </trkpt>
      <trkpt lat="47.97753" lon="7.13108">
        <ele>1157</ele>
        <time>2019-05-06T23:12:08Z</time>
      </trkpt>
      <trkpt lat="47.97767" lon="7.13076">
        <ele>1159</ele>
        <time>2019-05-06T23:13:08Z</time>
      </trkpt>
      <trkpt lat="47.97773" lon="7.1305">
        <ele>1161</ele>
        <time>2019-05-06T23:14:08Z</time>
      </trkpt>
      <trkpt lat="47.97773" lon="7.13004">
        <ele>1164</ele>
        <time>2019-05-06T23:15:08Z</time>
      </trkpt>
      <trkpt lat="47.9778" lon="7.12935">
        <ele>1170</ele>
        <time>2019-05-06T23:16:08Z</time>
      </trkpt>
      <trkpt lat="47.97801" lon="7.1285">
        <ele>1182</ele>
        <time>2019-05-06T23:17:08Z</time>
      </trkpt>
      <trkpt lat="47.9781" lon="7.12828">
        <ele>1187</ele>
        <time>2019-05-06T23:18:08Z</time>
      </trkpt>
      <trkpt lat="47.97818" lon="7.1282">
        <ele>1189</ele>
        <time>2019-05-06T23:19:08Z</time>
      </trkpt>
      <trkpt lat="47.97821" lon="7.12809">
        <ele>1191</ele>
        <time>2019-05-06T23:20:08Z</time>
      </trkpt>
      <trkpt lat="47.97829" lon="7.1275">
        <ele>1196</ele>
        <time>2019-05-06T23:21:08Z</time>
      </trkpt>
      <trkpt lat="47.97857" lon="7.12638">
        <ele>1206</ele>
        <time>2019-05-06T23:22:08Z</time>
      </trkpt>
      <trkpt lat="47.97876" lon="7.12586">
        <ele>1213</ele>
        <time>2019-05-06T23:23:08Z</time>
      </trkpt>
      <trkpt lat="47.97876" lon="7.12574">
        <ele>1213</ele>
        <time>2019-05-06T23:24:08Z</time>
      </trkpt>
      <trkpt lat="47.97883" lon="7.12582">
        <ele>1215</ele>
        <time>2019-05-06T23:25:08Z</time>
      </trkpt>
      <trkpt lat="47.97891" lon="7.12602">
        <ele>1217</ele>
        <time>2019-05-06T23:26:08Z</time>
      </trkpt>
      <trkpt lat="47.97907" lon="7.12659">
        <ele>1222</ele>
        <time>2019-05-06T23:27:08Z</time>
      </trkpt>
      <trkpt lat="47.97916" lon="7.12677">
        <ele>1225</ele>
        <time>2019-05-06T23:28:08Z</time>
      </trkpt>
      <trkpt lat="47.97925" lon="7.12709">
        <ele>1228</ele>
        <time>2019-05-06T23:29:08Z</time>
      </trkpt>
      <trkpt lat="47.97939" lon="7.12738">
        <ele>1232</ele>
        <time>2019-05-06T23:30:08Z</time>
      </trkpt>
      <trkpt lat="47.97959" lon="7.12793">
        <ele>1236</ele>
        <time>2019-05-06T23:31:08Z</time>
      </trkpt>
      <trkpt lat="47.97981" lon="7.12825">
        <ele>1240</ele>
        <time>2019-05-06T23:32:08Z</time>
      </trkpt>
      <trkpt lat="47.98011" lon="7.12842">
        <ele>1243</ele>
        <time>2019-05-06T23:33:08Z</time>
      </trkpt>
      <trkpt lat="47.98019" lon="7.12842">
        <ele>1244</ele>
        <time>2019-05-06T23:34:08Z</time>
      </trkpt>
      <trkpt lat="47.98039" lon="7.12831">
        <ele>1248</ele>
        <time>2019-05-06T23:35:08Z</time>
      </trkpt>
      <trkpt lat="47.98047" lon="7.1281">
        <ele>1251</ele>
        <time>2019-05-06T23:36:08Z</time>
      </trkpt>
      <trkpt lat="47.98059" lon="7.12756">
        <ele>1255</ele>
        <time>2019-05-06T23:37:08Z</time>
      </trkpt>
      <trkpt lat="47.98062" lon="7.12688">
        <ele>1256</ele>
        <time>2019-05-06T23:38:08Z</time>
      </trkpt>
      <trkpt lat="47.98059" lon="7.12665">
        <ele>1256</ele>
        <time>2019-05-06T23:39:08Z</time>
      </trkpt>
      <trkpt lat="47.98069" lon="7.1262">
        <ele>1260</ele>
        <time>2019-05-06T23:40:08Z</time>
      </trkpt>
      <trkpt lat="47.98073" lon="7.12667">
        <ele>1257</ele>
        <time>2019-05-06T23:41:08Z</time>
      </trkpt>
      <trkpt lat="47.98095" lon="7.12813">
        <ele>1252</ele>
        <time>2019-05-06T23:42:08Z</time>
      </trkpt>
      <trkpt lat="47.98099" lon="7.12857">
        <ele>1245</ele>
        <time>2019-05-06T23:43:08Z</time>
      </trkpt>
      <trkpt lat="47.98094" lon="7.12879">
        <ele>1240</ele>
        <time>2019-05-06T23:44:08Z</time>
      </trkpt>
      <trkpt lat="47.98041" lon="7.12917">
        <ele>1229</ele>
        <time>2019-05-06T23:45:08Z</time>
      </trkpt>
      <trkpt lat="47.98012" lon="7.12947">
        <ele>1217</ele>
        <time>2019-05-06T23:46:08Z</time>
      </trkpt>
      <trkpt lat="47.98018" lon="7.12953">
        <ele>1214</ele>
        <time>2019-05-06T23:47:08Z</time>
      </trkpt>
      <trkpt lat="47.98026" lon="7.12949">
        <ele>1216</ele>
        <time>2019-05-06T23:48:08Z</time>
      </trkpt>
      <trkpt lat="47.98035" lon="7.12949">
        <ele>1215</ele>
        <time>2019-05-06T23:49:08Z</time>
      </trkpt>
      <trkpt lat="47.98042" lon="7.12942">
        <ele>1218</ele>
        <time>2019-05-06T23:50:08Z</time>
      </trkpt>
      <trkpt lat="47.98047" lon="7.12931">
        <ele>1223</ele>
        <time>2019-05-06T23:51:08Z</time>
      </trkpt>
      <trkpt lat="47.9807" lon="7.12914">
        <ele>1231</ele>
        <time>2019-05-06T23:52:08Z</time>
      </trkpt>
      <trkpt lat="47.98112" lon="7.1292">
        <ele>1227</ele>
        <time>2019-05-06T23:53:08Z</time>
      </trkpt>
      <trkpt lat="47.98129" lon="7.12917">
        <ele>1226</ele>
        <time>2019-05-06T23:54:08Z</time>
      </trkpt>
      <trkpt lat="47.98144" lon="7.12924">
        <ele>1222</ele>
        <time>2019-05-06T23:55:08Z</time>
      </trkpt>
      <trkpt lat="47.98154" lon="7.12932">
        <ele>1217</ele>
        <time>2019-05-06T23:56:08Z</time>
      </trkpt>
      <trkpt lat="47.98161" lon="7.12926">
        <ele>1220</ele>
        <time>2019-05-06T23:57:08Z</time>
      </trkpt>
      <trkpt lat="47.9818" lon="7.12925">
        <ele>1218</ele>
        <time>2019-05-06T23:58:08Z</time>
      </trkpt>
      <trkpt lat="47.98203" lon="7.12942">
        <ele>1211</ele>
        <time>2019-05-06T23:59:08Z</time>
      </trkpt>
      <trkpt lat="47.98208" lon="7.12933">
        <ele>1213</ele>
        <time>2019-05-07T00:00:08Z</time>
      </trkpt>
      <trkpt lat="47.98266" lon="7.12883">
        <ele>1212</ele>
        <time>2019-05-07T00:01:08Z</time>
      </trkpt>
      <trkpt lat="47.98285" lon="7.12894">
        <ele>1207</ele>
        <time>2019-05-07T00:02:08Z</time>
      </trkpt>
      <trkpt lat="47.98304" lon="7.12899">
        <ele>1203</ele>
        <time>2019-05-07T00:03:08Z</time>
      </trkpt>
      <trkpt lat="47.98316" lon="7.12928">
        <ele>1199</ele>
        <time>2019-05-07T00:04:08Z</time>
      </trkpt>
      <trkpt lat="47.98358" lon="7.12977">
        <ele>1193</ele>
        <time>2019-05-07T00:05:08Z</time>
      </trkpt>
      <trkpt lat="47.9839" lon="7.13">
        <ele>1189</ele>
        <time>2019-05-07T00:06:08Z</time>
      </trkpt>
      <trkpt lat="47.9841" lon="7.12986">
        <ele>1186</ele>
        <time>2019-05-07T00:07:08Z</time>
      </trkpt>
      <trkpt lat="47.98435" lon="7.13001">
        <ele>1181</ele>
        <time>2019-05-07T00:08:08Z</time>
      </trkpt>
      <trkpt lat="47.98455" lon="7.12999">
        <ele>1177</ele>
        <time>2019-05-07T00:09:08Z</time>
      </trkpt>
      <trkpt lat="47.98485" lon="7.12987">
        <ele>1169</ele>
        <time>2019-05-07T00:10:08Z</time>
      </trkpt>
      <trkpt lat="47.985" lon="7.12999">
        <ele>1166</ele>
        <time>2019-05-07T00:11:08Z</time>
      </trkpt>
      <trkpt lat="47.98534" lon="7.13005">
        <ele>1161</ele>
        <time>2019-05-07T00:12:08Z</time>
      </trkpt>
      <trkpt lat="47.98554" lon="7.13012">
        <ele>1158</ele>
        <time>2019-05-07T00:13:08Z</time>
      </trkpt>
      <trkpt lat="47.9856" lon="7.12992">
        <ele>1158</ele>
        <time>2019-05-07T00:14:08Z</time>
      </trkpt>
      <trkpt lat="47.98556" lon="7.12978">
        <ele>1158</ele>
        <time>2019-05-07T00:15:08Z</time>
      </trkpt>
      <trkpt lat="47.98551" lon="7.1297">
        <ele>1158</ele>
        <time>2019-05-07T00:16:08Z</time>
      </trkpt>
      <trkpt lat="47.98544" lon="7.1293">
        <ele>1158</ele>
        <time>2019-05-07T00:17:08Z</time>
      </trkpt>
      <trkpt lat="47.98536" lon="7.12909">
        <ele>1159</ele>
        <time>2019-05-07T00:18:08Z</time>
      </trkpt>
      <trkpt lat="47.98484" lon="7.12802">
        <ele>1163</ele>
        <time>2019-05-07T00:19:08Z</time>
      </trkpt>
      <trkpt lat="47.98476" lon="7.12746">
        <ele>1167</ele>
        <time>2019-05-07T00:20:08Z</time>
      </trkpt>
      <trkpt lat="47.98473" lon="7.12701">
        <ele>1167</ele>
        <time>2019-05-07T00:21:08Z</time>
      </trkpt>
      <trkpt lat="47.98477" lon="7.12624">
        <ele>1166</ele>
        <time>2019-05-07T00:22:08Z</time>
      </trkpt>
      <trkpt lat="47.98489" lon="7.12558">
        <ele>1164</ele>
        <time>2019-05-07T00:23:08Z</time>
      </trkpt>
      <trkpt lat="47.98491" lon="7.12475">
        <ele>1167</ele>
        <time>2019-05-07T00:24:08Z</time>
      </trkpt>
      <trkpt lat="47.98499" lon="7.12439">
        <ele>1166</ele>
        <time>2019-05-07T00:25:08Z</time>
      </trkpt>
      <trkpt lat="47.98525" lon="7.12381">
        <ele>1163</ele>
        <time>2019-05-07T00:26:08Z</time>
      </trkpt>
      <trkpt lat="47.98536" lon="7.12293">
        <ele>1163</ele>
        <time>2019-05-07T00:27:08Z</time>
      </trkpt>
      <trkpt lat="47.98534" lon="7.12219">
        <ele>1161</ele>
        <time>2019-05-07T00:28:08Z</time>
      </trkpt>
      <trkpt lat="47.98523" lon="7.12154">
        <ele>1161</ele>
        <time>2019-05-07T00:29:08Z</time>
      </trkpt>
      <trkpt lat="47.98513" lon="7.12126">
        <ele>1162</ele>
        <time>2019-05-07T00:30:08Z</time>
      </trkpt>
      <trkpt lat="47.98506" lon="7.12095">
        <ele>1162</ele>
        <time>2019-05-07T00:31:08Z</time>
      </trkpt>
      <trkpt lat="47.98506" lon="7.12058">
        <ele>1160</ele>
        <time>2019-05-07T00:32:08Z</time>
      </trkpt>
      <trkpt lat="47.98516" lon="7.12044">
        <ele>1159</ele>
        <time>2019-05-07T00:33:08Z</time>
      </trkpt>
      <trkpt lat="47.98544" lon="7.12016">
        <ele>1159</ele>
        <time>2019-05-07T00:34:08Z</time>
      </trkpt>
      <trkpt lat="47.98558" lon="7.11995">
        <ele>1160</ele>
        <time>2019-05-07T00:35:08Z</time>
      </trkpt>
      <trkpt lat="47.98602" lon="7.11944">
        <ele>1162</ele>
        <time>2019-05-07T00:36:08Z</time>
      </trkpt>
      <trkpt lat="47.98609" lon="7.11933">
        <ele>1162</ele>
        <time>2019-05-07T00:37:08Z</time>
      </trkpt>
      <trkpt lat="47.98633" lon="7.11918">
        <ele>1162</ele>
        <time>2019-05-07T00:38:08Z</time>
      </trkpt>
      <trkpt lat="47.98685" lon="7.11911">
        <ele>1159</ele>
        <time>2019-05-07T00:39:08Z</time>
      </trkpt>
      <trkpt lat="47.98812" lon="7.11886">
        <ele>1151</ele>
        <time>2019-05-07T00:40:08Z</time>
      </trkpt>
      <trkpt lat="47.98873" lon="7.11862">
        <ele>1154</ele>
        <time>2019-05-07T00:41:08Z</time>
      </trkpt>
      <trkpt lat="47.98887" lon="7.11864">
        <ele>1155</ele>
        <time>2019-05-07T00:42:08Z</time>
      </trkpt>
      <trkpt lat="47.98912" lon="7.11856">
        <ele>1157</ele>
        <time>2019-05-07T00:43:08Z</time>
      </trkpt>
      <trkpt lat="47.98918" lon="7.11892">
        <ele>1155</ele>
        <time>2019-05-07T00:44:08Z</time>
      </trkpt>
      <trkpt lat="47.98925" lon="7.11905">
        <ele>1153</ele>
        <time>2019-05-07T00:45:08Z</time>
      </trkpt>
      <trkpt lat="47.98931" lon="7.11932">
        <ele>1149</ele>
        <time>2019-05-07T00:46:08Z</time>
      </trkpt>
      <trkpt lat="47.98939" lon="7.11942">
        <ele>1147</ele>
        <time>2019-05-07T00:47:08Z</time>
      </trkpt>
      <trkpt lat="47.98946" lon="7.11963">
        <ele>1143</ele>
        <time>2019-05-07T00:48:08Z</time>
      </trkpt>
      <trkpt lat="47.98947" lon="7.11976">
        <ele>1142</ele>
        <time>2019-05-07T00:49:08Z</time>
      </trkpt>
      <trkpt lat="47.98966" lon="7.12015">
        <ele>1135</ele>
        <time>2019-05-07T00:50:08Z</time>
      </trkpt>
      <trkpt lat="47.98969" lon="7.12027">
        <ele>1133</ele>
        <time>2019-05-07T00:51:08Z</time>
      </trkpt>
      <trkpt lat="47.98989" lon="7.1205">
        <ele>1129</ele>
        <time>2019-05-07T00:52:08Z</time>
      </trkpt>
      <trkpt lat="47.99011" lon="7.12081">
        <ele>1123</ele>
        <time>2019-05-07T00:53:08Z</time>
      </trkpt>
      <trkpt lat="47.9902" lon="7.12083">
        <ele>1121</ele>
        <time>2019-05-07T00:54:08Z</time>
      </trkpt>
      <trkpt lat="47.99034" lon="7.121">
        <ele>1117</ele>
        <time>2019-05-07T00:55:08Z</time>
      </trkpt>
      <trkpt lat="47.99043" lon="7.12112">
        <ele>1115</ele>
        <time>2019-05-07T00:56:08Z</time>
      </trkpt>
      <trkpt lat="47.99048" lon="7.12132">
        <ele>1114</ele>
        <time>2019-05-07T00:57:08Z</time>
      </trkpt>
      <trkpt lat="47.99063" lon="7.12151">
        <ele>1113</ele>
        <time>2019-05-07T00:58:08Z</time>
      </trkpt>
      <trkpt lat="47.99028" lon="7.12204">
        <ele>1108</ele>
        <time>2019-05-07T00:59:08Z</time>
      </trkpt>
      <trkpt lat="47.99017" lon="7.12213">
        <ele>1106</ele>
        <time>2019-05-07T01:00:08Z</time>
      </trkpt>
      <trkpt lat="47.99008" lon="7.12233">
        <ele>1102</ele>
        <time>2019-05-07T01:01:08Z</time>
      </trkpt>
      <trkpt lat="47.98993" lon="7.12252">
        <ele>1098</ele>
        <time>2019-05-07T01:02:08Z</time>
      </trkpt>
      <trkpt lat="47.9898" lon="7.12265">
        <ele>1095</ele>
        <time>2019-05-07T01:03:08Z</time>
      </trkpt>
      <trkpt lat="47.98955" lon="7.12281">
        <ele>1092</ele>
        <time>2019-05-07T01:04:08Z</time>
      </trkpt>
      <trkpt lat="47.98943" lon="7.12347">
        <ele>1079</ele>
        <time>2019-05-07T01:05:08Z</time>
      </trkpt>
      <trkpt lat="47.98945" lon="7.12372">
        <ele>1076</ele>
        <time>2019-05-07T01:06:08Z</time>
      </trkpt>
      <trkpt lat="47.98902" lon="7.12425">
        <ele>1073</ele>
        <time>2019-05-07T01:07:08Z</time>
      </trkpt>
      <trkpt lat="47.98883" lon="7.12439">
        <ele>1075</ele>
        <time>2019-05-07T01:08:08Z</time>
      </trkpt>
      <trkpt lat="47.98874" lon="7.12436">
        <ele>1077</ele>
        <time>2019-05-07T01:09:08Z</time>
      </trkpt>
      <trkpt lat="47.98872" lon="7.12423">
        <ele>1078</ele>
        <time>2019-05-07T01:10:08Z</time>
      </trkpt>
      <trkpt lat="47.98876" lon="7.12413">
        <ele>1079</ele>
        <time>2019-05-07T01:11:08Z</time>
      </trkpt>
      <trkpt lat="47.98881" lon="7.12415">
        <ele>1078</ele>
        <time>2019-05-07T01:12:08Z</time>
      </trkpt>
      <trkpt lat="47.9889" lon="7.12424">
        <ele>1075</ele>
        <time>2019-05-07T01:13:08Z</time>
      </trkpt>
      <trkpt lat="47.98888" lon="7.12419">
        <ele>1076</ele>
        <time>2019-05-07T01:14:08Z</time>
      </trkpt>
      <trkpt lat="47.98875" lon="7.12433">
        <ele>1077</ele>
        <time>2019-05-07T01:15:08Z</time>
      </trkpt>
      <trkpt lat="47.98851" lon="7.12419">
        <ele>1082</ele>
        <time>2019-05-07T01:16:08Z</time>
      </trkpt>
      <trkpt lat="47.98878" lon="7.12432">
        <ele>1076</ele>
        <time>2019-05-07T01:17:08Z</time>
      </trkpt>
      <trkpt lat="47.98866" lon="7.12415">
        <ele>1080</ele>
        <time>2019-05-07T01:18:08Z</time>
      </trkpt>
      <trkpt lat="47.98868" lon="7.1241">
        <ele>1080</ele>
        <time>2019-05-07T01:19:08Z</time>
      </trkpt>
      <trkpt lat="47.98864" lon="7.12456">
        <ele>1076</ele>
        <time>2019-05-07T01:20:08Z</time>
      </trkpt>
      <trkpt lat="47.9887" lon="7.12436">
        <ele>1077</ele>
        <time>2019-05-07T01:21:08Z</time>
      </trkpt>
      <trkpt lat="47.98871" lon="7.12423">
        <ele>1078</ele>
        <time>2019-05-07T01:22:08Z</time>
      </trkpt>
      <trkpt lat="47.98876" lon="7.12435">
        <ele>1076</ele>
        <time>2019-05-07T01:23:08Z</time>
      </trkpt>
      <trkpt lat="47.98884" lon="7.12438">
        <ele>1075</ele>
        <time>2019-05-07T01:24:08Z</time>
      </trkpt>
      <trkpt lat="47.98892" lon="7.12433">
        <ele>1074</ele>
        <time>2019-05-07T01:25:08Z</time>
      </trkpt>
      <trkpt lat="47.98926" lon="7.12389">
        <ele>1074</ele>
        <time>2019-05-07T01:26:08Z</time>
      </trkpt>
      <trkpt lat="47.98942" lon="7.12386">
        <ele>1074</ele>
        <time>2019-05-07T01:27:08Z</time>
      </trkpt>
      <trkpt lat="47.98938" lon="7.12395">
        <ele>1073</ele>
        <time>2019-05-07T01:28:08Z</time>
      </trkpt>
      <trkpt lat="47.98919" lon="7.12406">
        <ele>1073</ele>
        <time>2019-05-07T01:29:08Z</time>
      </trkpt>
      <trkpt lat="47.98906" lon="7.12424">
        <ele>1073</ele>
        <time>2019-05-07T01:30:08Z</time>
      </trkpt>
      <trkpt lat="47.98882" lon="7.1245">
        <ele>1074</ele>
        <time>2019-05-07T01:31:08Z</time>
      </trkpt>
      <trkpt lat="47.98874" lon="7.12481">
        <ele>1072</ele>
        <time>2019-05-07T01:32:08Z</time>
      </trkpt>
      <trkpt lat="47.98857" lon="7.12596">
        <ele>1059</ele>
        <time>2019-05-07T01:33:08Z</time>
      </trkpt>
      <trkpt lat="47.98838" lon="7.12646">
        <ele>1060</ele>
        <time>2019-05-07T01:34:08Z</time>
      </trkpt>
      <trkpt lat="47.98837" lon="7.12666">
        <ele>1059</ele>
        <time>2019-05-07T01:35:08Z</time>
      </trkpt>
      <trkpt lat="47.98845" lon="7.12667">
        <ele>1058</ele>
        <time>2019-05-07T01:36:08Z</time>
      </trkpt>
      <trkpt lat="47.98866" lon="7.12682">
        <ele>1055</ele>
        <time>2019-05-07T01:37:08Z</time>
      </trkpt>
      <trkpt lat="47.98896" lon="7.12699">
        <ele>1050</ele>
        <time>2019-05-07T01:38:08Z</time>
      </trkpt>
      <trkpt lat="47.98981" lon="7.12786">
        <ele>1042</ele>
        <time>2019-05-07T01:39:08Z</time>
      </trkpt>
      <trkpt lat="47.99056" lon="7.12848">
        <ele>1029</ele>
        <time>2019-05-07T01:40:08Z</time>
      </trkpt>
      <trkpt lat="47.992" lon="7.13009">
        <ele>1015</ele>
        <time>2019-05-07T01:41:08Z</time>
      </trkpt>
      <trkpt lat="47.99225" lon="7.13049">
        <ele>1014</ele>
        <time>2019-05-07T01:42:08Z</time>
      </trkpt>
      <trkpt lat="47.99233" lon="7.1308">
        <ele>1013</ele>
        <time>2019-05-07T01:43:08Z</time>
      </trkpt>
      <trkpt lat="47.99243" lon="7.13083">
        <ele>1012</ele>
        <time>2019-05-07T01:44:08Z</time>
      </trkpt>
      <trkpt lat="47.99253" lon="7.13054">
        <ele>1012</ele>
        <time>2019-05-07T01:45:08Z</time>
      </trkpt>
      <trkpt lat="47.99266" lon="7.12966">
        <ele>1007</ele>
        <time>2019-05-07T01:46:08Z</time>
      </trkpt>
      <trkpt lat="47.99289" lon="7.12937">
        <ele>1003</ele>
        <time>2019-05-07T01:47:08Z</time>
      </trkpt>
      <trkpt lat="47.99294" lon="7.12914">
        <ele>1000</ele>
        <time>2019-05-07T01:48:08Z</time>
      </trkpt>
      <trkpt lat="47.99308" lon="7.12893">
        <ele>997</ele>
        <time>2019-05-07T01:49:08Z</time>
      </trkpt>
      <trkpt lat="47.9939" lon="7.12863">
        <ele>989</ele>
        <time>2019-05-07T01:50:08Z</time>
      </trkpt>
      <trkpt lat="47.99445" lon="7.12866">
        <ele>985</ele>
        <time>2019-05-07T01:51:08Z</time>
      </trkpt>
      <trkpt lat="47.99579" lon="7.12893">
        <ele>970</ele>
        <time>2019-05-07T01:52:08Z</time>
      </trkpt>
      <trkpt lat="47.99646" lon="7.12885">
        <ele>959</ele>
        <time>2019-05-07T01:53:08Z</time>
      </trkpt>
      <trkpt lat="47.99683" lon="7.12871">
        <ele>952</ele>
        <time>2019-05-07T01:54:08Z</time>
      </trkpt>
      <trkpt lat="47.99673" lon="7.1288">
        <ele>954</ele>
        <time>2019-05-07T01:55:08Z</time>
      </trkpt>
      <trkpt lat="47.99671" lon="7.12894">
        <ele>956</ele>
        <time>2019-05-07T01:56:08Z</time>
      </trkpt>
      <trkpt lat="47.99679" lon="7.12904">
        <ele>956</ele>
        <time>2019-05-07T01:57:08Z</time>
      </trkpt>
      <trkpt lat="47.99712" lon="7.12917">
        <ele>956</ele>
        <time>2019-05-07T01:58:08Z</time>
      </trkpt>
      <trkpt lat="47.9974" lon="7.12934">
        <ele>958</ele>
        <time>2019-05-07T01:59:08Z</time>
      </trkpt>
      <trkpt lat="47.99748" lon="7.12926">
        <ele>955</ele>
        <time>2019-05-07T02:00:08Z</time>
      </trkpt>
      <trkpt lat="47.99749" lon="7.12913">
        <ele>952</ele>
        <time>2019-05-07T02:01:08Z</time>
      </trkpt>
      <trkpt lat="47.99748" lon="7.129">
        <ele>950</ele>
        <time>2019-05-07T02:02:08Z</time>
      </trkpt>
      <trkpt lat="47.99741" lon="7.12892">
        <ele>949</ele>
        <time>2019-05-07T02:03:08Z</time>
      </trkpt>
      <trkpt lat="47.99748" lon="7.1289">
        <ele>948</ele>
        <time>2019-05-07T02:04:08Z</time>
      </trkpt>
      <trkpt lat="47.99756" lon="7.12861">
        <ele>943</ele>
        <time>2019-05-07T02:05:08Z</time>
      </trkpt>
      <trkpt lat="47.99785" lon="7.12827">
        <ele>936</ele>
        <time>2019-05-07T02:06:08Z</time>
      </trkpt>
      <trkpt lat="47.99801" lon="7.1281">
        <ele>933</ele>
        <time>2019-05-07T02:07:08Z</time>
      </trkpt>
      <trkpt lat="47.99847" lon="7.128">
        <ele>926</ele>
        <time>2019-05-07T02:08:08Z</time>
      </trkpt>
      <trkpt lat="47.99855" lon="7.12803">
        <ele>925</ele>
        <time>2019-05-07T02:09:08Z</time>
      </trkpt>
      <trkpt lat="47.99862" lon="7.12807">
        <ele>924</ele>
        <time>2019-05-07T02:10:08Z</time>
      </trkpt>
      <trkpt lat="47.99875" lon="7.12822">
        <ele>924</ele>
        <time>2019-05-07T02:11:08Z</time>
      </trkpt>
      <trkpt lat="47.9996" lon="7.12897">
        <ele>922</ele>
        <time>2019-05-07T02:12:08Z</time>
      </trkpt>
      <trkpt lat="48.00005" lon="7.12948">
        <ele>919</ele>
        <time>2019-05-07T02:13:08Z</time>
      </trkpt>
      <trkpt lat="48.00084" lon="7.13059">
        <ele>917</ele>
        <time>2019-05-07T02:14:08Z</time>
      </trkpt>
      <trkpt lat="48.00119" lon="7.13097">
        <ele>912</ele>
        <time>2019-05-07T02:15:08Z</time>
      </trkpt>
      <trkpt lat="48.00139" lon="7.13133">
        <ele>911</ele>
        <time>2019-05-07T02:16:08Z</time>
      </trkpt>
      <trkpt lat="48.00153" lon="7.13149">
        <ele>910</ele>
        <time>2019-05-07T02:17:08Z</time>
      </trkpt>
      <trkpt lat="48.00167" lon="7.13179">
        <ele>911</ele>
        <time>2019-05-07T02:18:08Z</time>
      </trkpt>
      <trkpt lat="48.00187" lon="7.13208">
        <ele>910</ele>
        <time>2019-05-07T02:19:08Z</time>
      </trkpt>
      <trkpt lat="48.00232" lon="7.13258">
        <ele>905</ele>
        <time>2019-05-07T02:20:08Z</time>
      </trkpt>
      <trkpt lat="48.00272" lon="7.13297">
        <ele>903</ele>
        <time>2019-05-07T02:21:08Z</time>
      </trkpt>
      <trkpt lat="48.00314" lon="7.13331">
        <ele>897</ele>
        <time>2019-05-07T02:22:08Z</time>
      </trkpt>
      <trkpt lat="48.00339" lon="7.13364">
        <ele>895</ele>
        <time>2019-05-07T02:23:08Z</time>
      </trkpt>
      <trkpt lat="48.00359" lon="7.13383">
        <ele>895</ele>
        <time>2019-05-07T02:24:08Z</time>
      </trkpt>
      <trkpt lat="48.00369" lon="7.13397">
        <ele>896</ele>
        <time>2019-05-07T02:25:08Z</time>
      </trkpt>
      <trkpt lat="48.00374" lon="7.13423">
        <ele>897</ele>
        <time>2019-05-07T02:26:08Z</time>
      </trkpt>
      <trkpt lat="48.0042" lon="7.13449">
        <ele>895</ele>
        <time>2019-05-07T02:27:08Z</time>
      </trkpt>
      <trkpt lat="48.00433" lon="7.13442">
        <ele>893</ele>
        <time>2019-05-07T02:28:08Z</time>
      </trkpt>
      <trkpt lat="48.00485" lon="7.13475">
        <ele>891</ele>
        <time>2019-05-07T02:29:08Z</time>
      </trkpt>
      <trkpt lat="48.00525" lon="7.13486">
        <ele>890</ele>
        <time>2019-05-07T02:30:08Z</time>
      </trkpt>
      <trkpt lat="48.0056" lon="7.13483">
        <ele>891</ele>
        <time>2019-05-07T02:31:08Z</time>
      </trkpt>
      <trkpt lat="48.00593" lon="7.13473">
        <ele>892</ele>
        <time>2019-05-07T02:32:08Z</time>
      </trkpt>
      <trkpt lat="48.00598" lon="7.13481">
        <ele>893</ele>
        <time>2019-05-07T02:33:08Z</time>
      </trkpt>
      <trkpt lat="48.00607" lon="7.13477">
        <ele>895</ele>
        <time>2019-05-07T02:34:08Z</time>
      </trkpt>
      <trkpt lat="48.00615" lon="7.13479">
        <ele>896</ele>
        <time>2019-05-07T02:35:08Z</time>
      </trkpt>
      <trkpt lat="48.00629" lon="7.13491">
        <ele>900</ele>
        <time>2019-05-07T02:36:08Z</time>
      </trkpt>
      <trkpt lat="48.00645" lon="7.13527">
        <ele>903</ele>
        <time>2019-05-07T02:37:08Z</time>
      </trkpt>
      <trkpt lat="48.00649" lon="7.13554">
        <ele>904</ele>
        <time>2019-05-07T02:38:08Z</time>
      </trkpt>
      <trkpt lat="48.00648" lon="7.13578">
        <ele>904</ele>
        <time>2019-05-07T02:39:08Z</time>
      </trkpt>
      <trkpt lat="48.00664" lon="7.13629">
        <ele>907</ele>
        <time>2019-05-07T02:40:08Z</time>
      </trkpt>
      <trkpt lat="48.00661" lon="7.137">
        <ele>908</ele>
        <time>2019-05-07T02:41:08Z</time>
      </trkpt>
      <trkpt lat="48.00667" lon="7.13707">
        <ele>908</ele>
        <time>2019-05-07T02:42:08Z</time>
      </trkpt>
      <trkpt lat="48.00702" lon="7.1369">
        <ele>905</ele>
        <time>2019-05-07T02:43:08Z</time>
      </trkpt>
      <trkpt lat="48.00732" lon="7.13666">
        <ele>902</ele>
        <time>2019-05-07T02:44:08Z</time>
      </trkpt>
      <trkpt lat="48.00748" lon="7.13649">
        <ele>903</ele>
        <time>2019-05-07T02:45:08Z</time>
      </trkpt>
      <trkpt lat="48.00757" lon="7.13627">
        <ele>904</ele>
        <time>2019-05-07T02:46:08Z</time>
      </trkpt>
      <trkpt lat="48.00763" lon="7.13621">
        <ele>904</ele>
        <time>2019-05-07T02:47:08Z</time>
      </trkpt>
      <trkpt lat="48.0078" lon="7.13613">
        <ele>904</ele>
        <time>2019-05-07T02:48:08Z</time>
      </trkpt>
      <trkpt lat="48.00846" lon="7.1365">
        <ele>896</ele>
        <time>2019-05-07T02:49:08Z</time>
      </trkpt>
      <trkpt lat="48.00891" lon="7.1369">
        <ele>887</ele>
        <time>2019-05-07T02:50:08Z</time>
      </trkpt>
      <trkpt lat="48.00924" lon="7.13731">
        <ele>880</ele>
        <time>2019-05-07T02:51:08Z</time>
      </trkpt>
      <trkpt lat="48.00955" lon="7.13751">
        <ele>878</ele>
        <time>2019-05-07T02:52:08Z</time>
      </trkpt>
      <trkpt lat="48.00982" lon="7.13742">
        <ele>877</ele>
        <time>2019-05-07T02:53:08Z</time>
      </trkpt>
      <trkpt lat="48.01017" lon="7.13754">
        <ele>875</ele>
        <time>2019-05-07T02:54:08Z</time>
      </trkpt>
      <trkpt lat="48.01066" lon="7.13783">
        <ele>869</ele>
        <time>2019-05-07T02:55:08Z</time>
      </trkpt>
      <trkpt lat="48.01097" lon="7.13794">
        <ele>865</ele>
        <time>2019-05-07T02:56:08Z</time>
      </trkpt>
      <trkpt lat="48.0113" lon="7.13798">
        <ele>862</ele>
        <time>2019-05-07T02:57:08Z</time>
      </trkpt>
      <trkpt lat="48.01195" lon="7.13797">
        <ele>855</ele>
        <time>2019-05-07T02:58:08Z</time>
      </trkpt>
      <trkpt lat="48.01227" lon="7.13801">
        <ele>850</ele>
        <time>2019-05-07T02:59:08Z</time>
      </trkpt>
      <trkpt lat="48.01251" lon="7.13813">
        <ele>845</ele>
        <time>2019-05-07T03:00:08Z</time>
      </trkpt>
      <trkpt lat="48.01274" lon="7.1381">
        <ele>842</ele>
        <time>2019-05-07T03:01:08Z</time>
      </trkpt>
      <trkpt lat="48.01286" lon="7.13797">
        <ele>841</ele>
        <time>2019-05-07T03:02:08Z</time>
      </trkpt>
      <trkpt lat="48.01298" lon="7.13779">
        <ele>840</ele>
        <time>2019-05-07T03:03:08Z</time>
      </trkpt>
      <trkpt lat="48.01323" lon="7.1369">
        <ele>840</ele>
        <time>2019-05-07T03:04:08Z</time>
      </trkpt>
      <trkpt lat="48.0134" lon="7.13663">
        <ele>840</ele>
        <time>2019-05-07T03:05:08Z</time>
      </trkpt>
      <trkpt lat="48.01366" lon="7.13635">
        <ele>839</ele>
        <time>2019-05-07T03:06:08Z</time>
      </trkpt>
      <trkpt lat="48.01391" lon="7.13613">
        <ele>840</ele>
        <time>2019-05-07T03:07:08Z</time>
      </trkpt>
      <trkpt lat="48.0141" lon="7.13615">
        <ele>840</ele>
        <time>2019-05-07T03:08:08Z</time>
      </trkpt>
      <trkpt lat="48.01449" lon="7.1361">
        <ele>839</ele>
        <time>2019-05-07T03:09:08Z</time>
      </trkpt>
      <trkpt lat="48.01459" lon="7.13617">
        <ele>837</ele>
        <time>2019-05-07T03:10:08Z</time>
      </trkpt>
      <trkpt lat="48.01466" lon="7.13619">
        <ele>836</ele>
        <time>2019-05-07T03:11:08Z</time>
      </trkpt>
      <trkpt lat="48.01512" lon="7.13605">
        <ele>835</ele>
        <time>2019-05-07T03:12:08Z</time>
      </trkpt>
      <trkpt lat="48.01531" lon="7.13608">
        <ele>831</ele>
        <time>2019-05-07T03:13:08Z</time>
      </trkpt>
      <trkpt lat="48.01557" lon="7.13625">
        <ele>821</ele>
        <time>2019-05-07T03:14:08Z</time>
      </trkpt>
      <trkpt lat="48.0158" lon="7.13636">
        <ele>813</ele>
        <time>2019-05-07T03:15:08Z</time>
      </trkpt>
      <trkpt lat="48.01585" lon="7.13644">
        <ele>810</ele>
        <time>2019-05-07T03:16:08Z</time>
      </trkpt>
      <trkpt lat="48.01597" lon="7.1365">
        <ele>809</ele>
        <time>2019-05-07T03:17:08Z</time>
      </trkpt>
      <trkpt lat="48.01612" lon="7.13636">
        <ele>812</ele>
        <time>2019-05-07T03:18:08Z</time>
      </trkpt>
      <trkpt lat="48.01639" lon="7.13621">
        <ele>815</ele>
        <time>2019-05-07T03:19:08Z</time>
      </trkpt>
      <trkpt lat="48.0167" lon="7.13618">
        <ele>813</ele>
        <time>2019-05-07T03:20:08Z</time>
      </trkpt>
      <trkpt lat="48.01717" lon="7.13603">
        <ele>810</ele>
        <time>2019-05-07T03:21:08Z</time>
      </trkpt>
      <trkpt lat="48.01742" lon="7.1357">
        <ele>809</ele>
        <time>2019-05-07T03:22:08Z</time>
      </trkpt>
      <trkpt lat="48.01785" lon="7.13522">
        <ele>807</ele>
        <time>2019-05-07T03:23:08Z</time>
      </trkpt>
      <trkpt lat="48.01804" lon="7.13518">
        <ele>805</ele>
        <time>2019-05-07T03:24:08Z</time>
      </trkpt>
      <trkpt lat="48.0185" lon="7.13521">
        <ele>800</ele>
        <time>2019-05-07T03:25:08Z</time>
      </trkpt>
      <trkpt lat="48.01869" lon="7.13514">
        <ele>800</ele>
        <time>2019-05-07T03:26:08Z</time>
      </trkpt>
      <trkpt lat="48.01878" lon="7.13506">
        <ele>800</ele>
        <time>2019-05-07T03:27:08Z</time>
      </trkpt>
      <trkpt lat="48.0188" lon="7.13495">
        <ele>801</ele>
        <time>2019-05-07T03:28:08Z</time>
      </trkpt>
      <trkpt lat="48.01888" lon="7.13486">
        <ele>801</ele>
        <time>2019-05-07T03:29:08Z</time>
      </trkpt>
      <trkpt lat="48.01897" lon="7.13484">
        <ele>801</ele>
        <time>2019-05-07T03:30:08Z</time>
      </trkpt>
      <trkpt lat="48.01909" lon="7.13485">
        <ele>801</ele>
        <time>2019-05-07T03:31:08Z</time>
      </trkpt>
      <trkpt lat="48.0193" lon="7.13497">
        <ele>801</ele>
        <time>2019-05-07T03:32:08Z</time>
      </trkpt>
      <trkpt lat="48.01976" lon="7.13512">
        <ele>801</ele>
        <time>2019-05-07T03:33:08Z</time>
      </trkpt>
      <trkpt lat="48.02017" lon="7.13517">
        <ele>799</ele>
        <time>2019-05-07T03:34:08Z</time>
      </trkpt>
      <trkpt lat="48.02048" lon="7.13513">
        <ele>795</ele>
        <time>2019-05-07T03:35:08Z</time>
      </trkpt>
      <trkpt lat="48.02149" lon="7.13476">
        <ele>783</ele>
        <time>2019-05-07T03:36:08Z</time>
      </trkpt>
      <trkpt lat="48.02176" lon="7.1348">
        <ele>779</ele>
        <time>2019-05-07T03:37:08Z</time>
      </trkpt>
      <trkpt lat="48.02195" lon="7.13469">
        <ele>777</ele>
        <time>2019-05-07T03:38:08Z</time>
      </trkpt>
      <trkpt lat="48.02205" lon="7.13469">
        <ele>775</ele>
        <time>2019-05-07T03:39:08Z</time>
      </trkpt>
      <trkpt lat="48.02203" lon="7.1348">
        <ele>774</ele>
        <time>2019-05-07T03:40:08Z</time>
      </trkpt>
      <trkpt lat="48.02184" lon="7.13501">
        <ele>775</ele>
        <time>2019-05-07T03:41:08Z</time>
      </trkpt>
      <trkpt lat="48.02175" lon="7.13549">
        <ele>769</ele>
        <time>2019-05-07T03:42:08Z</time>
      </trkpt>
      <trkpt lat="48.02179" lon="7.13592">
        <ele>762</ele>
        <time>2019-05-07T03:43:08Z</time>
      </trkpt>
      <trkpt lat="48.02176" lon="7.13668">
        <ele>755</ele>
        <time>2019-05-07T03:44:08Z</time>
      </trkpt>
      <trkpt lat="48.02167" lon="7.13703">
        <ele>750</ele>
        <time>2019-05-07T03:45:08Z</time>
      </trkpt>
      <trkpt lat="48.02174" lon="7.13739">
        <ele>742</ele>
        <time>2019-05-07T03:46:08Z</time>
      </trkpt>
      <trkpt lat="48.02186" lon="7.13743">
        <ele>740</ele>
        <time>2019-05-07T03:47:08Z</time>
      </trkpt>
      <trkpt lat="48.0221" lon="7.13728">
        <ele>739</ele>
        <time>2019-05-07T03:48:08Z</time>
      </trkpt>
      <trkpt lat="48.0221" lon="7.13767">
        <ele>734</ele>
        <time>2019-05-07T03:49:08Z</time>
      </trkpt>
      <trkpt lat="48.02207" lon="7.13797">
        <ele>730</ele>
        <time>2019-05-07T03:50:08Z</time>
      </trkpt>
      <trkpt lat="48.02198" lon="7.13811">
        <ele>729</ele>
        <time>2019-05-07T03:51:08Z</time>
      </trkpt>
      <trkpt lat="48.02192" lon="7.13835">
        <ele>726</ele>
        <time>2019-05-07T03:52:08Z</time>
      </trkpt>
      <trkpt lat="48.02214" lon="7.13875">
        <ele>718</ele>
        <time>2019-05-07T03:53:08Z</time>
      </trkpt>
      <trkpt lat="48.02233" lon="7.13896">
        <ele>714</ele>
        <time>2019-05-07T03:54:08Z</time>
      </trkpt>
      <trkpt lat="48.02224" lon="7.13924">
        <ele>709</ele>
        <time>2019-05-07T03:55:08Z</time>
      </trkpt>
      <trkpt lat="48.02233" lon="7.13924">
        <ele>709</ele>
        <time>2019-05-07T03:56:08Z</time>
      </trkpt>
      <trkpt lat="48.02241" lon="7.13921">
        <ele>710</ele>
        <time>2019-05-07T03:57:08Z</time>
      </trkpt>
      <trkpt lat="48.0227" lon="7.13926">
        <ele>705</ele>
        <time>2019-05-07T03:58:08Z</time>
      </trkpt>
      <trkpt lat="48.02301" lon="7.13939">
        <ele>696</ele>
        <time>2019-05-07T03:59:08Z</time>
      </trkpt>
      <trkpt lat="48.02342" lon="7.13942">
        <ele>687</ele>
        <time>2019-05-07T04:00:08Z</time>
      </trkpt>
      <trkpt lat="48.02371" lon="7.13949">
        <ele>680</ele>
        <time>2019-05-07T04:01:08Z</time>
      </trkpt>
      <trkpt lat="48.02402" lon="7.13966">
        <ele>672</ele>
        <time>2019-05-07T04:02:08Z</time>
      </trkpt>
      <trkpt lat="48.02458" lon="7.13977">
        <ele>658</ele>
        <time>2019-05-07T04:03:08Z</time>
      </trkpt>
      <trkpt lat="48.02516" lon="7.13981">
        <ele>644</ele>
        <time>2019-05-07T04:04:08Z</time>
      </trkpt>
      <trkpt lat="48.02553" lon="7.14016">
        <ele>633</ele>
        <time>2019-05-07T04:05:08Z</time>
      </trkpt>
      <trkpt lat="48.02573" lon="7.14017">
        <ele>627</ele>
        <time>2019-05-07T04:06:08Z</time>
      </trkpt>
      <trkpt lat="48.02597" lon="7.14031">
        <ele>618</ele>
        <time>2019-05-07T04:07:08Z</time>
      </trkpt>
      <trkpt lat="48.02621" lon="7.14036">
        <ele>610</ele>
        <time>2019-05-07T04:08:08Z</time>
      </trkpt>
      <trkpt lat="48.02647" lon="7.14066">
        <ele>599</ele>
        <time>2019-05-07T04:09:08Z</time>
      </trkpt>
      <trkpt lat="48.02675" lon="7.14089">
        <ele>588</ele>
        <time>2019-05-07T04:10:08Z</time>
      </trkpt>
      <trkpt lat="48.0268" lon="7.14114">
        <ele>582</ele>
        <time>2019-05-07T04:11:08Z</time>
      </trkpt>
      <trkpt lat="48.027" lon="7.14135">
        <ele>574</ele>
        <time>2019-05-07T04:12:08Z</time>
      </trkpt>
      <trkpt lat="48.02706" lon="7.14156">
        <ele>570</ele>
        <time>2019-05-07T04:13:08Z</time>
      </trkpt>
      <trkpt lat="48.02718" lon="7.14157">
        <ele>568</ele>
        <time>2019-05-07T04:14:08Z</time>
      </trkpt>
      <trkpt lat="48.0274" lon="7.14125">
        <ele>566</ele>
        <time>2019-05-07T04:15:08Z</time>
      </trkpt>
      <trkpt lat="48.02791" lon="7.14089">
        <ele>554</ele>
        <time>2019-05-07T04:16:08Z</time>
      </trkpt>
      <trkpt lat="48.02812" lon="7.14079">
        <ele>548</ele>
        <time>2019-05-07T04:17:08Z</time>
      </trkpt>
      <trkpt lat="48.02871" lon="7.14094">
        <ele>534</ele>
        <time>2019-05-07T04:18:08Z</time>
      </trkpt>
      <trkpt lat="48.02901" lon="7.14083">
        <ele>529</ele>
        <time>2019-05-07T04:19:08Z</time>
      </trkpt>
      <trkpt lat="48.02931" lon="7.1408">
        <ele>525</ele>
        <time>2019-05-07T04:20:08Z</time>
      </trkpt>
      <trkpt lat="48.02965" lon="7.14061">
        <ele>520</ele>
        <time>2019-05-07T04:21:08Z</time>
      </trkpt>
      <trkpt lat="48.02996" lon="7.14053">
        <ele>515</ele>
        <time>2019-05-07T04:22:08Z</time>
      </trkpt>
      <trkpt lat="48.03051" lon="7.14055">
        <ele>507</ele>
        <time>2019-05-07T04:23:08Z</time>
      </trkpt>
      <trkpt lat="48.03082" lon="7.14046">
        <ele>500</ele>
        <time>2019-05-07T04:24:08Z</time>
      </trkpt>
      <trkpt lat="48.03133" lon="7.14042">
        <ele>485</ele>
        <time>2019-05-07T04:25:08Z</time>
      </trkpt>
      <trkpt lat="48.0315" lon="7.14034">
        <ele>480</ele>
        <time>2019-05-07T04:26:08Z</time>
      </trkpt>
      <trkpt lat="48.03166" lon="7.14036">
        <ele>476</ele>
        <time>2019-05-07T04:27:08Z</time>
      </trkpt>
      <trkpt lat="48.03232" lon="7.14035">
        <ele>463</ele>
        <time>2019-05-07T04:28:08Z</time>
      </trkpt>
      <trkpt lat="48.03257" lon="7.14016">
        <ele>458</ele>
        <time>2019-05-07T04:29:08Z</time>
      </trkpt>
      <trkpt lat="48.03279" lon="7.13981">
        <ele>454</ele>
        <time>2019-05-07T04:30:08Z</time>
      </trkpt>
      <trkpt lat="48.03312" lon="7.13963">
        <ele>449</ele>
        <time>2019-05-07T04:31:08Z</time>
      </trkpt>
      <trkpt lat="48.03368" lon="7.13923">
        <ele>435</ele>
        <time>2019-05-07T04:32:08Z</time>
      </trkpt>
      <trkpt lat="48.0339" lon="7.13916">
        <ele>430</ele>
        <time>2019-05-07T04:33:08Z</time>
      </trkpt>
      <trkpt lat="48.03407" lon="7.13926">
        <ele>429</ele>
        <time>2019-05-07T04:34:08Z</time>
      </trkpt>
      <trkpt lat="48.03418" lon="7.13924">
        <ele>427</ele>
        <time>2019-05-07T04:35:08Z</time>
      </trkpt>
      <trkpt lat="48.03436" lon="7.13931">
        <ele>423</ele>
        <time>2019-05-07T04:36:08Z</time>
      </trkpt>
      <trkpt lat="48.03454" lon="7.13933">
        <ele>419</ele>
        <time>2019-05-07T04:37:08Z</time>
      </trkpt>
      <trkpt lat="48.03539" lon="7.13968">
        <ele>401</ele>
        <time>2019-05-07T04:38:08Z</time>
      </trkpt>
      <trkpt lat="48.03571" lon="7.13975">
        <ele>396</ele>
        <time>2019-05-07T04:39:08Z</time>
      </trkpt>
      <trkpt lat="48.03603" lon="7.13995">
        <ele>391</ele>
        <time>2019-05-07T04:40:08Z</time>
      </trkpt>
      <trkpt lat="48.03637" lon="7.14005">
        <ele>387</ele>
        <time>2019-05-07T04:41:08Z</time>
      </trkpt>
      <trkpt lat="48.0368" lon="7.1401">
        <ele>382</ele>
        <time>2019-05-07T04:42:08Z</time>
      </trkpt>
      <trkpt lat="48.03704" lon="7.14041">
        <ele>380</ele>
        <time>2019-05-07T04:43:08Z</time>
      </trkpt>
      <trkpt lat="48.03727" lon="7.14087">
        <ele>377</ele>
        <time>2019-05-07T04:44:08Z</time>
      </trkpt>
      <trkpt lat="48.03801" lon="7.14055">
        <ele>374</ele>
        <time>2019-05-07T04:45:08Z</time>
      </trkpt>
      <trkpt lat="48.0381" lon="7.14053">
        <ele>374</ele>
        <time>2019-05-07T04:46:08Z</time>
      </trkpt>
      <trkpt lat="48.03819" lon="7.14047">
        <ele>373</ele>
        <time>2019-05-07T04:47:08Z</time>
      </trkpt>
      <trkpt lat="48.03884" lon="7.14029">
        <ele>373</ele>
        <time>2019-05-07T04:48:08Z</time>
      </trkpt>
      <trkpt lat="48.03919" lon="7.14016">
        <ele>374</ele>
        <time>2019-05-07T04:49:08Z</time>
      </trkpt>
      <trkpt lat="48.03931" lon="7.14008">
        <ele>374</ele>
        <time>2019-05-07T04:50:08Z</time>
      </trkpt>
      <trkpt lat="48.03939" lon="7.14008">
        <ele>374</ele>
        <time>2019-05-07T04:51:08Z</time>
      </trkpt>
      <trkpt lat="48.03948" lon="7.14004">
        <ele>374</ele>
        <time>2019-05-07T04:52:08Z</time>
      </trkpt>
      <trkpt lat="48.03958" lon="7.13993">
        <ele>374</ele>
        <time>2019-05-07T04:53:08Z</time>
      </trkpt>
      <trkpt lat="48.03971" lon="7.13986">
        <ele>374</ele>
        <time>2019-05-07T04:54:08Z</time>
      </trkpt>
      <trkpt lat="48.03998" lon="7.13978">
        <ele>374</ele>
        <time>2019-05-07T04:55:08Z</time>
      </trkpt>
      <trkpt lat="48.04047" lon="7.13956">
        <ele>377</ele>
        <time>2019-05-07T04:56:08Z</time>
      </trkpt>
      <trkpt lat="48.0407" lon="7.13954">
        <ele>378</ele>
        <time>2019-05-07T04:57:08Z</time>
      </trkpt>
      <trkpt lat="48.04077" lon="7.13966">
        <ele>378</ele>
        <time>2019-05-07T04:58:08Z</time>
      </trkpt>
      <trkpt lat="48.04075" lon="7.1399">
        <ele>378</ele>
        <time>2019-05-07T04:59:08Z</time>
      </trkpt>
      <trkpt lat="48.04079" lon="7.14005">
        <ele>378</ele>
        <time>2019-05-07T05:00:08Z</time>
      </trkpt>
      <trkpt lat="48.04086" lon="7.14007">
        <ele>378</ele>
        <time>2019-05-07T05:01:08Z</time>
      </trkpt>
      <trkpt lat="48.04096" lon="7.14003">
        <ele>378</ele>
        <time>2019-05-07T05:02:08Z</time>
      </trkpt>
      <trkpt lat="48.04128" lon="7.13998">
        <ele>377</ele>
        <time>2019-05-07T05:03:08Z</time>
      </trkpt>
      <trkpt lat="48.04143" lon="7.14002">
        <ele>377</ele>
        <time>2019-05-07T05:04:08Z</time>
      </trkpt>
      <trkpt lat="48.04153" lon="7.14011">
        <ele>376</ele>
        <time>2019-05-07T05:05:08Z</time>
      </trkpt>
      <trkpt lat="48.04165" lon="7.14015">
        <ele>376</ele>
        <time>2019-05-07T05:06:08Z</time>
      </trkpt>
      <trkpt lat="48.04171" lon="7.1403">
        <ele>377</ele>
        <time>2019-05-07T05:07:08Z</time>
      </trkpt>
      <trkpt lat="48.0417" lon="7.14044">
        <ele>377</ele>
        <time>2019-05-07T05:08:08Z</time>
      </trkpt>
      <trkpt lat="48.04176" lon="7.14064">
        <ele>378</ele>
        <time>2019-05-07T05:09:08Z</time>
      </trkpt>
      <trkpt lat="48.04212" lon="7.14082">
        <ele>386</ele>
        <time>2019-05-07T05:10:08Z</time>
      </trkpt>
      <trkpt lat="48.04219" lon="7.14088">
        <ele>387</ele>
        <time>2019-05-07T05:11:08Z</time>
      </trkpt>
      <trkpt lat="48.04244" lon="7.14096">
        <ele>392</ele>
        <time>2019-05-07T05:12:08Z</time>
      </trkpt>
      <trkpt lat="48.04243" lon="7.14109">
        <ele>392</ele>
        <time>2019-05-07T05:13:08Z</time>
      </trkpt>
      <trkpt lat="48.04254" lon="7.14141">
        <ele>394</ele>
        <time>2019-05-07T05:14:08Z</time>
      </trkpt>
      <trkpt lat="48.04259" lon="7.14178">
        <ele>395</ele>
        <time>2019-05-07T05:15:08Z</time>
      </trkpt>
      <trkpt lat="48.04267" lon="7.14141">
        <ele>400</ele>
        <time>2019-05-07T05:16:08Z</time>
      </trkpt>
      <trkpt lat="48.04275" lon="7.14145">
        <ele>404</ele>
        <time>2019-05-07T05:17:08Z</time>
      </trkpt>
      <trkpt lat="48.04281" lon="7.14124">
        <ele>407</ele>
        <time>2019-05-07T05:18:08Z</time>
      </trkpt>
      <trkpt lat="48.04287" lon="7.14133">
        <ele>410</ele>
        <time>2019-05-07T05:19:08Z</time>
      </trkpt>
      <trkpt lat="48.04286" lon="7.14146">
        <ele>409</ele>
        <time>2019-05-07T05:20:08Z</time>
      </trkpt>
      <trkpt lat="48.0429" lon="7.14156">
        <ele>411</ele>
        <time>2019-05-07T05:21:08Z</time>
      </trkpt>
      <trkpt lat="48.04295" lon="7.14145">
        <ele>413</ele>
        <time>2019-05-07T05:22:08Z</time>
      </trkpt>
      <trkpt lat="48.04301" lon="7.14109">
        <ele>417</ele>
        <time>2019-05-07T05:23:08Z</time>
      </trkpt>
      <trkpt lat="48.04299" lon="7.14097">
        <ele>417</ele>
        <time>2019-05-07T05:24:08Z</time>
      </trkpt>
      <trkpt lat="48.04314" lon="7.14083">
        <ele>424</ele>
        <time>2019-05-07T05:25:08Z</time>
      </trkpt>
      <trkpt lat="48.04322" lon="7.14063">
        <ele>427</ele>
        <time>2019-05-07T05:26:08Z</time>
      </trkpt>
      <trkpt lat="48.04335" lon="7.14016">
        <ele>429</ele>
        <time>2019-05-07T05:27:08Z</time>
      </trkpt>
      <trkpt lat="48.04343" lon="7.14009">
        <ele>431</ele>
        <time>2019-05-07T05:28:08Z</time>
      </trkpt>
      <trkpt lat="48.04351" lon="7.1401">
        <ele>434</ele>
        <time>2019-05-07T05:29:08Z</time>
      </trkpt>
      <trkpt lat="48.04369" lon="7.13995">
        <ele>438</ele>
        <time>2019-05-07T05:30:08Z</time>
      </trkpt>
      <trkpt lat="48.04375" lon="7.13987">
        <ele>438</ele>
        <time>2019-05-07T05:31:08Z</time>
      </trkpt>
      <trkpt lat="48.04381" lon="7.13998">
        <ele>442</ele>
        <time>2019-05-07T05:32:08Z</time>
      </trkpt>
      <trkpt lat="48.04388" lon="7.14002">
        <ele>445</ele>
        <time>2019-05-07T05:33:08Z</time>
      </trkpt>
      <trkpt lat="48.04391" lon="7.14023">
        <ele>447</ele>
        <time>2019-05-07T05:34:08Z</time>
      </trkpt>
      <trkpt lat="48.04399" lon="7.14026">
        <ele>450</ele>
        <time>2019-05-07T05:35:08Z</time>
      </trkpt>
      <trkpt lat="48.04407" lon="7.14022">
        <ele>452</ele>
        <time>2019-05-07T05:36:08Z</time>
      </trkpt>
      <trkpt lat="48.04414" lon="7.14025">
        <ele>454</ele>
        <time>2019-05-07T05:37:08Z</time>
      </trkpt>
      <trkpt lat="48.04421" lon="7.14034">
        <ele>456</ele>
        <time>2019-05-07T05:38:08Z</time>
      </trkpt>
      <trkpt lat="48.04435" lon="7.14042">
        <ele>459</ele>
        <time>2019-05-07T05:39:08Z</time>
      </trkpt>
      <trkpt lat="48.0446" lon="7.14049">
        <ele>462</ele>
        <time>2019-05-07T05:40:08Z</time>
      </trkpt>
      <trkpt lat="48.0447" lon="7.14049">
        <ele>463</ele>
        <time>2019-05-07T05:41:08Z</time>
      </trkpt>
      <trkpt lat="48.04488" lon="7.14041">
        <ele>465</ele>
        <time>2019-05-07T05:42:08Z</time>
      </trkpt>
      <trkpt lat="48.04508" lon="7.14037">
        <ele>467</ele>
        <time>2019-05-07T05:43:08Z</time>
      </trkpt>
      <trkpt lat="48.04517" lon="7.14038">
        <ele>469</ele>
        <time>2019-05-07T05:44:08Z</time>
      </trkpt>
      <trkpt lat="48.04544" lon="7.14053">
        <ele>475</ele>
        <time>2019-05-07T05:45:08Z</time>
      </trkpt>
      <trkpt lat="48.04574" lon="7.14046">
        <ele>480</ele>
        <time>2019-05-07T05:46:08Z</time>
      </trkpt>
      <trkpt lat="48.04617" lon="7.14009">
        <ele>489</ele>
        <time>2019-05-07T05:47:08Z</time>
      </trkpt>
      <trkpt lat="48.04647" lon="7.13991">
        <ele>494</ele>
        <time>2019-05-07T05:48:08Z</time>
      </trkpt>
      <trkpt lat="48.0468" lon="7.13985">
        <ele>501</ele>
        <time>2019-05-07T05:49:08Z</time>
      </trkpt>
      <trkpt lat="48.04704" lon="7.13973">
        <ele>504</ele>
        <time>2019-05-07T05:50:08Z</time>
      </trkpt>
      <trkpt lat="48.04705" lon="7.13986">
        <ele>507</ele>
        <time>2019-05-07T05:51:08Z</time>
      </trkpt>
      <trkpt lat="48.04676" lon="7.14036">
        <ele>508</ele>
        <time>2019-05-07T05:52:08Z</time>
      </trkpt>
      <trkpt lat="48.04677" lon="7.14047">
        <ele>510</ele>
        <time>2019-05-07T05:53:08Z</time>
      </trkpt>
      <trkpt lat="48.04692" lon="7.14054">
        <ele>514</ele>
        <time>2019-05-07T05:54:08Z</time>
      </trkpt>
      <trkpt lat="48.047" lon="7.14054">
        <ele>516</ele>
        <time>2019-05-07T05:55:08Z</time>
      </trkpt>
      <trkpt lat="48.04715" lon="7.1405">
        <ele>519</ele>
        <time>2019-05-07T05:56:08Z</time>
      </trkpt>
      <trkpt lat="48.04723" lon="7.14043">
        <ele>520</ele>
        <time>2019-05-07T05:57:08Z</time>
      </trkpt>
      <trkpt lat="48.04731" lon="7.1404">
        <ele>522</ele>
        <time>2019-05-07T05:58:08Z</time>
      </trkpt>
      <trkpt lat="48.04742" lon="7.14039">
        <ele>524</ele>
        <time>2019-05-07T05:59:08Z</time>
      </trkpt>
      <trkpt lat="48.04754" lon="7.14031">
        <ele>526</ele>
        <time>2019-05-07T06:00:08Z</time>
      </trkpt>
      <trkpt lat="48.04763" lon="7.14018">
        <ele>526</ele>
        <time>2019-05-07T06:01:08Z</time>
      </trkpt>
      <trkpt lat="48.04771" lon="7.14011">
        <ele>526</ele>
        <time>2019-05-07T06:02:08Z</time>
      </trkpt>
      <trkpt lat="48.04795" lon="7.13996">
        <ele>528</ele>
        <time>2019-05-07T06:03:08Z</time>
      </trkpt>
      <trkpt lat="48.04807" lon="7.13994">
        <ele>529</ele>
        <time>2019-05-07T06:04:08Z</time>
      </trkpt>
      <trkpt lat="48.04826" lon="7.13979">
        <ele>528</ele>
        <time>2019-05-07T06:05:08Z</time>
      </trkpt>
      <trkpt lat="48.04853" lon="7.13972">
        <ele>529</ele>
        <time>2019-05-07T06:06:08Z</time>
      </trkpt>
      <trkpt lat="48.04886" lon="7.1395">
        <ele>526</ele>
        <time>2019-05-07T06:07:08Z</time>
      </trkpt>
      <trkpt lat="48.04933" lon="7.13953">
        <ele>529</ele>
        <time>2019-05-07T06:08:08Z</time>
      </trkpt>
      <trkpt lat="48.04953" lon="7.13961">
        <ele>530</ele>
        <time>2019-05-07T06:09:08Z</time>
      </trkpt>
      <trkpt lat="48.04972" lon="7.13995">
        <ele>535</ele>
        <time>2019-05-07T06:10:08Z</time>
      </trkpt>
      <trkpt lat="48.04949" lon="7.14041">
        <ele>538</ele>
        <time>2019-05-07T06:11:08Z</time>
      </trkpt>
      <trkpt lat="48.04967" lon="7.14073">
        <ele>539</ele>
        <time>2019-05-07T06:12:08Z</time>
      </trkpt>
      <trkpt lat="48.04979" lon="7.14112">
        <ele>540</ele>
        <time>2019-05-07T06:13:08Z</time>
      </trkpt>
      <trkpt lat="48.05006" lon="7.14155">
        <ele>540</ele>
        <time>2019-05-07T06:14:08Z</time>
      </trkpt>
      <trkpt lat="48.05037" lon="7.14173">
        <ele>541</ele>
        <time>2019-05-07T06:15:08Z</time>
      </trkpt>
      <trkpt lat="48.0507" lon="7.14187">
        <ele>541</ele>
        <time>2019-05-07T06:16:08Z</time>
      </trkpt>
      <trkpt lat="48.05078" lon="7.14193">
        <ele>541</ele>
        <time>2019-05-07T06:17:08Z</time>
      </trkpt>
      <trkpt lat="48.05083" lon="7.14203">
        <ele>540</ele>
        <time>2019-05-07T06:18:08Z</time>
      </trkpt>
      <trkpt lat="48.05092" lon="7.14208">
        <ele>542</ele>
        <time>2019-05-07T06:19:08Z</time>
      </trkpt>
      <trkpt lat="48.05117" lon="7.14213">
        <ele>547</ele>
        <time>2019-05-07T06:20:08Z</time>
      </trkpt>
      <trkpt lat="48.05124" lon="7.14219">
        <ele>549</ele>
        <time>2019-05-07T06:21:08Z</time>
      </trkpt>
      <trkpt lat="48.05132" lon="7.14214">
        <ele>551</ele>
        <time>2019-05-07T06:22:08Z</time>
      </trkpt>
      <trkpt lat="48.05138" lon="7.1419">
        <ele>553</ele>
        <time>2019-05-07T06:23:08Z</time>
      </trkpt>
      <trkpt lat="48.05143" lon="7.1418">
        <ele>555</ele>
        <time>2019-05-07T06:24:08Z</time>
      </trkpt>
      <trkpt lat="48.05182" lon="7.14119">
        <ele>562</ele>
        <time>2019-05-07T06:25:08Z</time>
      </trkpt>
      <trkpt lat="48.05189" lon="7.14112">
        <ele>564</ele>
        <time>2019-05-07T06:26:08Z</time>
      </trkpt>
      <trkpt lat="48.05198" lon="7.14116">
        <ele>566</ele>
        <time>2019-05-07T06:27:08Z</time>
      </trkpt>
      <trkpt lat="48.05195" lon="7.14151">
        <ele>567</ele>
        <time>2019-05-07T06:28:08Z</time>
      </trkpt>
      <trkpt lat="48.05196" lon="7.14163">
        <ele>568</ele>
        <time>2019-05-07T06:29:08Z</time>
      </trkpt>
      <trkpt lat="48.05205" lon="7.14184">
        <ele>569</ele>
        <time>2019-05-07T06:30:08Z</time>
      </trkpt>
      <trkpt lat="48.05212" lon="7.14193">
        <ele>570</ele>
        <time>2019-05-07T06:31:08Z</time>
      </trkpt>
      <trkpt lat="48.05217" lon="7.14184">
        <ele>572</ele>
        <time>2019-05-07T06:32:08Z</time>
      </trkpt>
      <trkpt lat="48.05223" lon="7.14161">
        <ele>574</ele>
        <time>2019-05-07T06:33:08Z</time>
      </trkpt>
      <trkpt lat="48.05238" lon="7.14147">
        <ele>577</ele>
        <time>2019-05-07T06:34:08Z</time>
      </trkpt>
      <trkpt lat="48.05244" lon="7.14147">
        <ele>578</ele>
        <time>2019-05-07T06:35:08Z</time>
      </trkpt>
      <trkpt lat="48.05253" lon="7.1415">
        <ele>581</ele>
        <time>2019-05-07T06:36:08Z</time>
      </trkpt>
      <trkpt lat="48.05269" lon="7.14192">
        <ele>583</ele>
        <time>2019-05-07T06:37:08Z</time>
      </trkpt>
      <trkpt lat="48.05275" lon="7.14202">
        <ele>583</ele>
        <time>2019-05-07T06:38:08Z</time>
      </trkpt>
      <trkpt lat="48.05285" lon="7.14205">
        <ele>585</ele>
        <time>2019-05-07T06:39:08Z</time>
      </trkpt>
      <trkpt lat="48.05292" lon="7.14202">
        <ele>587</ele>
        <time>2019-05-07T06:40:08Z</time>
      </trkpt>
      <trkpt lat="48.05298" lon="7.14195">
        <ele>588</ele>
        <time>2019-05-07T06:41:08Z</time>
      </trkpt>
      <trkpt lat="48.05304" lon="7.14196">
        <ele>589</ele>
        <time>2019-05-07T06:42:08Z</time>
      </trkpt>
      <trkpt lat="48.05312" lon="7.14204">
        <ele>591</ele>
        <time>2019-05-07T06:43:08Z</time>
      </trkpt>
      <trkpt lat="48.05321" lon="7.14204">
        <ele>592</ele>
        <time>2019-05-07T06:44:08Z</time>
      </trkpt>
      <trkpt lat="48.05344" lon="7.14196">
        <ele>598</ele>
        <time>2019-05-07T06:45:08Z</time>
      </trkpt>
      <trkpt lat="48.05384" lon="7.14207">
        <ele>608</ele>
        <time>2019-05-07T06:46:08Z</time>
      </trkpt>
      <trkpt lat="48.054" lon="7.14206">
        <ele>612</ele>
        <time>2019-05-07T06:47:08Z</time>
      </trkpt>
      <trkpt lat="48.05422" lon="7.1422">
        <ele>616</ele>
        <time>2019-05-07T06:48:08Z</time>
      </trkpt>
      <trkpt lat="48.05437" lon="7.14222">
        <ele>620</ele>
        <time>2019-05-07T06:49:08Z</time>
      </trkpt>
      <trkpt lat="48.05452" lon="7.14229">
        <ele>624</ele>
        <time>2019-05-07T06:50:08Z</time>
      </trkpt>
      <trkpt lat="48.05462" lon="7.14237">
        <ele>626</ele>
        <time>2019-05-07T06:51:08Z</time>
      </trkpt>
      <trkpt lat="48.05471" lon="7.1424">
        <ele>629</ele>
        <time>2019-05-07T06:52:08Z</time>
      </trkpt>
      <trkpt lat="48.05499" lon="7.14265">
        <ele>635</ele>
        <time>2019-05-07T06:53:08Z</time>
      </trkpt>
      <trkpt lat="48.05507" lon="7.14284">
        <ele>635</ele>
        <time>2019-05-07T06:54:08Z</time>
      </trkpt>
      <trkpt lat="48.0552" lon="7.14303">
        <ele>637</ele>
        <time>2019-05-07T06:55:08Z</time>
      </trkpt>
      <trkpt lat="48.05522" lon="7.14313">
        <ele>637</ele>
        <time>2019-05-07T06:56:08Z</time>
      </trkpt>
      <trkpt lat="48.05536" lon="7.14346">
        <ele>640</ele>
        <time>2019-05-07T06:57:08Z</time>
      </trkpt>
      <trkpt lat="48.0555" lon="7.14407">
        <ele>642</ele>
        <time>2019-05-07T06:58:08Z</time>
      </trkpt>
      <trkpt lat="48.05559" lon="7.14416">
        <ele>645</ele>
        <time>2019-05-07T06:59:08Z</time>
      </trkpt>
      <trkpt lat="48.0556" lon="7.14441">
        <ele>647</ele>
        <time>2019-05-07T07:00:08Z</time>
      </trkpt>
      <trkpt lat="48.05564" lon="7.14461">
        <ele>651</ele>
        <time>2019-05-07T07:01:08Z</time>
      </trkpt>
      <trkpt lat="48.05561" lon="7.14471">
        <ele>650</ele>
        <time>2019-05-07T07:02:08Z</time>
      </trkpt>
      <trkpt lat="48.0556" lon="7.1456">
        <ele>653</ele>
        <time>2019-05-07T07:03:08Z</time>
      </trkpt>
      <trkpt lat="48.05556" lon="7.14578">
        <ele>652</ele>
        <time>2019-05-07T07:04:08Z</time>
      </trkpt>
      <trkpt lat="48.05561" lon="7.14587">
        <ele>655</ele>
        <time>2019-05-07T07:05:08Z</time>
      </trkpt>
      <trkpt lat="48.0557" lon="7.1458">
        <ele>660</ele>
        <time>2019-05-07T07:06:08Z</time>
      </trkpt>
      <trkpt lat="48.05575" lon="7.14569">
        <ele>662</ele>
        <time>2019-05-07T07:07:08Z</time>
      </trkpt>
      <trkpt lat="48.05582" lon="7.14561">
        <ele>665</ele>
        <time>2019-05-07T07:08:08Z</time>
      </trkpt>
      <trkpt lat="48.0558" lon="7.14526">
        <ele>663</ele>
        <time>2019-05-07T07:09:08Z</time>
      </trkpt>
      <trkpt lat="48.05584" lon="7.14514">
        <ele>664</ele>
        <time>2019-05-07T07:10:08Z</time>
      </trkpt>
      <trkpt lat="48.05607" lon="7.14477">
        <ele>671</ele>
        <time>2019-05-07T07:11:08Z</time>
      </trkpt>
      <trkpt lat="48.05605" lon="7.14464">
        <ele>668</ele>
        <time>2019-05-07T07:12:08Z</time>
      </trkpt>
      <trkpt lat="48.05612" lon="7.14438">
        <ele>668</ele>
        <time>2019-05-07T07:13:08Z</time>
      </trkpt>
      <trkpt lat="48.05619" lon="7.14422">
        <ele>670</ele>
        <time>2019-05-07T07:14:08Z</time>
      </trkpt>
      <trkpt lat="48.0562" lon="7.14396">
        <ele>669</ele>
        <time>2019-05-07T07:15:08Z</time>
      </trkpt>
      <trkpt lat="48.05634" lon="7.14379">
        <ele>674</ele>
        <time>2019-05-07T07:16:08Z</time>
      </trkpt>
      <trkpt lat="48.05637" lon="7.14339">
        <ele>674</ele>
        <time>2019-05-07T07:17:08Z</time>
      </trkpt>
      <trkpt lat="48.05626" lon="7.14301">
        <ele>670</ele>
        <time>2019-05-07T07:18:08Z</time>
      </trkpt>
      <trkpt lat="48.05623" lon="7.14277">
        <ele>669</ele>
        <time>2019-05-07T07:19:08Z</time>
      </trkpt>
      <trkpt lat="48.05612" lon="7.14246">
        <ele>667</ele>
        <time>2019-05-07T07:20:08Z</time>
      </trkpt>
      <trkpt lat="48.05606" lon="7.1418">
        <ele>665</ele>
        <time>2019-05-07T07:21:08Z</time>
      </trkpt>
      <trkpt lat="48.05609" lon="7.14159">
        <ele>665</ele>
        <time>2019-05-07T07:22:08Z</time>
      </trkpt>
      <trkpt lat="48.05618" lon="7.1414">
        <ele>665</ele>
        <time>2019-05-07T07:23:08Z</time>
      </trkpt>
      <trkpt lat="48.05636" lon="7.14089">
        <ele>662</ele>
        <time>2019-05-07T07:24:08Z</time>
      </trkpt>
      <trkpt lat="48.05647" lon="7.14078">
        <ele>662</ele>
        <time>2019-05-07T07:25:08Z</time>
      </trkpt>
      <trkpt lat="48.0566" lon="7.14075">
        <ele>662</ele>
        <time>2019-05-07T07:26:08Z</time>
      </trkpt>
      <trkpt lat="48.05693" lon="7.14086">
        <ele>663</ele>
        <time>2019-05-07T07:27:08Z</time>
      </trkpt>
      <trkpt lat="48.05712" lon="7.141">
        <ele>664</ele>
        <time>2019-05-07T07:28:08Z</time>
      </trkpt>
      <trkpt lat="48.05739" lon="7.14125">
        <ele>667</ele>
        <time>2019-05-07T07:29:08Z</time>
      </trkpt>
      <trkpt lat="48.05755" lon="7.14134">
        <ele>667</ele>
        <time>2019-05-07T07:30:08Z</time>
      </trkpt>
      <trkpt lat="48.05787" lon="7.14162">
        <ele>670</ele>
        <time>2019-05-07T07:31:08Z</time>
      </trkpt>
      <trkpt lat="48.05825" lon="7.14168">
        <ele>668</ele>
        <time>2019-05-07T07:32:08Z</time>
      </trkpt>
      <trkpt lat="48.05842" lon="7.14164">
        <ele>666</ele>
        <time>2019-05-07T07:33:08Z</time>
      </trkpt>
      <trkpt lat="48.05885" lon="7.14164">
        <ele>664</ele>
        <time>2019-05-07T07:34:08Z</time>
      </trkpt>
      <trkpt lat="48.05921" lon="7.14189">
        <ele>672</ele>
        <time>2019-05-07T07:35:08Z</time>
      </trkpt>
      <trkpt lat="48.05963" lon="7.14208">
        <ele>679</ele>
        <time>2019-05-07T07:36:08Z</time>
      </trkpt>
      <trkpt lat="48.06032" lon="7.1418">
        <ele>676</ele>
        <time>2019-05-07T07:37:08Z</time>
      </trkpt>
      <trkpt lat="48.06058" lon="7.14173">
        <ele>678</ele>
        <time>2019-05-07T07:38:08Z</time>
      </trkpt>
      <trkpt lat="48.06072" lon="7.14161">
        <ele>679</ele>
        <time>2019-05-07T07:39:08Z</time>
      </trkpt>
      <trkpt lat="48.06081" lon="7.14148">
        <ele>680</ele>
        <time>2019-05-07T07:40:08Z</time>
      </trkpt>
      <trkpt lat="48.06084" lon="7.14126">
        <ele>680</ele>
        <time>2019-05-07T07:41:08Z</time>
      </trkpt>
      <trkpt lat="48.06078" lon="7.14064">
        <ele>678</ele>
        <time>2019-05-07T07:42:08Z</time>
      </trkpt>
      <trkpt lat="48.06075" lon="7.13972">
        <ele>684</ele>
        <time>2019-05-07T07:43:08Z</time>
      </trkpt>
      <trkpt lat="48.06057" lon="7.13894">
        <ele>681</ele>
        <time>2019-05-07T07:44:08Z</time>
      </trkpt>
      <trkpt lat="48.0604" lon="7.13849">
        <ele>680</ele>
        <time>2019-05-07T07:45:08Z</time>
      </trkpt>
      <trkpt lat="48.06011" lon="7.13798">
        <ele>675</ele>
        <time>2019-05-07T07:46:08Z</time>
      </trkpt>
      <trkpt lat="48.06011" lon="7.13715">
        <ele>683</ele>
        <time>2019-05-07T07:47:08Z</time>
      </trkpt>
      <trkpt lat="48.06004" lon="7.13682">
        <ele>684</ele>
        <time>2019-05-07T07:48:08Z</time>
      </trkpt>
      <trkpt lat="48.05989" lon="7.13651">
        <ele>682</ele>
        <time>2019-05-07T07:49:08Z</time>
      </trkpt>
      <trkpt lat="48.05983" lon="7.13611">
        <ele>683</ele>
        <time>2019-05-07T07:50:08Z</time>
      </trkpt>
      <trkpt lat="48.05984" lon="7.13587">
        <ele>686</ele>
        <time>2019-05-07T07:51:08Z</time>
      </trkpt>
      <trkpt lat="48.05987" lon="7.13575">
        <ele>686</ele>
        <time>2019-05-07T07:52:08Z</time>
      </trkpt>
      <trkpt lat="48.05995" lon="7.13577">
        <ele>689</ele>
        <time>2019-05-07T07:53:08Z</time>
      </trkpt>
      <trkpt lat="48.06" lon="7.13624">
        <ele>689</ele>
        <time>2019-05-07T07:54:08Z</time>
      </trkpt>
      <trkpt lat="48.06009" lon="7.13643">
        <ele>689</ele>
        <time>2019-05-07T07:55:08Z</time>
      </trkpt>
      <trkpt lat="48.06019" lon="7.13651">
        <ele>690</ele>
        <time>2019-05-07T07:56:08Z</time>
      </trkpt>
      <trkpt lat="48.06027" lon="7.13654">
        <ele>692</ele>
        <time>2019-05-07T07:57:08Z</time>
      </trkpt>
      <trkpt lat="48.06045" lon="7.13656">
        <ele>696</ele>
        <time>2019-05-07T07:58:08Z</time>
      </trkpt>
      <trkpt lat="48.06059" lon="7.13669">
        <ele>699</ele>
        <time>2019-05-07T07:59:08Z</time>
      </trkpt>
      <trkpt lat="48.0607" lon="7.13688">
        <ele>701</ele>
        <time>2019-05-07T08:00:08Z</time>
      </trkpt>
      <trkpt lat="48.06101" lon="7.13788">
        <ele>707</ele>
        <time>2019-05-07T08:01:08Z</time>
      </trkpt>
      <trkpt lat="48.06112" lon="7.13814">
        <ele>708</ele>
        <time>2019-05-07T08:02:08Z</time>
      </trkpt>
      <trkpt lat="48.0612" lon="7.13824">
        <ele>711</ele>
        <time>2019-05-07T08:03:08Z</time>
      </trkpt>
      <trkpt lat="48.06136" lon="7.139">
        <ele>716</ele>
        <time>2019-05-07T08:04:08Z</time>
      </trkpt>
      <trkpt lat="48.06137" lon="7.13947">
        <ele>716</ele>
        <time>2019-05-07T08:05:08Z</time>
      </trkpt>
      <trkpt lat="48.06142" lon="7.13961">
        <ele>719</ele>
        <time>2019-05-07T08:06:08Z</time>
      </trkpt>
      <trkpt lat="48.06155" lon="7.14026">
        <ele>722</ele>
        <time>2019-05-07T08:07:08Z</time>
      </trkpt>
      <trkpt lat="48.06164" lon="7.14039">
        <ele>725</ele>
        <time>2019-05-07T08:08:08Z</time>
      </trkpt>
      <trkpt lat="48.06178" lon="7.1408">
        <ele>728</ele>
        <time>2019-05-07T08:09:08Z</time>
      </trkpt>
      <trkpt lat="48.06209" lon="7.14138">
        <ele>737</ele>
        <time>2019-05-07T08:10:08Z</time>
      </trkpt>
      <trkpt lat="48.06216" lon="7.14144">
        <ele>740</ele>
        <time>2019-05-07T08:11:08Z</time>
      </trkpt>
      <trkpt lat="48.06219" lon="7.14155">
        <ele>740</ele>
        <time>2019-05-07T08:12:08Z</time>
      </trkpt>
      <trkpt lat="48.06222" lon="7.14193">
        <ele>742</ele>
        <time>2019-05-07T08:13:08Z</time>
      </trkpt>
      <trkpt lat="48.06217" lon="7.14241">
        <ele>743</ele>
        <time>2019-05-07T08:14:08Z</time>
      </trkpt>
      <trkpt lat="48.0622" lon="7.14279">
        <ele>748</ele>
        <time>2019-05-07T08:15:08Z</time>
      </trkpt>
      <trkpt lat="48.06195" lon="7.14402">
        <ele>750</ele>
        <time>2019-05-07T08:16:08Z</time>
      </trkpt>
      <trkpt lat="48.06215" lon="7.14464">
        <ele>752</ele>
        <time>2019-05-07T08:17:08Z</time>
      </trkpt>
      <trkpt lat="48.06237" lon="7.14495">
        <ele>749</ele>
        <time>2019-05-07T08:18:08Z</time>
      </trkpt>
      <trkpt lat="48.06258" lon="7.14505">
        <ele>747</ele>
        <time>2019-05-07T08:19:08Z</time>
      </trkpt>
      <trkpt lat="48.06275" lon="7.14504">
        <ele>749</ele>
        <time>2019-05-07T08:20:08Z</time>
      </trkpt>
      <trkpt lat="48.06309" lon="7.14494">
        <ele>756</ele>
        <time>2019-05-07T08:21:08Z</time>
      </trkpt>
      <trkpt lat="48.06324" lon="7.14486">
        <ele>760</ele>
        <time>2019-05-07T08:22:08Z</time>
      </trkpt>
      <trkpt lat="48.0634" lon="7.14472">
        <ele>766</ele>
        <time>2019-05-07T08:23:08Z</time>
      </trkpt>
      <trkpt lat="48.06367" lon="7.14461">
        <ele>772</ele>
        <time>2019-05-07T08:24:08Z</time>
      </trkpt>
      <trkpt lat="48.06358" lon="7.14457">
        <ele>772</ele>
        <time>2019-05-07T08:25:08Z</time>
      </trkpt>
      <trkpt lat="48.06335" lon="7.14466">
        <ele>767</ele>
        <time>2019-05-07T08:26:08Z</time>
      </trkpt>
      <trkpt lat="48.06302" lon="7.14446">
        <ele>766</ele>
        <time>2019-05-07T08:27:08Z</time>
      </trkpt>
      <trkpt lat="48.06293" lon="7.14447">
        <ele>764</ele>
        <time>2019-05-07T08:28:08Z</time>
      </trkpt>
      <trkpt lat="48.06287" lon="7.14438">
        <ele>764</ele>
        <time>2019-05-07T08:29:08Z</time>
      </trkpt>
      <trkpt lat="48.06288" lon="7.14426">
        <ele>767</ele>
        <time>2019-05-07T08:30:08Z</time>
      </trkpt>
      <trkpt lat="48.06292" lon="7.14416">
        <ele>770</ele>
        <time>2019-05-07T08:31:08Z</time>
      </trkpt>
      <trkpt lat="48.06318" lon="7.14402">
        <ele>779</ele>
        <time>2019-05-07T08:32:08Z</time>
      </trkpt>
      <trkpt lat="48.06325" lon="7.14394">
        <ele>782</ele>
        <time>2019-05-07T08:33:08Z</time>
      </trkpt>
      <trkpt lat="48.06356" lon="7.14378">
        <ele>791</ele>
        <time>2019-05-07T08:34:08Z</time>
      </trkpt>
      <trkpt lat="48.06347" lon="7.14382">
        <ele>788</ele>
        <time>2019-05-07T08:35:08Z</time>
      </trkpt>
      <trkpt lat="48.06339" lon="7.1438">
        <ele>787</ele>
        <time>2019-05-07T08:36:08Z</time>
      </trkpt>
      <trkpt lat="48.06309" lon="7.14346">
        <ele>783</ele>
        <time>2019-05-07T08:37:08Z</time>
      </trkpt>
      <trkpt lat="48.06297" lon="7.14317">
        <ele>780</ele>
        <time>2019-05-07T08:38:08Z</time>
      </trkpt>
      <trkpt lat="48.06295" lon="7.14295">
        <ele>779</ele>
        <time>2019-05-07T08:39:08Z</time>
      </trkpt>
      <trkpt lat="48.06295" lon="7.14272">
        <ele>778</ele>
        <time>2019-05-07T08:40:08Z</time>
      </trkpt>
      <trkpt lat="48.06303" lon="7.14211">
        <ele>779</ele>
        <time>2019-05-07T08:41:08Z</time>
      </trkpt>
      <trkpt lat="48.06311" lon="7.14187">
        <ele>781</ele>
        <time>2019-05-07T08:42:08Z</time>
      </trkpt>
      <trkpt lat="48.06313" lon="7.14163">
        <ele>781</ele>
        <time>2019-05-07T08:43:08Z</time>
      </trkpt>
      <trkpt lat="48.06313" lon="7.14117">
        <ele>785</ele>
        <time>2019-05-07T08:44:08Z</time>
      </trkpt>
      <trkpt lat="48.0631" lon="7.14096">
        <ele>785</ele>
        <time>2019-05-07T08:45:08Z</time>
      </trkpt>
      <trkpt lat="48.06317" lon="7.14072">
        <ele>789</ele>
        <time>2019-05-07T08:46:08Z</time>
      </trkpt>
      <trkpt lat="48.0632" lon="7.14025">
        <ele>791</ele>
        <time>2019-05-07T08:47:08Z</time>
      </trkpt>
      <trkpt lat="48.06332" lon="7.13961">
        <ele>788</ele>
        <time>2019-05-07T08:48:08Z</time>
      </trkpt>
      <trkpt lat="48.06377" lon="7.13914">
        <ele>789</ele>
        <time>2019-05-07T08:49:08Z</time>
      </trkpt>
      <trkpt lat="48.0639" lon="7.13905">
        <ele>790</ele>
        <time>2019-05-07T08:50:08Z</time>
      </trkpt>
      <trkpt lat="48.06411" lon="7.13895">
        <ele>792</ele>
        <time>2019-05-07T08:51:08Z</time>
      </trkpt>
      <trkpt lat="48.06467" lon="7.13847">
        <ele>791</ele>
        <time>2019-05-07T08:52:08Z</time>
      </trkpt>
      <trkpt lat="48.06489" lon="7.13837">
        <ele>794</ele>
        <time>2019-05-07T08:53:08Z</time>
      </trkpt>
      <trkpt lat="48.06507" lon="7.13824">
        <ele>794</ele>
        <time>2019-05-07T08:54:08Z</time>
      </trkpt>
      <trkpt lat="48.06529" lon="7.13819">
        <ele>796</ele>
        <time>2019-05-07T08:55:08Z</time>
      </trkpt>
      <trkpt lat="48.06549" lon="7.1382">
        <ele>799</ele>
        <time>2019-05-07T08:56:08Z</time>
      </trkpt>
      <trkpt lat="48.06591" lon="7.13832">
        <ele>806</ele>
        <time>2019-05-07T08:57:08Z</time>
      </trkpt>
      <trkpt lat="48.06609" lon="7.13812">
        <ele>804</ele>
        <time>2019-05-07T08:58:08Z</time>
      </trkpt>
      <trkpt lat="48.06615" lon="7.13775">
        <ele>804</ele>
        <time>2019-05-07T08:59:08Z</time>
      </trkpt>
      <trkpt lat="48.06602" lon="7.13741">
        <ele>802</ele>
        <time>2019-05-07T09:00:08Z</time>
      </trkpt>
      <trkpt lat="48.06595" lon="7.13704">
        <ele>804</ele>
        <time>2019-05-07T09:01:08Z</time>
      </trkpt>
      <trkpt lat="48.06594" lon="7.13681">
        <ele>805</ele>
        <time>2019-05-07T09:02:08Z</time>
      </trkpt>
      <trkpt lat="48.06594" lon="7.13667">
        <ele>806</ele>
        <time>2019-05-07T09:03:08Z</time>
      </trkpt>
      <trkpt lat="48.06608" lon="7.13611">
        <ele>807</ele>
        <time>2019-05-07T09:04:08Z</time>
      </trkpt>
      <trkpt lat="48.06626" lon="7.1357">
        <ele>810</ele>
        <time>2019-05-07T09:05:08Z</time>
      </trkpt>
      <trkpt lat="48.06644" lon="7.13558">
        <ele>815</ele>
        <time>2019-05-07T09:06:08Z</time>
      </trkpt>
      <trkpt lat="48.06666" lon="7.13539">
        <ele>821</ele>
        <time>2019-05-07T09:07:08Z</time>
      </trkpt>
      <trkpt lat="48.06691" lon="7.13525">
        <ele>823</ele>
        <time>2019-05-07T09:08:08Z</time>
      </trkpt>
      <trkpt lat="48.06698" lon="7.13514">
        <ele>824</ele>
        <time>2019-05-07T09:09:08Z</time>
      </trkpt>
      <trkpt lat="48.06716" lon="7.13472">
        <ele>831</ele>
        <time>2019-05-07T09:10:08Z</time>
      </trkpt>
      <trkpt lat="48.06713" lon="7.13459">
        <ele>833</ele>
        <time>2019-05-07T09:11:08Z</time>
      </trkpt>
      <trkpt lat="48.06705" lon="7.13455">
        <ele>831</ele>
        <time>2019-05-07T09:12:08Z</time>
      </trkpt>
      <trkpt lat="48.06698" lon="7.13448">
        <ele>831</ele>
        <time>2019-05-07T09:13:08Z</time>
      </trkpt>
      <trkpt lat="48.06671" lon="7.13405">
        <ele>829</ele>
        <time>2019-05-07T09:14:08Z</time>
      </trkpt>
      <trkpt lat="48.06657" lon="7.13391">
        <ele>825</ele>
        <time>2019-05-07T09:15:08Z</time>
      </trkpt>
      <trkpt lat="48.06643" lon="7.13358">
        <ele>822</ele>
        <time>2019-05-07T09:16:08Z</time>
      </trkpt>
      <trkpt lat="48.06636" lon="7.1333">
        <ele>822</ele>
        <time>2019-05-07T09:17:08Z</time>
      </trkpt>
      <trkpt lat="48.06625" lon="7.13256">
        <ele>818</ele>
        <time>2019-05-07T09:18:08Z</time>
      </trkpt>
      <trkpt lat="48.06624" lon="7.13229">
        <ele>818</ele>
        <time>2019-05-07T09:19:08Z</time>
      </trkpt>
      <trkpt lat="48.0664" lon="7.13162">
        <ele>823</ele>
        <time>2019-05-07T09:20:08Z</time>
      </trkpt>
      <trkpt lat="48.06649" lon="7.13139">
        <ele>826</ele>
        <time>2019-05-07T09:21:08Z</time>
      </trkpt>
      <trkpt lat="48.06652" lon="7.13115">
        <ele>826</ele>
        <time>2019-05-07T09:22:08Z</time>
      </trkpt>
      <trkpt lat="48.06648" lon="7.13047">
        <ele>822</ele>
        <time>2019-05-07T09:23:08Z</time>
      </trkpt>
      <trkpt lat="48.06654" lon="7.12975">
        <ele>820</ele>
        <time>2019-05-07T09:24:08Z</time>
      </trkpt>
      <trkpt lat="48.06685" lon="7.12901">
        <ele>822</ele>
        <time>2019-05-07T09:25:08Z</time>
      </trkpt>
      <trkpt lat="48.06708" lon="7.12857">
        <ele>823</ele>
        <time>2019-05-07T09:26:08Z</time>
      </trkpt>
      <trkpt lat="48.06724" lon="7.12814">
        <ele>823</ele>
        <time>2019-05-07T09:27:08Z</time>
      </trkpt>
      <trkpt lat="48.06732" lon="7.12762">
        <ele>822</ele>
        <time>2019-05-07T09:28:08Z</time>
      </trkpt>
      <trkpt lat="48.06731" lon="7.1275">
        <ele>821</ele>
        <time>2019-05-07T09:29:08Z</time>
      </trkpt>
      <trkpt lat="48.06742" lon="7.12732">
        <ele>823</ele>
        <time>2019-05-07T09:30:08Z</time>
      </trkpt>
      <trkpt lat="48.06744" lon="7.12713">
        <ele>823</ele>
        <time>2019-05-07T09:31:08Z</time>
      </trkpt>
      <trkpt lat="48.06735" lon="7.12668">
        <ele>819</ele>
        <time>2019-05-07T09:32:08Z</time>
      </trkpt>
      <trkpt lat="48.0673" lon="7.12626">
        <ele>818</ele>
        <time>2019-05-07T09:33:08Z</time>
      </trkpt>
      <trkpt lat="48.06751" lon="7.12606">
        <ele>821</ele>
        <time>2019-05-07T09:34:08Z</time>
      </trkpt>
      <trkpt lat="48.06767" lon="7.12599">
        <ele>823</ele>
        <time>2019-05-07T09:35:08Z</time>
      </trkpt>
      <trkpt lat="48.06773" lon="7.12593">
        <ele>823</ele>
        <time>2019-05-07T09:36:08Z</time>
      </trkpt>
      <trkpt lat="48.06805" lon="7.12582">
        <ele>827</ele>
        <time>2019-05-07T09:37:08Z</time>
      </trkpt>
      <trkpt lat="48.06812" lon="7.12575">
        <ele>828</ele>
        <time>2019-05-07T09:38:08Z</time>
      </trkpt>
      <trkpt lat="48.06827" lon="7.12549">
        <ele>829</ele>
        <time>2019-05-07T09:39:08Z</time>
      </trkpt>
      <trkpt lat="48.06836" lon="7.12538">
        <ele>829</ele>
        <time>2019-05-07T09:40:08Z</time>
      </trkpt>
      <trkpt lat="48.06847" lon="7.12536">
        <ele>829</ele>
        <time>2019-05-07T09:41:08Z</time>
      </trkpt>
      <trkpt lat="48.06861" lon="7.12546">
        <ele>830</ele>
        <time>2019-05-07T09:42:08Z</time>
      </trkpt>
      <trkpt lat="48.0687" lon="7.12556">
        <ele>830</ele>
        <time>2019-05-07T09:43:08Z</time>
      </trkpt>
      <trkpt lat="48.0689" lon="7.12569">
        <ele>832</ele>
        <time>2019-05-07T09:44:08Z</time>
      </trkpt>
      <trkpt lat="48.06919" lon="7.12609">
        <ele>836</ele>
        <time>2019-05-07T09:45:08Z</time>
      </trkpt>
      <trkpt lat="48.06988" lon="7.12682">
        <ele>842</ele>
        <time>2019-05-07T09:46:08Z</time>
      </trkpt>
      <trkpt lat="48.07005" lon="7.12684">
        <ele>842</ele>
        <time>2019-05-07T09:47:08Z</time>
      </trkpt>
      <trkpt lat="48.07027" lon="7.12691">
        <ele>844</ele>
        <time>2019-05-07T09:48:08Z</time>
      </trkpt>
      <trkpt lat="48.07072" lon="7.12697">
        <ele>846</ele>
        <time>2019-05-07T09:49:08Z</time>
      </trkpt>
      <trkpt lat="48.07086" lon="7.12704">
        <ele>848</ele>
        <time>2019-05-07T09:50:08Z</time>
      </trkpt>
      <trkpt lat="48.07101" lon="7.12716">
        <ele>850</ele>
        <time>2019-05-07T09:51:08Z</time>
      </trkpt>
      <trkpt lat="48.07118" lon="7.12719">
        <ele>850</ele>
        <time>2019-05-07T09:52:08Z</time>
      </trkpt>
      <trkpt lat="48.07137" lon="7.12718">
        <ele>850</ele>
        <time>2019-05-07T09:53:08Z</time>
      </trkpt>
      <trkpt lat="48.07158" lon="7.12721">
        <ele>850</ele>
        <time>2019-05-07T09:54:08Z</time>
      </trkpt>
      <trkpt lat="48.07176" lon="7.1273">
        <ele>853</ele>
        <time>2019-05-07T09:55:08Z</time>
      </trkpt>
      <trkpt lat="48.07191" lon="7.12733">
        <ele>855</ele>
        <time>2019-05-07T09:56:08Z</time>
      </trkpt>
      <trkpt lat="48.07199" lon="7.12738">
        <ele>856</ele>
        <time>2019-05-07T09:57:08Z</time>
      </trkpt>
      <trkpt lat="48.07222" lon="7.12746">
        <ele>860</ele>
        <time>2019-05-07T09:58:08Z</time>
      </trkpt>
      <trkpt lat="48.07249" lon="7.12751">
        <ele>863</ele>
        <time>2019-05-07T09:59:08Z</time>
      </trkpt>
      <trkpt lat="48.07267" lon="7.12749">
        <ele>866</ele>
        <time>2019-05-07T10:00:08Z</time>
      </trkpt>
      <trkpt lat="48.07286" lon="7.1275">
        <ele>870</ele>
        <time>2019-05-07T10:01:08Z</time>
      </trkpt>
      <trkpt lat="48.07324" lon="7.12736">
        <ele>874</ele>
        <time>2019-05-07T10:02:08Z</time>
      </trkpt>
      <trkpt lat="48.07334" lon="7.12734">
        <ele>875</ele>
        <time>2019-05-07T10:03:08Z</time>
      </trkpt>
      <trkpt lat="48.07347" lon="7.12736">
        <ele>877</ele>
        <time>2019-05-07T10:04:08Z</time>
      </trkpt>
      <trkpt lat="48.07378" lon="7.12728">
        <ele>879</ele>
        <time>2019-05-07T10:05:08Z</time>
      </trkpt>
      <trkpt lat="48.07411" lon="7.1273">
        <ele>884</ele>
        <time>2019-05-07T10:06:08Z</time>
      </trkpt>
      <trkpt lat="48.07418" lon="7.12726">
        <ele>884</ele>
        <time>2019-05-07T10:07:08Z</time>
      </trkpt>
      <trkpt lat="48.07436" lon="7.1273">
        <ele>886</ele>
        <time>2019-05-07T10:08:08Z</time>
      </trkpt>
      <trkpt lat="48.0747" lon="7.12733">
        <ele>888</ele>
        <time>2019-05-07T10:09:08Z</time>
      </trkpt>
      <trkpt lat="48.07492" lon="7.12747">
        <ele>893</ele>
        <time>2019-05-07T10:10:08Z</time>
      </trkpt>
      <trkpt lat="48.07523" lon="7.12758">
        <ele>896</ele>
        <time>2019-05-07T10:11:08Z</time>
      </trkpt>
      <trkpt lat="48.07532" lon="7.12759">
        <ele>897</ele>
        <time>2019-05-07T10:12:08Z</time>
      </trkpt>
      <trkpt lat="48.07549" lon="7.12768">
        <ele>899</ele>
        <time>2019-05-07T10:13:08Z</time>
      </trkpt>
      <trkpt lat="48.0756" lon="7.12768">
        <ele>899</ele>
        <time>2019-05-07T10:14:08Z</time>
      </trkpt>
      <trkpt lat="48.07595" lon="7.12785">
        <ele>905</ele>
        <time>2019-05-07T10:15:08Z</time>
      </trkpt>
      <trkpt lat="48.07608" lon="7.12799">
        <ele>909</ele>
        <time>2019-05-07T10:16:08Z</time>
      </trkpt>
      <trkpt lat="48.07649" lon="7.12811">
        <ele>914</ele>
        <time>2019-05-07T10:17:08Z</time>
      </trkpt>
      <trkpt lat="48.07656" lon="7.1281">
        <ele>915</ele>
        <time>2019-05-07T10:18:08Z</time>
      </trkpt>
      <trkpt lat="48.07687" lon="7.12822">
        <ele>921</ele>
        <time>2019-05-07T10:19:08Z</time>
      </trkpt>
      <trkpt lat="48.07723" lon="7.12847">
        <ele>929</ele>
        <time>2019-05-07T10:20:08Z</time>
      </trkpt>
      <trkpt lat="48.07755" lon="7.1286">
        <ele>934</ele>
        <time>2019-05-07T10:21:08Z</time>
      </trkpt>
      <trkpt lat="48.07798" lon="7.12866">
        <ele>940</ele>
        <time>2019-05-07T10:22:08Z</time>
      </trkpt>
      <trkpt lat="48.07799" lon="7.12879">
        <ele>940</ele>
        <time>2019-05-07T10:23:08Z</time>
      </trkpt>
      <trkpt lat="48.07804" lon="7.12888">
        <ele>941</ele>
        <time>2019-05-07T10:24:08Z</time>
      </trkpt>
      <trkpt lat="48.0781" lon="7.1288">
        <ele>942</ele>
        <time>2019-05-07T10:25:08Z</time>
      </trkpt>
      <trkpt lat="48.07813" lon="7.12929">
        <ele>944</ele>
        <time>2019-05-07T10:26:08Z</time>
      </trkpt>
      <trkpt lat="48.07819" lon="7.12965">
        <ele>947</ele>
        <time>2019-05-07T10:27:08Z</time>
      </trkpt>
      <trkpt lat="48.07816" lon="7.12976">
        <ele>948</ele>
        <time>2019-05-07T10:28:08Z</time>
      </trkpt>
      <trkpt lat="48.07799" lon="7.13004">
        <ele>949</ele>
        <time>2019-05-07T10:29:08Z</time>
      </trkpt>
      <trkpt lat="48.07791" lon="7.1301">
        <ele>949</ele>
        <time>2019-05-07T10:30:08Z</time>
      </trkpt>
      <trkpt lat="48.07784" lon="7.13021">
        <ele>950</ele>
        <time>2019-05-07T10:31:08Z</time>
      </trkpt>
      <trkpt lat="48.07781" lon="7.13033">
        <ele>951</ele>
        <time>2019-05-07T10:32:08Z</time>
      </trkpt>
      <trkpt lat="48.07777" lon="7.13117">
        <ele>957</ele>
        <time>2019-05-07T10:33:08Z</time>
      </trkpt>
      <trkpt lat="48.0778" lon="7.13149">
        <ele>959</ele>
        <time>2019-05-07T10:34:08Z</time>
      </trkpt>
      <trkpt lat="48.07777" lon="7.13197">
        <ele>963</ele>
        <time>2019-05-07T10:35:08Z</time>
      </trkpt>
      <trkpt lat="48.07777" lon="7.13232">
        <ele>965</ele>
        <time>2019-05-07T10:36:08Z</time>
      </trkpt>
      <trkpt lat="48.07781" lon="7.13258">
        <ele>967</ele>
        <time>2019-05-07T10:37:08Z</time>
      </trkpt>
      <trkpt lat="48.07779" lon="7.13316">
        <ele>974</ele>
        <time>2019-05-07T10:38:08Z</time>
      </trkpt>
      <trkpt lat="48.07769" lon="7.13337">
        <ele>975</ele>
        <time>2019-05-07T10:39:08Z</time>
      </trkpt>
      <trkpt lat="48.07761" lon="7.13347">
        <ele>976</ele>
        <time>2019-05-07T10:40:08Z</time>
      </trkpt>
      <trkpt lat="48.0776" lon="7.13357">
        <ele>976</ele>
        <time>2019-05-07T10:41:08Z</time>
      </trkpt>
      <trkpt lat="48.07767" lon="7.13364">
        <ele>978</ele>
        <time>2019-05-07T10:42:08Z</time>
      </trkpt>
      <trkpt lat="48.07771" lon="7.13373">
        <ele>979</ele>
        <time>2019-05-07T10:43:08Z</time>
      </trkpt>
      <trkpt lat="48.0777" lon="7.13393">
        <ele>980</ele>
        <time>2019-05-07T10:44:08Z</time>
      </trkpt>
      <trkpt lat="48.07766" lon="7.1341">
        <ele>981</ele>
        <time>2019-05-07T10:45:08Z</time>
      </trkpt>
      <trkpt lat="48.07768" lon="7.13421">
        <ele>982</ele>
        <time>2019-05-07T10:46:08Z</time>
      </trkpt>
      <trkpt lat="48.07774" lon="7.13433">
        <ele>984</ele>
        <time>2019-05-07T10:47:08Z</time>
      </trkpt>
      <trkpt lat="48.07777" lon="7.13456">
        <ele>986</ele>
        <time>2019-05-07T10:48:08Z</time>
      </trkpt>
      <trkpt lat="48.07786" lon="7.13479">
        <ele>990</ele>
        <time>2019-05-07T10:49:08Z</time>
      </trkpt>
      <trkpt lat="48.07785" lon="7.13502">
        <ele>992</ele>
        <time>2019-05-07T10:50:08Z</time>
      </trkpt>
      <trkpt lat="48.07787" lon="7.13512">
        <ele>993</ele>
        <time>2019-05-07T10:51:08Z</time>
      </trkpt>
      <trkpt lat="48.07797" lon="7.13536">
        <ele>995</ele>
        <time>2019-05-07T10:52:08Z</time>
      </trkpt>
      <trkpt lat="48.07799" lon="7.13549">
        <ele>996</ele>
        <time>2019-05-07T10:53:08Z</time>
      </trkpt>
      <trkpt lat="48.07808" lon="7.13571">
        <ele>999</ele>
        <time>2019-05-07T10:54:08Z</time>
      </trkpt>
      <trkpt lat="48.07815" lon="7.13599">
        <ele>1001</ele>
        <time>2019-05-07T10:55:08Z</time>
      </trkpt>
      <trkpt lat="48.07822" lon="7.1363">
        <ele>1003</ele>
        <time>2019-05-07T10:56:08Z</time>
      </trkpt>
      <trkpt lat="48.07824" lon="7.13652">
        <ele>1003</ele>
        <time>2019-05-07T10:57:08Z</time>
      </trkpt>
      <trkpt lat="48.07836" lon="7.13694">
        <ele>1006</ele>
        <time>2019-05-07T10:58:08Z</time>
      </trkpt>
      <trkpt lat="48.07839" lon="7.13715">
        <ele>1007</ele>
        <time>2019-05-07T10:59:08Z</time>
      </trkpt>
      <trkpt lat="48.0783" lon="7.13771">
        <ele>1004</ele>
        <time>2019-05-07T11:00:08Z</time>
      </trkpt>
      <trkpt lat="48.07828" lon="7.13813">
        <ele>1003</ele>
        <time>2019-05-07T11:01:08Z</time>
      </trkpt>
      <trkpt lat="48.07821" lon="7.1385">
        <ele>1001</ele>
        <time>2019-05-07T11:02:08Z</time>
      </trkpt>
      <trkpt lat="48.07827" lon="7.13917">
        <ele>1006</ele>
        <time>2019-05-07T11:03:08Z</time>
      </trkpt>
      <trkpt lat="48.07827" lon="7.1395">
        <ele>1003</ele>
        <time>2019-05-07T11:04:08Z</time>
      </trkpt>
      <trkpt lat="48.07834" lon="7.13989">
        <ele>1003</ele>
        <time>2019-05-07T11:05:08Z</time>
      </trkpt>
      <trkpt lat="48.07851" lon="7.14032">
        <ele>1002</ele>
        <time>2019-05-07T11:06:08Z</time>
      </trkpt>
      <trkpt lat="48.07864" lon="7.14048">
        <ele>1003</ele>
        <time>2019-05-07T11:07:08Z</time>
      </trkpt>
      <trkpt lat="48.07882" lon="7.14077">
        <ele>1004</ele>
        <time>2019-05-07T11:08:08Z</time>
      </trkpt>
      <trkpt lat="48.07896" lon="7.14107">
        <ele>1003</ele>
        <time>2019-05-07T11:09:08Z</time>
      </trkpt>
      <trkpt lat="48.07908" lon="7.14125">
        <ele>1004</ele>
        <time>2019-05-07T11:10:08Z</time>
      </trkpt>
      <trkpt lat="48.07924" lon="7.14142">
        <ele>1005</ele>
        <time>2019-05-07T11:11:08Z</time>
      </trkpt>
      <trkpt lat="48.07931" lon="7.14169">
        <ele>1002</ele>
        <time>2019-05-07T11:12:08Z</time>
      </trkpt>
      <trkpt lat="48.07925" lon="7.14225">
        <ele>995</ele>
        <time>2019-05-07T11:13:08Z</time>
      </trkpt>
      <trkpt lat="48.07902" lon="7.14342">
        <ele>980</ele>
        <time>2019-05-07T11:14:08Z</time>
      </trkpt>
      <trkpt lat="48.07909" lon="7.14372">
        <ele>980</ele>
        <time>2019-05-07T11:15:08Z</time>
      </trkpt>
      <trkpt lat="48.07917" lon="7.14391">
        <ele>980</ele>
        <time>2019-05-07T11:16:08Z</time>
      </trkpt>
      <trkpt lat="48.07918" lon="7.14403">
        <ele>979</ele>
        <time>2019-05-07T11:17:08Z</time>
      </trkpt>
      <trkpt lat="48.07928" lon="7.14414">
        <ele>979</ele>
        <time>2019-05-07T11:18:08Z</time>
      </trkpt>
      <trkpt lat="48.07946" lon="7.14459">
        <ele>981</ele>
        <time>2019-05-07T11:19:08Z</time>
      </trkpt>
      <trkpt lat="48.0795" lon="7.14484">
        <ele>982</ele>
        <time>2019-05-07T11:20:08Z</time>
      </trkpt>
      <trkpt lat="48.07946" lon="7.14497">
        <ele>983</ele>
        <time>2019-05-07T11:21:08Z</time>
      </trkpt>
      <trkpt lat="48.07942" lon="7.1453">
        <ele>986</ele>
        <time>2019-05-07T11:22:08Z</time>
      </trkpt>
      <trkpt lat="48.07944" lon="7.14562">
        <ele>988</ele>
        <time>2019-05-07T11:23:08Z</time>
      </trkpt>
      <trkpt lat="48.07939" lon="7.14606">
        <ele>991</ele>
        <time>2019-05-07T11:24:08Z</time>
      </trkpt>
      <trkpt lat="48.07944" lon="7.14637">
        <ele>993</ele>
        <time>2019-05-07T11:25:08Z</time>
      </trkpt>
      <trkpt lat="48.07956" lon="7.1466">
        <ele>992</ele>
        <time>2019-05-07T11:26:08Z</time>
      </trkpt>
      <trkpt lat="48.07968" lon="7.14697">
        <ele>994</ele>
        <time>2019-05-07T11:27:08Z</time>
      </trkpt>
      <trkpt lat="48.07972" lon="7.14734">
        <ele>996</ele>
        <time>2019-05-07T11:28:08Z</time>
      </trkpt>
      <trkpt lat="48.0797" lon="7.14755">
        <ele>998</ele>
        <time>2019-05-07T11:29:08Z</time>
      </trkpt>
      <trkpt lat="48.07965" lon="7.14769">
        <ele>998</ele>
        <time>2019-05-07T11:30:08Z</time>
      </trkpt>
      <trkpt lat="48.07946" lon="7.14802">
        <ele>1000</ele>
        <time>2019-05-07T11:31:08Z</time>
      </trkpt>
      <trkpt lat="48.07953" lon="7.14947">
        <ele>993</ele>
        <time>2019-05-07T11:32:08Z</time>
      </trkpt>
      <trkpt lat="48.07948" lon="7.14982">
        <ele>991</ele>
        <time>2019-05-07T11:33:08Z</time>
      </trkpt>
      <trkpt lat="48.07931" lon="7.15038">
        <ele>988</ele>
        <time>2019-05-07T11:34:08Z</time>
      </trkpt>
      <trkpt lat="48.07932" lon="7.15088">
        <ele>985</ele>
        <time>2019-05-07T11:35:08Z</time>
      </trkpt>
      <trkpt lat="48.07957" lon="7.15186">
        <ele>987</ele>
        <time>2019-05-07T11:36:08Z</time>
      </trkpt>
      <trkpt lat="48.07959" lon="7.15218">
        <ele>987</ele>
        <time>2019-05-07T11:37:08Z</time>
      </trkpt>
      <trkpt lat="48.07979" lon="7.15291">
        <ele>986</ele>
        <time>2019-05-07T11:38:08Z</time>
      </trkpt>
      <trkpt lat="48.07983" lon="7.15354">
        <ele>983</ele>
        <time>2019-05-07T11:39:08Z</time>
      </trkpt>
      <trkpt lat="48.07967" lon="7.15399">
        <ele>978</ele>
        <time>2019-05-07T11:40:08Z</time>
      </trkpt>
      <trkpt lat="48.07935" lon="7.15461">
        <ele>972</ele>
        <time>2019-05-07T11:41:08Z</time>
      </trkpt>
      <trkpt lat="48.0793" lon="7.15521">
        <ele>969</ele>
        <time>2019-05-07T11:42:08Z</time>
      </trkpt>
      <trkpt lat="48.0795" lon="7.15584">
        <ele>965</ele>
        <time>2019-05-07T11:43:08Z</time>
      </trkpt>
      <trkpt lat="48.07995" lon="7.15701">
        <ele>964</ele>
        <time>2019-05-07T11:44:08Z</time>
      </trkpt>
      <trkpt lat="48.08003" lon="7.15729">
        <ele>965</ele>
        <time>2019-05-07T11:45:08Z</time>
      </trkpt>
      <trkpt lat="48.08006" lon="7.15751">
        <ele>966</ele>
        <time>2019-05-07T11:46:08Z</time>
      </trkpt>
      <trkpt lat="48.08033" lon="7.15851">
        <ele>968</ele>
        <time>2019-05-07T11:47:08Z</time>
      </trkpt>
      <trkpt lat="48.0804" lon="7.15895">
        <ele>970</ele>
        <time>2019-05-07T11:48:08Z</time>
      </trkpt>
      <trkpt lat="48.08041" lon="7.15919">
        <ele>971</ele>
        <time>2019-05-07T11:49:08Z</time>
      </trkpt>
      <trkpt lat="48.08041" lon="7.15976">
        <ele>974</ele>
        <time>2019-05-07T11:50:08Z</time>
      </trkpt>
      <trkpt lat="48.08036" lon="7.16035">
        <ele>975</ele>
        <time>2019-05-07T11:51:08Z</time>
      </trkpt>
      <trkpt lat="48.08028" lon="7.16058">
        <ele>976</ele>
        <time>2019-05-07T11:52:08Z</time>
      </trkpt>
      <trkpt lat="48.08009" lon="7.16096">
        <ele>977</ele>
        <time>2019-05-07T11:53:08Z</time>
      </trkpt>
      <trkpt lat="48.08001" lon="7.16139">
        <ele>974</ele>
        <time>2019-05-07T11:54:08Z</time>
      </trkpt>
      <trkpt lat="48.07994" lon="7.162">
        <ele>970</ele>
        <time>2019-05-07T11:55:08Z</time>
      </trkpt>
      <trkpt lat="48.07994" lon="7.16217">
        <ele>970</ele>
        <time>2019-05-07T11:56:08Z</time>
      </trkpt>
      <trkpt lat="48.08001" lon="7.16261">
        <ele>969</ele>
        <time>2019-05-07T11:57:08Z</time>
      </trkpt>
      <trkpt lat="48.07996" lon="7.16299">
        <ele>967</ele>
        <time>2019-05-07T11:58:08Z</time>
      </trkpt>
      <trkpt lat="48.07966" lon="7.1639">
        <ele>959</ele>
        <time>2019-05-07T11:59:08Z</time>
      </trkpt>
      <trkpt lat="48.07964" lon="7.16428">
        <ele>956</ele>
        <time>2019-05-07T12:00:08Z</time>
      </trkpt>
      <trkpt lat="48.07958" lon="7.16447">
        <ele>955</ele>
        <time>2019-05-07T12:01:08Z</time>
      </trkpt>
      <trkpt lat="48.07927" lon="7.16495">
        <ele>951</ele>
        <time>2019-05-07T12:02:08Z</time>
      </trkpt>
      <trkpt lat="48.07919" lon="7.16519">
        <ele>950</ele>
        <time>2019-05-07T12:03:08Z</time>
      </trkpt>
      <trkpt lat="48.07917" lon="7.16534">
        <ele>949</ele>
        <time>2019-05-07T12:04:08Z</time>
      </trkpt>
      <trkpt lat="48.07922" lon="7.16623">
        <ele>942</ele>
        <time>2019-05-07T12:05:08Z</time>
      </trkpt>
      <trkpt lat="48.07914" lon="7.16659">
        <ele>940</ele>
        <time>2019-05-07T12:06:08Z</time>
      </trkpt>
      <trkpt lat="48.07915" lon="7.16737">
        <ele>939</ele>
        <time>2019-05-07T12:07:08Z</time>
      </trkpt>
      <trkpt lat="48.07909" lon="7.16783">
        <ele>936</ele>
        <time>2019-05-07T12:08:08Z</time>
      </trkpt>
      <trkpt lat="48.07909" lon="7.16816">
        <ele>934</ele>
        <time>2019-05-07T12:09:08Z</time>
      </trkpt>
      <trkpt lat="48.07917" lon="7.16846">
        <ele>935</ele>
        <time>2019-05-07T12:10:08Z</time>
      </trkpt>
      <trkpt lat="48.07931" lon="7.16879">
        <ele>934</ele>
        <time>2019-05-07T12:11:08Z</time>
      </trkpt>
      <trkpt lat="48.07958" lon="7.16918">
        <ele>934</ele>
        <time>2019-05-07T12:12:08Z</time>
      </trkpt>
      <trkpt lat="48.07972" lon="7.16948">
        <ele>934</ele>
        <time>2019-05-07T12:13:08Z</time>
      </trkpt>
      <trkpt lat="48.0797" lon="7.16985">
        <ele>933</ele>
        <time>2019-05-07T12:14:08Z</time>
      </trkpt>
      <trkpt lat="48.07972" lon="7.17048">
        <ele>933</ele>
        <time>2019-05-07T12:15:08Z</time>
      </trkpt>
      <trkpt lat="48.07982" lon="7.17084">
        <ele>932</ele>
        <time>2019-05-07T12:16:08Z</time>
      </trkpt>
      <trkpt lat="48.08023" lon="7.17162">
        <ele>931</ele>
        <time>2019-05-07T12:17:08Z</time>
      </trkpt>
      <trkpt lat="48.0803" lon="7.1719">
        <ele>930</ele>
        <time>2019-05-07T12:18:08Z</time>
      </trkpt>
      <trkpt lat="48.08067" lon="7.1725">
        <ele>931</ele>
        <time>2019-05-07T12:19:08Z</time>
      </trkpt>
      <trkpt lat="48.08127" lon="7.17366">
        <ele>927</ele>
        <time>2019-05-07T12:20:08Z</time>
      </trkpt>
      <trkpt lat="48.08132" lon="7.17403">
        <ele>928</ele>
        <time>2019-05-07T12:21:08Z</time>
      </trkpt>
      <trkpt lat="48.08142" lon="7.17433">
        <ele>928</ele>
        <time>2019-05-07T12:22:08Z</time>
      </trkpt>
      <trkpt lat="48.08164" lon="7.17557">
        <ele>932</ele>
        <time>2019-05-07T12:23:08Z</time>
      </trkpt>
      <trkpt lat="48.08224" lon="7.17745">
        <ele>925</ele>
        <time>2019-05-07T12:24:08Z</time>
      </trkpt>
      <trkpt lat="48.08247" lon="7.17771">
        <ele>923</ele>
        <time>2019-05-07T12:25:08Z</time>
      </trkpt>
      <trkpt lat="48.08299" lon="7.17819">
        <ele>916</ele>
        <time>2019-05-07T12:26:08Z</time>
      </trkpt>
      <trkpt lat="48.08319" lon="7.17841">
        <ele>914</ele>
        <time>2019-05-07T12:27:08Z</time>
      </trkpt>
      <trkpt lat="48.08335" lon="7.17873">
        <ele>916</ele>
        <time>2019-05-07T12:28:08Z</time>
      </trkpt>
      <trkpt lat="48.08345" lon="7.17903">
        <ele>917</ele>
        <time>2019-05-07T12:29:08Z</time>
      </trkpt>
      <trkpt lat="48.08359" lon="7.17954">
        <ele>915</ele>
        <time>2019-05-07T12:30:08Z</time>
      </trkpt>
      <trkpt lat="48.08363" lon="7.1799">
        <ele>916</ele>
        <time>2019-05-07T12:31:08Z</time>
      </trkpt>
      <trkpt lat="48.08357" lon="7.18069">
        <ele>917</ele>
        <time>2019-05-07T12:32:08Z</time>
      </trkpt>
      <trkpt lat="48.08351" lon="7.18109">
        <ele>918</ele>
        <time>2019-05-07T12:33:08Z</time>
      </trkpt>
      <trkpt lat="48.08341" lon="7.18131">
        <ele>919</ele>
        <time>2019-05-07T12:34:08Z</time>
      </trkpt>
      <trkpt lat="48.08334" lon="7.1816">
        <ele>919</ele>
        <time>2019-05-07T12:35:08Z</time>
      </trkpt>
      <trkpt lat="48.08344" lon="7.18214">
        <ele>911</ele>
        <time>2019-05-07T12:36:08Z</time>
      </trkpt>
      <trkpt lat="48.08352" lon="7.18248">
        <ele>907</ele>
        <time>2019-05-07T12:37:08Z</time>
      </trkpt>
      <trkpt lat="48.0839" lon="7.18311">
        <ele>903</ele>
        <time>2019-05-07T12:38:08Z</time>
      </trkpt>
      <trkpt lat="48.08401" lon="7.18347">
        <ele>903</ele>
        <time>2019-05-07T12:39:08Z</time>
      </trkpt>
      <trkpt lat="48.084" lon="7.1836">
        <ele>903</ele>
        <time>2019-05-07T12:40:08Z</time>
      </trkpt>
      <trkpt lat="48.0842" lon="7.18431">
        <ele>902</ele>
        <time>2019-05-07T12:41:08Z</time>
      </trkpt>
      <trkpt lat="48.08435" lon="7.1846">
        <ele>898</ele>
        <time>2019-05-07T12:42:08Z</time>
      </trkpt>
      <trkpt lat="48.08461" lon="7.18498">
        <ele>895</ele>
        <time>2019-05-07T12:43:08Z</time>
      </trkpt>
      <trkpt lat="48.08464" lon="7.18539">
        <ele>895</ele>
        <time>2019-05-07T12:44:08Z</time>
      </trkpt>
      <trkpt lat="48.0848" lon="7.18584">
        <ele>896</ele>
        <time>2019-05-07T12:45:08Z</time>
      </trkpt>
      <trkpt lat="48.08486" lon="7.18594">
        <ele>897</ele>
        <time>2019-05-07T12:46:08Z</time>
      </trkpt>
      <trkpt lat="48.08511" lon="7.18588">
        <ele>899</ele>
        <time>2019-05-07T12:47:08Z</time>
      </trkpt>
      <trkpt lat="48.08561" lon="7.18586">
        <ele>899</ele>
        <time>2019-05-07T12:48:08Z</time>
      </trkpt>
      <trkpt lat="48.08584" lon="7.18582">
        <ele>898</ele>
        <time>2019-05-07T12:49:08Z</time>
      </trkpt>
      <trkpt lat="48.08607" lon="7.18591">
        <ele>896</ele>
        <time>2019-05-07T12:50:08Z</time>
      </trkpt>
      <trkpt lat="48.08647" lon="7.18589">
        <ele>890</ele>
        <time>2019-05-07T12:51:08Z</time>
      </trkpt>
      <trkpt lat="48.08709" lon="7.1862">
        <ele>889</ele>
        <time>2019-05-07T12:52:08Z</time>
      </trkpt>
      <trkpt lat="48.08735" lon="7.18612">
        <ele>885</ele>
        <time>2019-05-07T12:53:08Z</time>
      </trkpt>
      <trkpt lat="48.08746" lon="7.18611">
        <ele>883</ele>
        <time>2019-05-07T12:54:08Z</time>
      </trkpt>
      <trkpt lat="48.08779" lon="7.18619">
        <ele>884</ele>
        <time>2019-05-07T12:55:08Z</time>
      </trkpt>
      <trkpt lat="48.08822" lon="7.18621">
        <ele>883</ele>
        <time>2019-05-07T12:56:08Z</time>
      </trkpt>
      <trkpt lat="48.08869" lon="7.18613">
        <ele>878</ele>
        <time>2019-05-07T12:57:08Z</time>
      </trkpt>
      <trkpt lat="48.08888" lon="7.18613">
        <ele>876</ele>
        <time>2019-05-07T12:58:08Z</time>
      </trkpt>
      <trkpt lat="48.08903" lon="7.18617">
        <ele>876</ele>
        <time>2019-05-07T12:59:08Z</time>
      </trkpt>
      <trkpt lat="48.08932" lon="7.18626">
        <ele>874</ele>
        <time>2019-05-07T13:00:08Z</time>
      </trkpt>
      <trkpt lat="48.08972" lon="7.18652">
        <ele>873</ele>
        <time>2019-05-07T13:01:08Z</time>
      </trkpt>
      <trkpt lat="48.08998" lon="7.18664">
        <ele>871</ele>
        <time>2019-05-07T13:02:08Z</time>
      </trkpt>
      <trkpt lat="48.0902" lon="7.18688">
        <ele>871</ele>
        <time>2019-05-07T13:03:08Z</time>
      </trkpt>
      <trkpt lat="48.09041" lon="7.18727">
        <ele>872</ele>
        <time>2019-05-07T13:04:08Z</time>
      </trkpt>
      <trkpt lat="48.0905" lon="7.18751">
        <ele>873</ele>
        <time>2019-05-07T13:05:08Z</time>
      </trkpt>
      <trkpt lat="48.0906" lon="7.18779">
        <ele>873</ele>
        <time>2019-05-07T13:06:08Z</time>
      </trkpt>
      <trkpt lat="48.09065" lon="7.18816">
        <ele>876</ele>
        <time>2019-05-07T13:07:08Z</time>
      </trkpt>
      <trkpt lat="48.0909" lon="7.18863">
        <ele>870</ele>
        <time>2019-05-07T13:08:08Z</time>
      </trkpt>
      <trkpt lat="48.09095" lon="7.18999">
        <ele>863</ele>
        <time>2019-05-07T13:09:08Z</time>
      </trkpt>
      <trkpt lat="48.09091" lon="7.19053">
        <ele>859</ele>
        <time>2019-05-07T13:10:08Z</time>
      </trkpt>
      <trkpt lat="48.09077" lon="7.19106">
        <ele>858</ele>
        <time>2019-05-07T13:11:08Z</time>
      </trkpt>
      <trkpt lat="48.09066" lon="7.19211">
        <ele>844</ele>
        <time>2019-05-07T13:12:08Z</time>
      </trkpt>
      <trkpt lat="48.09054" lon="7.19254">
        <ele>839</ele>
        <time>2019-05-07T13:13:08Z</time>
      </trkpt>
      <trkpt lat="48.0906" lon="7.19278">
        <ele>833</ele>
        <time>2019-05-07T13:14:08Z</time>
      </trkpt>
      <trkpt lat="48.0908" lon="7.19289">
        <ele>828</ele>
        <time>2019-05-07T13:15:08Z</time>
      </trkpt>
      <trkpt lat="48.09085" lon="7.19305">
        <ele>825</ele>
        <time>2019-05-07T13:16:08Z</time>
      </trkpt>
      <trkpt lat="48.09083" lon="7.19322">
        <ele>822</ele>
        <time>2019-05-07T13:17:08Z</time>
      </trkpt>
      <trkpt lat="48.09038" lon="7.19401">
        <ele>814</ele>
        <time>2019-05-07T13:18:08Z</time>
      </trkpt>
      <trkpt lat="48.09031" lon="7.19438">
        <ele>808</ele>
        <time>2019-05-07T13:19:08Z</time>
      </trkpt>
      <trkpt lat="48.09034" lon="7.19484">
        <ele>801</ele>
        <time>2019-05-07T13:20:08Z</time>
      </trkpt>
      <trkpt lat="48.09045" lon="7.19533">
        <ele>797</ele>
        <time>2019-05-07T13:21:08Z</time>
      </trkpt>
      <trkpt lat="48.09047" lon="7.19568">
        <ele>795</ele>
        <time>2019-05-07T13:22:08Z</time>
      </trkpt>
      <trkpt lat="48.09073" lon="7.19636">
        <ele>791</ele>
        <time>2019-05-07T13:23:08Z</time>
      </trkpt>
      <trkpt lat="48.09091" lon="7.19691">
        <ele>789</ele>
        <time>2019-05-07T13:24:08Z</time>
      </trkpt>
      <trkpt lat="48.09095" lon="7.19755">
        <ele>785</ele>
        <time>2019-05-07T13:25:08Z</time>
      </trkpt>
      <trkpt lat="48.09105" lon="7.19792">
        <ele>785</ele>
        <time>2019-05-07T13:26:08Z</time>
      </trkpt>
      <trkpt lat="48.09129" lon="7.19842">
        <ele>788</ele>
        <time>2019-05-07T13:27:08Z</time>
      </trkpt>
      <trkpt lat="48.09144" lon="7.19915">
        <ele>786</ele>
        <time>2019-05-07T13:28:08Z</time>
      </trkpt>
      <trkpt lat="48.09151" lon="7.20084">
        <ele>785</ele>
        <time>2019-05-07T13:29:08Z</time>
      </trkpt>
      <trkpt lat="48.0916" lon="7.20134">
        <ele>786</ele>
        <time>2019-05-07T13:30:08Z</time>
      </trkpt>
      <trkpt lat="48.09163" lon="7.20172">
        <ele>786</ele>
        <time>2019-05-07T13:31:08Z</time>
      </trkpt>
      <trkpt lat="48.09154" lon="7.20187">
        <ele>782</ele>
        <time>2019-05-07T13:32:08Z</time>
      </trkpt>
      <trkpt lat="48.0916" lon="7.20231">
        <ele>779</ele>
        <time>2019-05-07T13:33:08Z</time>
      </trkpt>
      <trkpt lat="48.09166" lon="7.20252">
        <ele>780</ele>
        <time>2019-05-07T13:34:08Z</time>
      </trkpt>
      <trkpt lat="48.09187" lon="7.20281">
        <ele>779</ele>
        <time>2019-05-07T13:35:08Z</time>
      </trkpt>
      <trkpt lat="48.09204" lon="7.20314">
        <ele>779</ele>
        <time>2019-05-07T13:36:08Z</time>
      </trkpt>
      <trkpt lat="48.09214" lon="7.20346">
        <ele>778</ele>
        <time>2019-05-07T13:37:08Z</time>
      </trkpt>
      <trkpt lat="48.09186" lon="7.20413">
        <ele>775</ele>
        <time>2019-05-07T13:38:08Z</time>
      </trkpt>
      <trkpt lat="48.09161" lon="7.20427">
        <ele>772</ele>
        <time>2019-05-07T13:39:08Z</time>
      </trkpt>
      <trkpt lat="48.09138" lon="7.20479">
        <ele>771</ele>
        <time>2019-05-07T13:40:08Z</time>
      </trkpt>
      <trkpt lat="48.0913" lon="7.20515">
        <ele>772</ele>
        <time>2019-05-07T13:41:08Z</time>
      </trkpt>
      <trkpt lat="48.09133" lon="7.20582">
        <ele>776</ele>
        <time>2019-05-07T13:42:08Z</time>
      </trkpt>
      <trkpt lat="48.0913" lon="7.20591">
        <ele>776</ele>
        <time>2019-05-07T13:43:08Z</time>
      </trkpt>
      <trkpt lat="48.09104" lon="7.20569">
        <ele>772</ele>
        <time>2019-05-07T13:44:08Z</time>
      </trkpt>
      <trkpt lat="48.09081" lon="7.20558">
        <ele>767</ele>
        <time>2019-05-07T13:45:08Z</time>
      </trkpt>
      <trkpt lat="48.09057" lon="7.20558">
        <ele>763</ele>
        <time>2019-05-07T13:46:08Z</time>
      </trkpt>
      <trkpt lat="48.09023" lon="7.20589">
        <ele>761</ele>
        <time>2019-05-07T13:47:08Z</time>
      </trkpt>
      <trkpt lat="48.08997" lon="7.20597">
        <ele>758</ele>
        <time>2019-05-07T13:48:08Z</time>
      </trkpt>
      <trkpt lat="48.08972" lon="7.2058">
        <ele>752</ele>
        <time>2019-05-07T13:49:08Z</time>
      </trkpt>
      <trkpt lat="48.08941" lon="7.20546">
        <ele>742</ele>
        <time>2019-05-07T13:50:08Z</time>
      </trkpt>
      <trkpt lat="48.08913" lon="7.20552">
        <ele>738</ele>
        <time>2019-05-07T13:51:08Z</time>
      </trkpt>
      <trkpt lat="48.0888" lon="7.20577">
        <ele>731</ele>
        <time>2019-05-07T13:52:08Z</time>
      </trkpt>
      <trkpt lat="48.08857" lon="7.20613">
        <ele>727</ele>
        <time>2019-05-07T13:53:08Z</time>
      </trkpt>
      <trkpt lat="48.08844" lon="7.20651">
        <ele>726</ele>
        <time>2019-05-07T13:54:08Z</time>
      </trkpt>
      <trkpt lat="48.08836" lon="7.20689">
        <ele>727</ele>
        <time>2019-05-07T13:55:08Z</time>
      </trkpt>
      <trkpt lat="48.08824" lon="7.20727">
        <ele>727</ele>
        <time>2019-05-07T13:56:08Z</time>
      </trkpt>
      <trkpt lat="48.08803" lon="7.20756">
        <ele>724</ele>
        <time>2019-05-07T13:57:08Z</time>
      </trkpt>
      <trkpt lat="48.08774" lon="7.20769">
        <ele>717</ele>
        <time>2019-05-07T13:58:08Z</time>
      </trkpt>
      <trkpt lat="48.08656" lon="7.20762">
        <ele>695</ele>
        <time>2019-05-07T13:59:08Z</time>
      </trkpt>
      <trkpt lat="48.0863" lon="7.20768">
        <ele>691</ele>
        <time>2019-05-07T14:00:08Z</time>
      </trkpt>
      <trkpt lat="48.08612" lon="7.20775">
        <ele>689</ele>
        <time>2019-05-07T14:01:08Z</time>
      </trkpt>
      <trkpt lat="48.08579" lon="7.20794">
        <ele>686</ele>
        <time>2019-05-07T14:02:08Z</time>
      </trkpt>
      <trkpt lat="48.08549" lon="7.20807">
        <ele>680</ele>
        <time>2019-05-07T14:03:08Z</time>
      </trkpt>
      <trkpt lat="48.08476" lon="7.20853">
        <ele>665</ele>
        <time>2019-05-07T14:04:08Z</time>
      </trkpt>
      <trkpt lat="48.08465" lon="7.20869">
        <ele>663</ele>
        <time>2019-05-07T14:05:08Z</time>
      </trkpt>
      <trkpt lat="48.08453" lon="7.20898">
        <ele>661</ele>
        <time>2019-05-07T14:06:08Z</time>
      </trkpt>
      <trkpt lat="48.08449" lon="7.20943">
        <ele>659</ele>
        <time>2019-05-07T14:07:08Z</time>
      </trkpt>
      <trkpt lat="48.0844" lon="7.20934">
        <ele>656</ele>
        <time>2019-05-07T14:08:08Z</time>
      </trkpt>
      <trkpt lat="48.08434" lon="7.20898">
        <ele>653</ele>
        <time>2019-05-07T14:09:08Z</time>
      </trkpt>
      <trkpt lat="48.08427" lon="7.209">
        <ele>650</ele>
        <time>2019-05-07T14:10:08Z</time>
      </trkpt>
      <trkpt lat="48.08422" lon="7.20905">
        <ele>649</ele>
        <time>2019-05-07T14:11:08Z</time>
      </trkpt>
      <trkpt lat="48.08396" lon="7.20977">
        <ele>634</ele>
        <time>2019-05-07T14:12:08Z</time>
      </trkpt>
      <trkpt lat="48.08389" lon="7.20974">
        <ele>631</ele>
        <time>2019-05-07T14:13:08Z</time>
      </trkpt>
      <trkpt lat="48.08384" lon="7.20958">
        <ele>630</ele>
        <time>2019-05-07T14:14:08Z</time>
      </trkpt>
      <trkpt lat="48.08392" lon="7.20842">
        <ele>626</ele>
        <time>2019-05-07T14:15:08Z</time>
      </trkpt>
      <trkpt lat="48.08392" lon="7.20793">
        <ele>618</ele>
        <time>2019-05-07T14:16:08Z</time>
      </trkpt>
      <trkpt lat="48.08399" lon="7.20756">
        <ele>615</ele>
        <time>2019-05-07T14:17:08Z</time>
      </trkpt>
      <trkpt lat="48.08409" lon="7.20728">
        <ele>612</ele>
        <time>2019-05-07T14:18:08Z</time>
      </trkpt>
      <trkpt lat="48.08433" lon="7.20677">
        <ele>604</ele>
        <time>2019-05-07T14:19:08Z</time>
      </trkpt>
      <trkpt lat="48.08449" lon="7.20663">
        <ele>605</ele>
        <time>2019-05-07T14:20:08Z</time>
      </trkpt>
      <trkpt lat="48.08443" lon="7.20656">
        <ele>600</ele>
        <time>2019-05-07T14:21:08Z</time>
      </trkpt>
      <trkpt lat="48.08415" lon="7.20656">
        <ele>592</ele>
        <time>2019-05-07T14:22:08Z</time>
      </trkpt>
      <trkpt lat="48.08387" lon="7.20672">
        <ele>586</ele>
        <time>2019-05-07T14:23:08Z</time>
      </trkpt>
      <trkpt lat="48.08365" lon="7.20696">
        <ele>583</ele>
        <time>2019-05-07T14:24:08Z</time>
      </trkpt>
      <trkpt lat="48.08348" lon="7.20722">
        <ele>581</ele>
        <time>2019-05-07T14:25:08Z</time>
      </trkpt>
      <trkpt lat="48.08334" lon="7.20728">
        <ele>575</ele>
        <time>2019-05-07T14:26:08Z</time>
      </trkpt>
      <trkpt lat="48.0836" lon="7.20636">
        <ele>568</ele>
        <time>2019-05-07T14:27:08Z</time>
      </trkpt>
      <trkpt lat="48.08376" lon="7.20603">
        <ele>564</ele>
        <time>2019-05-07T14:28:08Z</time>
      </trkpt>
      <trkpt lat="48.08375" lon="7.20592">
        <ele>561</ele>
        <time>2019-05-07T14:29:08Z</time>
      </trkpt>
      <trkpt lat="48.08347" lon="7.20595">
        <ele>556</ele>
        <time>2019-05-07T14:30:08Z</time>
      </trkpt>
      <trkpt lat="48.08319" lon="7.20626">
        <ele>554</ele>
        <time>2019-05-07T14:31:08Z</time>
      </trkpt>
      <trkpt lat="48.08314" lon="7.20637">
        <ele>554</ele>
        <time>2019-05-07T14:32:08Z</time>
      </trkpt>
      <trkpt lat="48.08309" lon="7.20634">
        <ele>553</ele>
        <time>2019-05-07T14:33:08Z</time>
      </trkpt>
      <trkpt lat="48.08312" lon="7.20645">
        <ele>555</ele>
        <time>2019-05-07T14:34:08Z</time>
      </trkpt>
      <trkpt lat="48.08286" lon="7.20746">
        <ele>556</ele>
        <time>2019-05-07T14:35:08Z</time>
      </trkpt>
      <trkpt lat="48.08269" lon="7.20799">
        <ele>554</ele>
        <time>2019-05-07T14:36:08Z</time>
      </trkpt>
      <trkpt lat="48.0819" lon="7.20933">
        <ele>535</ele>
        <time>2019-05-07T14:37:08Z</time>
      </trkpt>
      <trkpt lat="48.08174" lon="7.20981">
        <ele>535</ele>
        <time>2019-05-07T14:38:08Z</time>
      </trkpt>
      <trkpt lat="48.08157" lon="7.21041">
        <ele>531</ele>
        <time>2019-05-07T14:39:08Z</time>
      </trkpt>
      <trkpt lat="48.08157" lon="7.21128">
        <ele>527</ele>
        <time>2019-05-07T14:40:08Z</time>
      </trkpt>
      <trkpt lat="48.0817" lon="7.21157">
        <ele>528</ele>
        <time>2019-05-07T14:41:08Z</time>
      </trkpt>
      <trkpt lat="48.0817" lon="7.21164">
        <ele>527</ele>
        <time>2019-05-07T14:42:08Z</time>
      </trkpt>
      <trkpt lat="48.08143" lon="7.21218">
        <ele>508</ele>
        <time>2019-05-07T14:43:08Z</time>
      </trkpt>
      <trkpt lat="48.08119" lon="7.21277">
        <ele>493</ele>
        <time>2019-05-07T14:44:08Z</time>
      </trkpt>
      <trkpt lat="48.08076" lon="7.21345">
        <ele>476</ele>
        <time>2019-05-07T14:45:08Z</time>
      </trkpt>
      <trkpt lat="48.08068" lon="7.21369">
        <ele>470</ele>
        <time>2019-05-07T14:46:08Z</time>
      </trkpt>
      <trkpt lat="48.08036" lon="7.21427">
        <ele>456</ele>
        <time>2019-05-07T14:47:08Z</time>
      </trkpt>
      <trkpt lat="48.08015" lon="7.21447">
        <ele>451</ele>
        <time>2019-05-07T14:48:08Z</time>
      </trkpt>
      <trkpt lat="48.08004" lon="7.21454">
        <ele>449</ele>
        <time>2019-05-07T14:49:08Z</time>
      </trkpt>
      <trkpt lat="48.07996" lon="7.21467">
        <ele>447</ele>
        <time>2019-05-07T14:50:08Z</time>
      </trkpt>
      <trkpt lat="48.07975" lon="7.21485">
        <ele>447</ele>
        <time>2019-05-07T14:51:08Z</time>
      </trkpt>
      <trkpt lat="48.07965" lon="7.21507">
        <ele>445</ele>
        <time>2019-05-07T14:52:08Z</time>
      </trkpt>
      <trkpt lat="48.07958" lon="7.21544">
        <ele>441</ele>
        <time>2019-05-07T14:53:08Z</time>
      </trkpt>
      <trkpt lat="48.07963" lon="7.21576">
        <ele>437</ele>
        <time>2019-05-07T14:54:08Z</time>
      </trkpt>
      <trkpt lat="48.07959" lon="7.21636">
        <ele>435</ele>
        <time>2019-05-07T14:55:08Z</time>
      </trkpt>
      <trkpt lat="48.07964" lon="7.21626">
        <ele>436</ele>
        <time>2019-05-07T14:56:08Z</time>
      </trkpt>
      <trkpt lat="48.07961" lon="7.21613">
        <ele>436</ele>
        <time>2019-05-07T14:57:08Z</time>
      </trkpt>
      <trkpt lat="48.07974" lon="7.21647">
        <ele>438</ele>
        <time>2019-05-07T14:58:08Z</time>
      </trkpt>
      <trkpt lat="48.07979" lon="7.21623">
        <ele>438</ele>
        <time>2019-05-07T14:59:08Z</time>
      </trkpt>
      <trkpt lat="48.07986" lon="7.21617">
        <ele>439</ele>
        <time>2019-05-07T15:00:08Z</time>
      </trkpt>
      <trkpt lat="48.07989" lon="7.21627">
        <ele>440</ele>
        <time>2019-05-07T15:01:08Z</time>
      </trkpt>
      <trkpt lat="48.07989" lon="7.21651">
        <ele>441</ele>
        <time>2019-05-07T15:02:08Z</time>
      </trkpt>
      <trkpt lat="48.07992" lon="7.21667">
        <ele>443</ele>
        <time>2019-05-07T15:03:08Z</time>
      </trkpt>
      <trkpt lat="48.07987" lon="7.21689">
        <ele>444</ele>
        <time>2019-05-07T15:04:08Z</time>
      </trkpt>
      <trkpt lat="48.07991" lon="7.21701">
        <ele>446</ele>
        <time>2019-05-07T15:05:08Z</time>
      </trkpt>
      <trkpt lat="48.07989" lon="7.21724">
        <ele>448</ele>
        <time>2019-05-07T15:06:08Z</time>
      </trkpt>
      <trkpt lat="48.07982" lon="7.21761">
        <ele>449</ele>
        <time>2019-05-07T15:07:08Z</time>
      </trkpt>
      <trkpt lat="48.0798" lon="7.21785">
        <ele>451</ele>
        <time>2019-05-07T15:08:08Z</time>
      </trkpt>
      <trkpt lat="48.07982" lon="7.21832">
        <ele>457</ele>
        <time>2019-05-07T15:09:08Z</time>
      </trkpt>
      <trkpt lat="48.07975" lon="7.21867">
        <ele>457</ele>
        <time>2019-05-07T15:10:08Z</time>
      </trkpt>
      <trkpt lat="48.07979" lon="7.21899">
        <ele>462</ele>
        <time>2019-05-07T15:11:08Z</time>
      </trkpt>
      <trkpt lat="48.07976" lon="7.21913">
        <ele>462</ele>
        <time>2019-05-07T15:12:08Z</time>
      </trkpt>
      <trkpt lat="48.0798" lon="7.21935">
        <ele>464</ele>
        <time>2019-05-07T15:13:08Z</time>
      </trkpt>
      <trkpt lat="48.07992" lon="7.22058">
        <ele>465</ele>
        <time>2019-05-07T15:14:08Z</time>
      </trkpt>
      <trkpt lat="48.08018" lon="7.22138">
        <ele>469</ele>
        <time>2019-05-07T15:15:08Z</time>
      </trkpt>
      <trkpt lat="48.08032" lon="7.22163">
        <ele>470</ele>
        <time>2019-05-07T15:16:08Z</time>
      </trkpt>
      <trkpt lat="48.08046" lon="7.22197">
        <ele>469</ele>
        <time>2019-05-07T15:17:08Z</time>
      </trkpt>
      <trkpt lat="48.08064" lon="7.22223">
        <ele>468</ele>
        <time>2019-05-07T15:18:08Z</time>
      </trkpt>
      <trkpt lat="48.08139" lon="7.22266">
        <ele>469</ele>
        <time>2019-05-07T15:19:08Z</time>
      </trkpt>
      <trkpt lat="48.08178" lon="7.22282">
        <ele>471</ele>
        <time>2019-05-07T15:20:08Z</time>
      </trkpt>
      <trkpt lat="48.08189" lon="7.22298">
        <ele>469</ele>
        <time>2019-05-07T15:21:08Z</time>
      </trkpt>
      <trkpt lat="48.08183" lon="7.22329">
        <ele>462</ele>
        <time>2019-05-07T15:22:08Z</time>
      </trkpt>
      <trkpt lat="48.08172" lon="7.22352">
        <ele>460</ele>
        <time>2019-05-07T15:23:08Z</time>
      </trkpt>
      <trkpt lat="48.0816" lon="7.2237">
        <ele>458</ele>
        <time>2019-05-07T15:24:08Z</time>
      </trkpt>
      <trkpt lat="48.0815" lon="7.22393">
        <ele>457</ele>
        <time>2019-05-07T15:25:08Z</time>
      </trkpt>
      <trkpt lat="48.08119" lon="7.22478">
        <ele>457</ele>
        <time>2019-05-07T15:26:08Z</time>
      </trkpt>
      <trkpt lat="48.08111" lon="7.22527">
        <ele>459</ele>
        <time>2019-05-07T15:27:08Z</time>
      </trkpt>
      <trkpt lat="48.08113" lon="7.22579">
        <ele>465</ele>
        <time>2019-05-07T15:28:08Z</time>
      </trkpt>
      <trkpt lat="48.08103" lon="7.22616">
        <ele>464</ele>
        <time>2019-05-07T15:29:08Z</time>
      </trkpt>
      <trkpt lat="48.08107" lon="7.22657">
        <ele>468</ele>
        <time>2019-05-07T15:30:08Z</time>
      </trkpt>
      <trkpt lat="48.08116" lon="7.22699">
        <ele>471</ele>
        <time>2019-05-07T15:31:08Z</time>
      </trkpt>
      <trkpt lat="48.08121" lon="7.2271">
        <ele>473</ele>
        <time>2019-05-07T15:32:08Z</time>
      </trkpt>
      <trkpt lat="48.08154" lon="7.2277">
        <ele>482</ele>
        <time>2019-05-07T15:33:08Z</time>
      </trkpt>
      <trkpt lat="48.08182" lon="7.22809">
        <ele>487</ele>
        <time>2019-05-07T15:34:08Z</time>
      </trkpt>
      <trkpt lat="48.08208" lon="7.22865">
        <ele>485</ele>
        <time>2019-05-07T15:35:08Z</time>
      </trkpt>
      <trkpt lat="48.08257" lon="7.22945">
        <ele>487</ele>
        <time>2019-05-07T15:36:08Z</time>
      </trkpt>
      <trkpt lat="48.08264" lon="7.2296">
        <ele>488</ele>
        <time>2019-05-07T15:37:08Z</time>
      </trkpt>
      <trkpt lat="48.08268" lon="7.22982">
        <ele>486</ele>
        <time>2019-05-07T15:38:08Z</time>
      </trkpt>
      <trkpt lat="48.08279" lon="7.23016">
        <ele>487</ele>
        <time>2019-05-07T15:39:08Z</time>
      </trkpt>
      <trkpt lat="48.08283" lon="7.23042">
        <ele>486</ele>
        <time>2019-05-07T15:40:08Z</time>
      </trkpt>
      <trkpt lat="48.08298" lon="7.23086">
        <ele>488</ele>
        <time>2019-05-07T15:41:08Z</time>
      </trkpt>
      <trkpt lat="48.08305" lon="7.23117">
        <ele>489</ele>
        <time>2019-05-07T15:42:08Z</time>
      </trkpt>
      <trkpt lat="48.08311" lon="7.23185">
        <ele>490</ele>
        <time>2019-05-07T15:43:08Z</time>
      </trkpt>
      <trkpt lat="48.08324" lon="7.23201">
        <ele>492</ele>
        <time>2019-05-07T15:44:08Z</time>
      </trkpt>
      <trkpt lat="48.08318" lon="7.23205">
        <ele>491</ele>
        <time>2019-05-07T15:45:08Z</time>
      </trkpt>
      <trkpt lat="48.08298" lon="7.23185">
        <ele>489</ele>
        <time>2019-05-07T15:46:08Z</time>
      </trkpt>
      <trkpt lat="48.08263" lon="7.23173">
        <ele>483</ele>
        <time>2019-05-07T15:47:08Z</time>
      </trkpt>
      <trkpt lat="48.08207" lon="7.23178">
        <ele>475</ele>
        <time>2019-05-07T15:48:08Z</time>
      </trkpt>
      <trkpt lat="48.08158" lon="7.23171">
        <ele>466</ele>
        <time>2019-05-07T15:49:08Z</time>
      </trkpt>
      <trkpt lat="48.08092" lon="7.23184">
        <ele>453</ele>
        <time>2019-05-07T15:50:08Z</time>
      </trkpt>
      <trkpt lat="48.08062" lon="7.23215">
        <ele>451</ele>
        <time>2019-05-07T15:51:08Z</time>
      </trkpt>
      <trkpt lat="48.08032" lon="7.23257">
        <ele>448</ele>
        <time>2019-05-07T15:52:08Z</time>
      </trkpt>
      <trkpt lat="48.08011" lon="7.23305">
        <ele>445</ele>
        <time>2019-05-07T15:53:08Z</time>
      </trkpt>
      <trkpt lat="48.07976" lon="7.23423">
        <ele>442</ele>
        <time>2019-05-07T15:54:08Z</time>
      </trkpt>
      <trkpt lat="48.0797" lon="7.23465">
        <ele>440</ele>
        <time>2019-05-07T15:55:08Z</time>
      </trkpt>
      <trkpt lat="48.07925" lon="7.23481">
        <ele>429</ele>
        <time>2019-05-07T15:56:08Z</time>
      </trkpt>
      <trkpt lat="48.07885" lon="7.23488">
        <ele>423</ele>
        <time>2019-05-07T15:57:08Z</time>
      </trkpt>
      <trkpt lat="48.07844" lon="7.23503">
        <ele>417</ele>
        <time>2019-05-07T15:58:08Z</time>
      </trkpt>
      <trkpt lat="48.07737" lon="7.23534">
        <ele>390</ele>
        <time>2019-05-07T15:59:08Z</time>
      </trkpt>
      <trkpt lat="48.07727" lon="7.2355">
        <ele>387</ele>
        <time>2019-05-07T16:00:08Z</time>
      </trkpt>
      <trkpt lat="48.07714" lon="7.23684">
        <ele>378</ele>
        <time>2019-05-07T16:01:08Z</time>
      </trkpt>
      <trkpt lat="48.07699" lon="7.23714">
        <ele>372</ele>
        <time>2019-05-07T16:02:08Z</time>
      </trkpt>
      <trkpt lat="48.07668" lon="7.2373">
        <ele>364</ele>
        <time>2019-05-07T16:03:08Z</time>
      </trkpt>
      <trkpt lat="48.07618" lon="7.2374">
        <ele>353</ele>
        <time>2019-05-07T16:04:08Z</time>
      </trkpt>
      <trkpt lat="48.07603" lon="7.23748">
        <ele>349</ele>
        <time>2019-05-07T16:05:08Z</time>
      </trkpt>
      <trkpt lat="48.07569" lon="7.23736">
        <ele>343</ele>
        <time>2019-05-07T16:06:08Z</time>
      </trkpt>
      <trkpt lat="48.07561" lon="7.23738">
        <ele>341</ele>
        <time>2019-05-07T16:07:08Z</time>
      </trkpt>
      <trkpt lat="48.07544" lon="7.23759">
        <ele>335</ele>
        <time>2019-05-07T16:08:08Z</time>
      </trkpt>
      <trkpt lat="48.07517" lon="7.23777">
        <ele>327</ele>
        <time>2019-05-07T16:09:08Z</time>
      </trkpt>
      <trkpt lat="48.07511" lon="7.23784">
        <ele>325</ele>
        <time>2019-05-07T16:10:08Z</time>
      </trkpt>
      <trkpt lat="48.07482" lon="7.23752">
        <ele>321</ele>
        <time>2019-05-07T16:11:08Z</time>
      </trkpt>
      <trkpt lat="48.07454" lon="7.23668">
        <ele>318</ele>
        <time>2019-05-07T16:12:08Z</time>
      </trkpt>
      <trkpt lat="48.07441" lon="7.23656">
        <ele>314</ele>
        <time>2019-05-07T16:13:08Z</time>
      </trkpt>
      <trkpt lat="48.07428" lon="7.23607">
        <ele>309</ele>
        <time>2019-05-07T16:14:08Z</time>
      </trkpt>
      <trkpt lat="48.07423" lon="7.23575">
        <ele>308</ele>
        <time>2019-05-07T16:15:08Z</time>
      </trkpt>
      <trkpt lat="48.07411" lon="7.23556">
        <ele>306</ele>
        <time>2019-05-07T16:16:08Z</time>
      </trkpt>
      <trkpt lat="48.07393" lon="7.23559">
        <ele>305</ele>
        <time>2019-05-07T16:17:08Z</time>
      </trkpt>
      <trkpt lat="48.07382" lon="7.23509">
        <ele>306</ele>
        <time>2019-05-07T16:18:08Z</time>
      </trkpt>
      <trkpt lat="48.07396" lon="7.23494">
        <ele>307</ele>
        <time>2019-05-07T16:19:08Z</time>
      </trkpt>
      <trkpt lat="48.07407" lon="7.23487">
        <ele>307</ele>
        <time>2019-05-07T16:20:08Z</time>
      </trkpt>
      <trkpt lat="48.07413" lon="7.23477">
        <ele>308</ele>
        <time>2019-05-07T16:21:08Z</time>
      </trkpt>
      <trkpt lat="48.0742" lon="7.23455">
        <ele>309</ele>
        <time>2019-05-07T16:22:08Z</time>
      </trkpt>
      <trkpt lat="48.07453" lon="7.23399">
        <ele>313</ele>
        <time>2019-05-07T16:23:08Z</time>
      </trkpt>
      <trkpt lat="48.07463" lon="7.2337">
        <ele>313</ele>
        <time>2019-05-07T16:24:08Z</time>
      </trkpt>
      <trkpt lat="48.07471" lon="7.2336">
        <ele>314</ele>
        <time>2019-05-07T16:25:08Z</time>
      </trkpt>
      <trkpt lat="48.07475" lon="7.23318">
        <ele>314</ele>
        <time>2019-05-07T16:26:08Z</time>
      </trkpt>
      <trkpt lat="48.07514" lon="7.23222">
        <ele>319</ele>
        <time>2019-05-07T16:27:08Z</time>
      </trkpt>
      <trkpt lat="48.07517" lon="7.23207">
        <ele>320</ele>
        <time>2019-05-07T16:28:08Z</time>
      </trkpt>
      <trkpt lat="48.07527" lon="7.2318">
        <ele>322</ele>
        <time>2019-05-07T16:29:08Z</time>
      </trkpt>
      <trkpt lat="48.07526" lon="7.23167">
        <ele>322</ele>
        <time>2019-05-07T16:30:08Z</time>
      </trkpt>
      <trkpt lat="48.07518" lon="7.2314">
        <ele>323</ele>
        <time>2019-05-07T16:31:08Z</time>
      </trkpt>
      <trkpt lat="48.07517" lon="7.23127">
        <ele>324</ele>
        <time>2019-05-07T16:32:08Z</time>
      </trkpt>
      <trkpt lat="48.07521" lon="7.23117">
        <ele>325</ele>
        <time>2019-05-07T16:33:08Z</time>
      </trkpt>
      <trkpt lat="48.07518" lon="7.23129">
        <ele>324</ele>
        <time>2019-05-07T16:34:08Z</time>
      </trkpt>
      <trkpt lat="48.07521" lon="7.23142">
        <ele>323</ele>
        <time>2019-05-07T16:35:08Z</time>
      </trkpt>
    </trkseg>
  </trk>
</gpx>